<?xml version="1.0" encoding="UTF-8" standalone="no" ?>
<gpx xmlns="http://www.topografix.com/GPX/1/1" xmlns:xsi="http://www.w3.org/2001/XMLSchema-instance" xsi:schemaLocation="http://www.topografix.com/GPX/1/1 http://www.topografix.com/GPX/1/1/gpx.xsd" version="1.1" creator="VisuGPX - https://www.visugpx.com">
  <metadata>
    <name>Leçon d'histoire...</name>
  </metadata>
  <trk>
    <name><![CDATA[Leçon d'histoire]]></name>
    <extensions>
      <line xmlns="http://www.topografix.com/GPX/gpx_style/0/2">
        <color>0000FF</color>
        <width>4</width>
      </line>
    </extensions>
    <trkseg>
      <trkpt lat="43.63399" lon="3.90644">
        <ele>35.087756</ele>
        <time>2020-01-09T17:55:45.624Z</time>
      </trkpt>
      <trkpt lat="43.63424" lon="3.90624">
        <ele>35.087756</ele>
        <time>2020-01-09T17:55:56.804Z</time>
      </trkpt>
      <trkpt lat="43.63425" lon="3.90615">
        <ele>35.087756</ele>
        <time>2020-01-09T17:55:59.690Z</time>
      </trkpt>
      <trkpt lat="43.63421" lon="3.90606">
        <ele>35.087756</ele>
        <time>2020-01-09T17:56:02.607Z</time>
      </trkpt>
      <trkpt lat="43.6341" lon="3.90583">
        <ele>35.087756</ele>
        <time>2020-01-09T17:56:10.586Z</time>
      </trkpt>
      <trkpt lat="43.63406" lon="3.90577">
        <ele>35.087756</ele>
        <time>2020-01-09T17:56:12.947Z</time>
      </trkpt>
      <trkpt lat="43.63403" lon="3.90572">
        <ele>35.087756</ele>
        <time>2020-01-09T17:56:14.947Z</time>
      </trkpt>
      <trkpt lat="43.63383" lon="3.90554">
        <ele>35.001833</ele>
        <time>2020-01-09T17:56:24.393Z</time>
      </trkpt>
      <trkpt lat="43.63361" lon="3.90532">
        <ele>34.688813</ele>
        <time>2020-01-09T17:56:34.971Z</time>
      </trkpt>
      <trkpt lat="43.6335" lon="3.90512">
        <ele>34.47211</ele>
        <time>2020-01-09T17:56:42.386Z</time>
      </trkpt>
      <trkpt lat="43.63313" lon="3.90414">
        <ele>33.551949</ele>
        <time>2020-01-09T17:57:13.905Z</time>
      </trkpt>
      <trkpt lat="43.63311" lon="3.90412">
        <ele>33.521256</ele>
        <time>2020-01-09T17:57:14.926Z</time>
      </trkpt>
      <trkpt lat="43.63297" lon="3.90407">
        <ele>33.346209</ele>
        <time>2020-01-09T17:57:21.032Z</time>
      </trkpt>
      <trkpt lat="43.63289" lon="3.90404">
        <ele>33.256895</ele>
        <time>2020-01-09T17:57:24.139Z</time>
      </trkpt>
      <trkpt lat="43.63286" lon="3.90404">
        <ele>33.218569</ele>
        <time>2020-01-09T17:57:25.474Z</time>
      </trkpt>
      <trkpt lat="43.63286" lon="3.90379">
        <ele>33.006758</ele>
        <time>2020-01-09T17:57:32.881Z</time>
      </trkpt>
      <trkpt lat="43.63282" lon="3.90356">
        <ele>33.00216</ele>
        <time>2020-01-09T17:57:39.850Z</time>
      </trkpt>
      <trkpt lat="43.6328" lon="3.90339">
        <ele>33.004295</ele>
        <time>2020-01-09T17:57:44.803Z</time>
      </trkpt>
      <trkpt lat="43.63277" lon="3.90329">
        <ele>33.005624</ele>
        <time>2020-01-09T17:57:47.922Z</time>
      </trkpt>
      <trkpt lat="43.63267" lon="3.90281">
        <ele>33.012026</ele>
        <time>2020-01-09T17:58:02.847Z</time>
      </trkpt>
      <trkpt lat="43.63256" lon="3.90236">
        <ele>33.01804</ele>
        <time>2020-01-09T17:58:16.847Z</time>
      </trkpt>
      <trkpt lat="43.6325" lon="3.90212">
        <ele>33.021365</ele>
        <time>2020-01-09T17:58:24.621Z</time>
      </trkpt>
      <trkpt lat="43.63244" lon="3.90191">
        <ele>33.024153</ele>
        <time>2020-01-09T17:58:31.288Z</time>
      </trkpt>
      <trkpt lat="43.63235" lon="3.90157">
        <ele>33.028727</ele>
        <time>2020-01-09T17:58:42.175Z</time>
      </trkpt>
      <trkpt lat="43.63229" lon="3.90135">
        <ele>33.103456</ele>
        <time>2020-01-09T17:58:49.635Z</time>
      </trkpt>
      <trkpt lat="43.63224" lon="3.90113">
        <ele>33.332927</ele>
        <time>2020-01-09T17:58:56.603Z</time>
      </trkpt>
      <trkpt lat="43.63222" lon="3.90101">
        <ele>33.452671</ele>
        <time>2020-01-09T17:59:00.273Z</time>
      </trkpt>
      <trkpt lat="43.63221" lon="3.90097">
        <ele>33.498247</ele>
        <time>2020-01-09T17:59:01.949Z</time>
      </trkpt>
      <trkpt lat="43.63219" lon="3.90083">
        <ele>33.639877</ele>
        <time>2020-01-09T17:59:06.360Z</time>
      </trkpt>
      <trkpt lat="43.63219" lon="3.90073">
        <ele>33.734752</ele>
        <time>2020-01-09T17:59:09.253Z</time>
      </trkpt>
      <trkpt lat="43.63218" lon="3.90069">
        <ele>33.778772</ele>
        <time>2020-01-09T17:59:10.590Z</time>
      </trkpt>
      <trkpt lat="43.63209" lon="3.89963">
        <ele>34.84265</ele>
        <time>2020-01-09T17:59:44.064Z</time>
      </trkpt>
      <trkpt lat="43.63208" lon="3.89952">
        <ele>34.951534</ele>
        <time>2020-01-09T17:59:47.568Z</time>
      </trkpt>
      <trkpt lat="43.63211" lon="3.89949">
        <ele>34.998795</ele>
        <time>2020-01-09T17:59:49.322Z</time>
      </trkpt>
      <trkpt lat="43.63213" lon="3.89939">
        <ele>35.103094</ele>
        <time>2020-01-09T17:59:52.578Z</time>
      </trkpt>
      <trkpt lat="43.63215" lon="3.89938">
        <ele>35.127013</ele>
        <time>2020-01-09T17:59:53.355Z</time>
      </trkpt>
      <trkpt lat="43.63216" lon="3.89937">
        <ele>35.152067</ele>
        <time>2020-01-09T17:59:54.119Z</time>
      </trkpt>
      <trkpt lat="43.63217" lon="3.89935">
        <ele>35.1767</ele>
        <time>2020-01-09T17:59:54.902Z</time>
      </trkpt>
      <trkpt lat="43.63218" lon="3.89933">
        <ele>35.197739</ele>
        <time>2020-01-09T17:59:55.559Z</time>
      </trkpt>
      <trkpt lat="43.63219" lon="3.89931">
        <ele>35.218815</ele>
        <time>2020-01-09T17:59:56.220Z</time>
      </trkpt>
      <trkpt lat="43.63219" lon="3.89929">
        <ele>35.239777</ele>
        <time>2020-01-09T17:59:56.886Z</time>
      </trkpt>
      <trkpt lat="43.63219" lon="3.89927">
        <ele>35.266001</ele>
        <time>2020-01-09T17:59:57.701Z</time>
      </trkpt>
      <trkpt lat="43.63218" lon="3.89925">
        <ele>35.28295</ele>
        <time>2020-01-09T17:59:58.228Z</time>
      </trkpt>
      <trkpt lat="43.63216" lon="3.89922">
        <ele>35.318453</ele>
        <time>2020-01-09T17:59:59.342Z</time>
      </trkpt>
      <trkpt lat="43.63215" lon="3.89921">
        <ele>35.345193</ele>
        <time>2020-01-09T18:00:00.163Z</time>
      </trkpt>
      <trkpt lat="43.63213" lon="3.89921">
        <ele>35.373163</ele>
        <time>2020-01-09T18:00:01.050Z</time>
      </trkpt>
      <trkpt lat="43.63211" lon="3.89921">
        <ele>35.402217</ele>
        <time>2020-01-09T18:00:01.968Z</time>
      </trkpt>
      <trkpt lat="43.63209" lon="3.89922">
        <ele>35.429721</ele>
        <time>2020-01-09T18:00:02.850Z</time>
      </trkpt>
      <trkpt lat="43.63207" lon="3.89917">
        <ele>35.487463</ele>
        <time>2020-01-09T18:00:05.085Z</time>
      </trkpt>
      <trkpt lat="43.63199" lon="3.89785">
        <ele>37.426485</ele>
        <time>2020-01-09T18:00:47.865Z</time>
      </trkpt>
      <trkpt lat="43.63198" lon="3.89719">
        <ele>38.406204</ele>
        <time>2020-01-09T18:01:09.263Z</time>
      </trkpt>
      <trkpt lat="43.63199" lon="3.89693">
        <ele>38.779491</ele>
        <time>2020-01-09T18:01:17.814Z</time>
      </trkpt>
      <trkpt lat="43.632" lon="3.89685">
        <ele>38.896746</ele>
        <time>2020-01-09T18:01:20.336Z</time>
      </trkpt>
      <trkpt lat="43.63202" lon="3.89679">
        <ele>38.990266</ele>
        <time>2020-01-09T18:01:22.341Z</time>
      </trkpt>
      <trkpt lat="43.63202" lon="3.89675">
        <ele>39.056842</ele>
        <time>2020-01-09T18:01:23.637Z</time>
      </trkpt>
      <trkpt lat="43.63198" lon="3.89646">
        <ele>39.40907</ele>
        <time>2020-01-09T18:01:33.143Z</time>
      </trkpt>
      <trkpt lat="43.63196" lon="3.89629">
        <ele>39.604429</ele>
        <time>2020-01-09T18:01:38.595Z</time>
      </trkpt>
      <trkpt lat="43.6319" lon="3.89616">
        <ele>39.777909</ele>
        <time>2020-01-09T18:01:43.262Z</time>
      </trkpt>
      <trkpt lat="43.63207" lon="3.89611">
        <ele>40.044797</ele>
        <time>2020-01-09T18:01:51.119Z</time>
      </trkpt>
      <trkpt lat="43.63223" lon="3.89607">
        <ele>40.289243</ele>
        <time>2020-01-09T18:01:57.674Z</time>
      </trkpt>
      <trkpt lat="43.63234" lon="3.89604">
        <ele>40.473677</ele>
        <time>2020-01-09T18:02:03.072Z</time>
      </trkpt>
      <trkpt lat="43.63243" lon="3.89602">
        <ele>40.605396</ele>
        <time>2020-01-09T18:02:06.844Z</time>
      </trkpt>
      <trkpt lat="43.63251" lon="3.89599">
        <ele>40.728512</ele>
        <time>2020-01-09T18:02:10.101Z</time>
      </trkpt>
      <trkpt lat="43.63268" lon="3.89594">
        <ele>40.997256</ele>
        <time>2020-01-09T18:02:17.622Z</time>
      </trkpt>
      <trkpt lat="43.63273" lon="3.89592">
        <ele>41.086953</ele>
        <time>2020-01-09T18:02:20.324Z</time>
      </trkpt>
      <trkpt lat="43.63275" lon="3.89591">
        <ele>41.109231</ele>
        <time>2020-01-09T18:02:20.969Z</time>
      </trkpt>
      <trkpt lat="43.63282" lon="3.89588">
        <ele>41.23491</ele>
        <time>2020-01-09T18:02:24.435Z</time>
      </trkpt>
      <trkpt lat="43.63287" lon="3.89586">
        <ele>41.309549</ele>
        <time>2020-01-09T18:02:26.365Z</time>
      </trkpt>
      <trkpt lat="43.63287" lon="3.89586">
        <ele>41.309549</ele>
        <time>2020-01-09T18:02:26.376Z</time>
      </trkpt>
      <trkpt lat="43.63287" lon="3.89586">
        <ele>41.309549</ele>
        <time>2020-01-09T18:02:26.422Z</time>
      </trkpt>
      <trkpt lat="43.6329" lon="3.89584">
        <ele>41.359939</ele>
        <time>2020-01-09T18:02:27.746Z</time>
      </trkpt>
      <trkpt lat="43.63297" lon="3.8958">
        <ele>41.472834</ele>
        <time>2020-01-09T18:02:30.859Z</time>
      </trkpt>
      <trkpt lat="43.63308" lon="3.89573">
        <ele>41.665949</ele>
        <time>2020-01-09T18:02:36.445Z</time>
      </trkpt>
      <trkpt lat="43.63316" lon="3.89567">
        <ele>41.800866</ele>
        <time>2020-01-09T18:02:40.273Z</time>
      </trkpt>
      <trkpt lat="43.63327" lon="3.89564">
        <ele>42.005734</ele>
        <time>2020-01-09T18:02:44.986Z</time>
      </trkpt>
      <trkpt lat="43.63335" lon="3.89561">
        <ele>42.245665</ele>
        <time>2020-01-09T18:02:48.918Z</time>
      </trkpt>
      <trkpt lat="43.63346" lon="3.89556">
        <ele>42.556617</ele>
        <time>2020-01-09T18:02:53.999Z</time>
      </trkpt>
      <trkpt lat="43.63356" lon="3.89552">
        <ele>42.8357</ele>
        <time>2020-01-09T18:02:58.680Z</time>
      </trkpt>
      <trkpt lat="43.63398" lon="3.89531">
        <ele>44.095261</ele>
        <time>2020-01-09T18:03:19.055Z</time>
      </trkpt>
      <trkpt lat="43.6341" lon="3.89525">
        <ele>44.437845</ele>
        <time>2020-01-09T18:03:24.578Z</time>
      </trkpt>
      <trkpt lat="43.63414" lon="3.89523">
        <ele>44.553138</ele>
        <time>2020-01-09T18:03:26.493Z</time>
      </trkpt>
      <trkpt lat="43.63429" lon="3.89515">
        <ele>44.99403</ele>
        <time>2020-01-09T18:03:33.803Z</time>
      </trkpt>
      <trkpt lat="43.6343" lon="3.89515">
        <ele>45.020232</ele>
        <time>2020-01-09T18:03:34.283Z</time>
      </trkpt>
      <trkpt lat="43.63432" lon="3.89513">
        <ele>45.09757</ele>
        <time>2020-01-09T18:03:35.517Z</time>
      </trkpt>
      <trkpt lat="43.63438" lon="3.8951">
        <ele>45.255558</ele>
        <time>2020-01-09T18:03:38.102Z</time>
      </trkpt>
      <trkpt lat="43.63446" lon="3.89506">
        <ele>45.500534</ele>
        <time>2020-01-09T18:03:42.113Z</time>
      </trkpt>
      <trkpt lat="43.63468" lon="3.89495">
        <ele>46.154328</ele>
        <time>2020-01-09T18:03:53.152Z</time>
      </trkpt>
      <trkpt lat="43.63482" lon="3.89488">
        <ele>46.565747</ele>
        <time>2020-01-09T18:04:00.239Z</time>
      </trkpt>
      <trkpt lat="43.63492" lon="3.89482">
        <ele>46.86447</ele>
        <time>2020-01-09T18:04:05.631Z</time>
      </trkpt>
      <trkpt lat="43.63538" lon="3.89459">
        <ele>48.865333</ele>
        <time>2020-01-09T18:04:29.240Z</time>
      </trkpt>
      <trkpt lat="43.63571" lon="3.89443">
        <ele>50.3388</ele>
        <time>2020-01-09T18:04:46.843Z</time>
      </trkpt>
      <trkpt lat="43.63607" lon="3.89425">
        <ele>51.914507</ele>
        <time>2020-01-09T18:05:05.701Z</time>
      </trkpt>
      <trkpt lat="43.63613" lon="3.89422">
        <ele>52.181867</ele>
        <time>2020-01-09T18:05:08.811Z</time>
      </trkpt>
      <trkpt lat="43.6362" lon="3.89418">
        <ele>52.488472</ele>
        <time>2020-01-09T18:05:12.647Z</time>
      </trkpt>
      <trkpt lat="43.63634" lon="3.89411">
        <ele>53.118308</ele>
        <time>2020-01-09T18:05:19.960Z</time>
      </trkpt>
      <trkpt lat="43.63637" lon="3.89409">
        <ele>53.256955</ele>
        <time>2020-01-09T18:05:21.572Z</time>
      </trkpt>
      <trkpt lat="43.63648" lon="3.89404">
        <ele>53.75207</ele>
        <time>2020-01-09T18:05:27.247Z</time>
      </trkpt>
      <trkpt lat="43.63701" lon="3.89391">
        <ele>54.613697</ele>
        <time>2020-01-09T18:05:52.440Z</time>
      </trkpt>
      <trkpt lat="43.63709" lon="3.89391">
        <ele>54.659198</ele>
        <time>2020-01-09T18:05:56.336Z</time>
      </trkpt>
      <trkpt lat="43.6372" lon="3.89393">
        <ele>54.719053</ele>
        <time>2020-01-09T18:06:01.227Z</time>
      </trkpt>
      <trkpt lat="43.6374" lon="3.89397">
        <ele>54.830732</ele>
        <time>2020-01-09T18:06:10.205Z</time>
      </trkpt>
      <trkpt lat="43.63899" lon="3.89427">
        <ele>54.186895</ele>
        <time>2020-01-09T18:07:14.087Z</time>
      </trkpt>
      <trkpt lat="43.63902" lon="3.89428">
        <ele>54.127323</ele>
        <time>2020-01-09T18:07:14.996Z</time>
      </trkpt>
      <trkpt lat="43.63919" lon="3.89432">
        <ele>53.778435</ele>
        <time>2020-01-09T18:07:21.605Z</time>
      </trkpt>
      <trkpt lat="43.63933" lon="3.89433">
        <ele>53.465935</ele>
        <time>2020-01-09T18:07:27.292Z</time>
      </trkpt>
      <trkpt lat="43.63936" lon="3.89436">
        <ele>53.408639</ele>
        <time>2020-01-09T18:07:28.180Z</time>
      </trkpt>
      <trkpt lat="43.63964" lon="3.89431">
        <ele>52.813722</ele>
        <time>2020-01-09T18:07:39.363Z</time>
      </trkpt>
      <trkpt lat="43.63971" lon="3.89429">
        <ele>52.663739</ele>
        <time>2020-01-09T18:07:41.872Z</time>
      </trkpt>
      <trkpt lat="43.63971" lon="3.89429">
        <ele>52.663739</ele>
        <time>2020-01-09T18:07:41.902Z</time>
      </trkpt>
      <trkpt lat="43.63979" lon="3.89425">
        <ele>52.485225</ele>
        <time>2020-01-09T18:07:45.151Z</time>
      </trkpt>
      <trkpt lat="43.63998" lon="3.8941">
        <ele>52.020782</ele>
        <time>2020-01-09T18:07:54.058Z</time>
      </trkpt>
      <trkpt lat="43.64" lon="3.89405">
        <ele>51.923247</ele>
        <time>2020-01-09T18:07:55.692Z</time>
      </trkpt>
      <trkpt lat="43.64004" lon="3.89402">
        <ele>51.835012</ele>
        <time>2020-01-09T18:07:57.138Z</time>
      </trkpt>
      <trkpt lat="43.64028" lon="3.89386">
        <ele>51.759987</ele>
        <time>2020-01-09T18:08:08.112Z</time>
      </trkpt>
      <trkpt lat="43.64105" lon="3.89361">
        <ele>52.356015</ele>
        <time>2020-01-09T18:08:39.639Z</time>
      </trkpt>
      <trkpt lat="43.64152" lon="3.89338">
        <ele>52.739736</ele>
        <time>2020-01-09T18:09:02.776Z</time>
      </trkpt>
      <trkpt lat="43.64192" lon="3.894">
        <ele>53.379617</ele>
        <time>2020-01-09T18:09:30.604Z</time>
      </trkpt>
      <trkpt lat="43.64241" lon="3.89456">
        <ele>54.345035</ele>
        <time>2020-01-09T18:09:59.413Z</time>
      </trkpt>
      <trkpt lat="43.64258" lon="3.89483">
        <ele>54.734507</ele>
        <time>2020-01-09T18:10:10.872Z</time>
      </trkpt>
      <trkpt lat="43.64262" lon="3.89488">
        <ele>54.821102</ele>
        <time>2020-01-09T18:10:13.254Z</time>
      </trkpt>
      <trkpt lat="43.64268" lon="3.89495">
        <ele>54.931056</ele>
        <time>2020-01-09T18:10:16.317Z</time>
      </trkpt>
      <trkpt lat="43.64277" lon="3.89506">
        <ele>55.12488</ele>
        <time>2020-01-09T18:10:21.882Z</time>
      </trkpt>
      <trkpt lat="43.64301" lon="3.89535">
        <ele>55.596542</ele>
        <time>2020-01-09T18:10:34.645Z</time>
      </trkpt>
      <trkpt lat="43.64336" lon="3.89579">
        <ele>55.058613</ele>
        <time>2020-01-09T18:10:53.622Z</time>
      </trkpt>
      <trkpt lat="43.64353" lon="3.89618">
        <ele>54.516823</ele>
        <time>2020-01-09T18:11:06.379Z</time>
      </trkpt>
      <trkpt lat="43.64366" lon="3.89664">
        <ele>53.927377</ele>
        <time>2020-01-09T18:11:20.018Z</time>
      </trkpt>
      <trkpt lat="43.64369" lon="3.89675">
        <ele>53.787033</ele>
        <time>2020-01-09T18:11:23.477Z</time>
      </trkpt>
      <trkpt lat="43.64376" lon="3.89702">
        <ele>53.442777</ele>
        <time>2020-01-09T18:11:31.266Z</time>
      </trkpt>
      <trkpt lat="43.64396" lon="3.89747">
        <ele>52.813497</ele>
        <time>2020-01-09T18:11:46.454Z</time>
      </trkpt>
      <trkpt lat="43.64403" lon="3.89756">
        <ele>52.78695</ele>
        <time>2020-01-09T18:11:50.865Z</time>
      </trkpt>
      <trkpt lat="43.64415" lon="3.89774">
        <ele>52.933011</ele>
        <time>2020-01-09T18:11:57.798Z</time>
      </trkpt>
      <trkpt lat="43.64428" lon="3.8979">
        <ele>53.071925</ele>
        <time>2020-01-09T18:12:05.407Z</time>
      </trkpt>
      <trkpt lat="43.64448" lon="3.89806">
        <ele>53.253204</ele>
        <time>2020-01-09T18:12:14.186Z</time>
      </trkpt>
      <trkpt lat="43.64443" lon="3.89808">
        <ele>53.292388</ele>
        <time>2020-01-09T18:12:16.350Z</time>
      </trkpt>
      <trkpt lat="43.64442" lon="3.8982">
        <ele>53.365019</ele>
        <time>2020-01-09T18:12:20.843Z</time>
      </trkpt>
      <trkpt lat="43.64446" lon="3.89913">
        <ele>53.90628</ele>
        <time>2020-01-09T18:12:49.623Z</time>
      </trkpt>
      <trkpt lat="43.64486" lon="3.90044">
        <ele>55.302595</ele>
        <time>2020-01-09T18:13:36.496Z</time>
      </trkpt>
      <trkpt lat="43.64491" lon="3.90118">
        <ele>56.200129</ele>
        <time>2020-01-09T18:14:00.236Z</time>
      </trkpt>
      <trkpt lat="43.64489" lon="3.90129">
        <ele>56.33162</ele>
        <time>2020-01-09T18:14:03.516Z</time>
      </trkpt>
      <trkpt lat="43.64486" lon="3.90136">
        <ele>56.434068</ele>
        <time>2020-01-09T18:14:06.776Z</time>
      </trkpt>
      <trkpt lat="43.64496" lon="3.90207">
        <ele>57.166159</ele>
        <time>2020-01-09T18:14:32.946Z</time>
      </trkpt>
      <trkpt lat="43.64521" lon="3.90302">
        <ele>57.105119</ele>
        <time>2020-01-09T18:15:08.532Z</time>
      </trkpt>
      <trkpt lat="43.64587" lon="3.90426">
        <ele>56.973704</ele>
        <time>2020-01-09T18:16:01.716Z</time>
      </trkpt>
      <trkpt lat="43.64615" lon="3.90499">
        <ele>56.734737</ele>
        <time>2020-01-09T18:16:30.483Z</time>
      </trkpt>
      <trkpt lat="43.64643" lon="3.90577">
        <ele>56.484343</ele>
        <time>2020-01-09T18:17:00.739Z</time>
      </trkpt>
      <trkpt lat="43.64665" lon="3.90636">
        <ele>56.296968</ele>
        <time>2020-01-09T18:17:24.007Z</time>
      </trkpt>
      <trkpt lat="43.64671" lon="3.9064">
        <ele>56.277337</ele>
        <time>2020-01-09T18:17:26.876Z</time>
      </trkpt>
      <trkpt lat="43.64687" lon="3.9063">
        <ele>56.220892</ele>
        <time>2020-01-09T18:17:35.317Z</time>
      </trkpt>
      <trkpt lat="43.64692" lon="3.90634">
        <ele>56.200832</ele>
        <time>2020-01-09T18:17:38.358Z</time>
      </trkpt>
      <trkpt lat="43.64722" lon="3.90783">
        <ele>55.845426</ele>
        <time>2020-01-09T18:18:31.846Z</time>
      </trkpt>
      <trkpt lat="43.64724" lon="3.90786">
        <ele>55.835694</ele>
        <time>2020-01-09T18:18:33.607Z</time>
      </trkpt>
      <trkpt lat="43.64728" lon="3.90793">
        <ele>55.815483</ele>
        <time>2020-01-09T18:18:36.465Z</time>
      </trkpt>
      <trkpt lat="43.64742" lon="3.90811">
        <ele>55.753241</ele>
        <time>2020-01-09T18:18:45.814Z</time>
      </trkpt>
      <trkpt lat="43.64785" lon="3.90842">
        <ele>56.083217</ele>
        <time>2020-01-09T18:19:09.139Z</time>
      </trkpt>
      <trkpt lat="43.64819" lon="3.90887">
        <ele>56.461106</ele>
        <time>2020-01-09T18:19:31.393Z</time>
      </trkpt>
      <trkpt lat="43.64872" lon="3.90923">
        <ele>56.944074</ele>
        <time>2020-01-09T18:20:02.134Z</time>
      </trkpt>
      <trkpt lat="43.64916" lon="3.91008">
        <ele>57.915491</ele>
        <time>2020-01-09T18:20:41.839Z</time>
      </trkpt>
      <trkpt lat="43.6492" lon="3.91021">
        <ele>58.075613</ele>
        <time>2020-01-09T18:20:47.056Z</time>
      </trkpt>
      <trkpt lat="43.649" lon="3.9103">
        <ele>58.409222</ele>
        <time>2020-01-09T18:20:56.187Z</time>
      </trkpt>
      <trkpt lat="43.64848" lon="3.91058">
        <ele>59.322457</ele>
        <time>2020-01-09T18:21:20.965Z</time>
      </trkpt>
      <trkpt lat="43.64854" lon="3.91063">
        <ele>59.430452</ele>
        <time>2020-01-09T18:21:24.245Z</time>
      </trkpt>
      <trkpt lat="43.64886" lon="3.91086">
        <ele>60.016611</ele>
        <time>2020-01-09T18:21:42.617Z</time>
      </trkpt>
      <trkpt lat="43.64937" lon="3.91127">
        <ele>60.013981</ele>
        <time>2020-01-09T18:22:11.912Z</time>
      </trkpt>
      <trkpt lat="43.64959" lon="3.91136">
        <ele>59.974189</ele>
        <time>2020-01-09T18:22:22.812Z</time>
      </trkpt>
      <trkpt lat="43.65005" lon="3.91153">
        <ele>59.892859</ele>
        <time>2020-01-09T18:22:44.919Z</time>
      </trkpt>
      <trkpt lat="43.65053" lon="3.91159">
        <ele>59.809914</ele>
        <time>2020-01-09T18:23:07.942Z</time>
      </trkpt>
      <trkpt lat="43.65079" lon="3.91156">
        <ele>60.120652</ele>
        <time>2020-01-09T18:23:20.441Z</time>
      </trkpt>
      <trkpt lat="43.65077" lon="3.91182">
        <ele>60.439269</ele>
        <time>2020-01-09T18:23:28.657Z</time>
      </trkpt>
      <trkpt lat="43.65078" lon="3.91198">
        <ele>60.646454</ele>
        <time>2020-01-09T18:23:33.559Z</time>
      </trkpt>
      <trkpt lat="43.65081" lon="3.91214">
        <ele>60.852777</ele>
        <time>2020-01-09T18:23:38.986Z</time>
      </trkpt>
      <trkpt lat="43.65085" lon="3.91229">
        <ele>61.046451</ele>
        <time>2020-01-09T18:23:44.050Z</time>
      </trkpt>
      <trkpt lat="43.65116" lon="3.9134">
        <ele>62.527673</ele>
        <time>2020-01-09T18:24:22.294Z</time>
      </trkpt>
      <trkpt lat="43.65118" lon="3.91356">
        <ele>62.722625</ele>
        <time>2020-01-09T18:24:27.870Z</time>
      </trkpt>
      <trkpt lat="43.65142" lon="3.91425">
        <ele>64.088398</ele>
        <time>2020-01-09T18:24:53.757Z</time>
      </trkpt>
      <trkpt lat="43.65251" lon="3.91691">
        <ele>68.862941</ele>
        <time>2020-01-09T18:26:34.146Z</time>
      </trkpt>
      <trkpt lat="43.65261" lon="3.91715">
        <ele>69.134663</ele>
        <time>2020-01-09T18:26:42.834Z</time>
      </trkpt>
      <trkpt lat="43.65268" lon="3.91724">
        <ele>69.277807</ele>
        <time>2020-01-09T18:26:47.156Z</time>
      </trkpt>
      <trkpt lat="43.65277" lon="3.9173">
        <ele>69.411208</ele>
        <time>2020-01-09T18:26:50.998Z</time>
      </trkpt>
      <trkpt lat="43.6529" lon="3.91745">
        <ele>69.652013</ele>
        <time>2020-01-09T18:26:58.258Z</time>
      </trkpt>
      <trkpt lat="43.65297" lon="3.91764">
        <ele>69.869946</ele>
        <time>2020-01-09T18:27:04.534Z</time>
      </trkpt>
      <trkpt lat="43.6531" lon="3.91811">
        <ele>69.941775</ele>
        <time>2020-01-09T18:27:19.394Z</time>
      </trkpt>
      <trkpt lat="43.65346" lon="3.91909">
        <ele>68.791497</ele>
        <time>2020-01-09T18:27:51.322Z</time>
      </trkpt>
      <trkpt lat="43.65348" lon="3.91914">
        <ele>68.734311</ele>
        <time>2020-01-09T18:27:52.801Z</time>
      </trkpt>
      <trkpt lat="43.65352" lon="3.91926">
        <ele>68.587311</ele>
        <time>2020-01-09T18:27:56.641Z</time>
      </trkpt>
      <trkpt lat="43.65386" lon="3.92">
        <ele>67.671451</ele>
        <time>2020-01-09T18:28:21.310Z</time>
      </trkpt>
      <trkpt lat="43.65413" lon="3.92055">
        <ele>66.895172</ele>
        <time>2020-01-09T18:28:40.019Z</time>
      </trkpt>
      <trkpt lat="43.65412" lon="3.9206">
        <ele>66.824148</ele>
        <time>2020-01-09T18:28:41.710Z</time>
      </trkpt>
      <trkpt lat="43.65411" lon="3.92067">
        <ele>66.746781</ele>
        <time>2020-01-09T18:28:43.577Z</time>
      </trkpt>
      <trkpt lat="43.65491" lon="3.92296">
        <ele>64.418071</ele>
        <time>2020-01-09T18:29:56.765Z</time>
      </trkpt>
      <trkpt lat="43.65505" lon="3.92335">
        <ele>64.312568</ele>
        <time>2020-01-09T18:30:09.651Z</time>
      </trkpt>
      <trkpt lat="43.65503" lon="3.92337">
        <ele>64.306321</ele>
        <time>2020-01-09T18:30:10.448Z</time>
      </trkpt>
      <trkpt lat="43.65498" lon="3.92344">
        <ele>64.282789</ele>
        <time>2020-01-09T18:30:13.350Z</time>
      </trkpt>
      <trkpt lat="43.65483" lon="3.92437">
        <ele>64.052804</ele>
        <time>2020-01-09T18:30:41.841Z</time>
      </trkpt>
      <trkpt lat="43.65473" lon="3.92469">
        <ele>64.081672</ele>
        <time>2020-01-09T18:30:52.514Z</time>
      </trkpt>
      <trkpt lat="43.65423" lon="3.92582">
        <ele>65.025766</ele>
        <time>2020-01-09T18:31:33.306Z</time>
      </trkpt>
      <trkpt lat="43.654" lon="3.92618">
        <ele>65.370718</ele>
        <time>2020-01-09T18:31:48.281Z</time>
      </trkpt>
      <trkpt lat="43.65397" lon="3.92623">
        <ele>65.413082</ele>
        <time>2020-01-09T18:31:50.355Z</time>
      </trkpt>
      <trkpt lat="43.65373" lon="3.92674">
        <ele>65.846254</ele>
        <time>2020-01-09T18:32:09.252Z</time>
      </trkpt>
      <trkpt lat="43.65372" lon="3.92675">
        <ele>65.86481</ele>
        <time>2020-01-09T18:32:10.092Z</time>
      </trkpt>
      <trkpt lat="43.65355" lon="3.92688">
        <ele>66.050539</ele>
        <time>2020-01-09T18:32:18.325Z</time>
      </trkpt>
      <trkpt lat="43.65337" lon="3.92711">
        <ele>66.281925</ele>
        <time>2020-01-09T18:32:28.672Z</time>
      </trkpt>
      <trkpt lat="43.6524" lon="3.92806">
        <ele>67.419254</ele>
        <time>2020-01-09T18:33:19.092Z</time>
      </trkpt>
      <trkpt lat="43.65189" lon="3.92854">
        <ele>68.280554</ele>
        <time>2020-01-09T18:33:45.311Z</time>
      </trkpt>
      <trkpt lat="43.65199" lon="3.92874">
        <ele>68.5298</ele>
        <time>2020-01-09T18:33:52.941Z</time>
      </trkpt>
      <trkpt lat="43.65184" lon="3.92887">
        <ele>68.782588</ele>
        <time>2020-01-09T18:34:00.289Z</time>
      </trkpt>
      <trkpt lat="43.652" lon="3.92917">
        <ele>69.179001</ele>
        <time>2020-01-09T18:34:12.298Z</time>
      </trkpt>
      <trkpt lat="43.65181" lon="3.92936">
        <ele>69.512168</ele>
        <time>2020-01-09T18:34:22.457Z</time>
      </trkpt>
      <trkpt lat="43.65169" lon="3.92968">
        <ele>69.901693</ele>
        <time>2020-01-09T18:34:34.091Z</time>
      </trkpt>
      <trkpt lat="43.65153" lon="3.92967">
        <ele>70.136074</ele>
        <time>2020-01-09T18:34:41.263Z</time>
      </trkpt>
      <trkpt lat="43.65129" lon="3.92978">
        <ele>70.141938</ele>
        <time>2020-01-09T18:34:51.716Z</time>
      </trkpt>
      <trkpt lat="43.65131" lon="3.92987">
        <ele>70.143545</ele>
        <time>2020-01-09T18:34:54.863Z</time>
      </trkpt>
      <trkpt lat="43.65128" lon="3.93051">
        <ele>70.154545</ele>
        <time>2020-01-09T18:35:14.088Z</time>
      </trkpt>
      <trkpt lat="43.65128" lon="3.93074">
        <ele>70.15852</ele>
        <time>2020-01-09T18:35:21.029Z</time>
      </trkpt>
      <trkpt lat="43.65129" lon="3.93095">
        <ele>70.162051</ele>
        <time>2020-01-09T18:35:26.971Z</time>
      </trkpt>
      <trkpt lat="43.65134" lon="3.93134">
        <ele>70.168938</ele>
        <time>2020-01-09T18:35:38.807Z</time>
      </trkpt>
      <trkpt lat="43.65133" lon="3.93151">
        <ele>70.171861</ele>
        <time>2020-01-09T18:35:43.777Z</time>
      </trkpt>
      <trkpt lat="43.65151" lon="3.93142">
        <ele>70.176417</ele>
        <time>2020-01-09T18:35:53.054Z</time>
      </trkpt>
      <trkpt lat="43.6516" lon="3.93143">
        <ele>70.178438</ele>
        <time>2020-01-09T18:35:57.411Z</time>
      </trkpt>
      <trkpt lat="43.6518" lon="3.93164">
        <ele>69.893686</ele>
        <time>2020-01-09T18:36:09.556Z</time>
      </trkpt>
      <trkpt lat="43.65182" lon="3.9317">
        <ele>69.839078</ele>
        <time>2020-01-09T18:36:11.586Z</time>
      </trkpt>
      <trkpt lat="43.65184" lon="3.93168">
        <ele>69.805509</ele>
        <time>2020-01-09T18:36:12.933Z</time>
      </trkpt>
      <trkpt lat="43.65203" lon="3.93161">
        <ele>69.583571</ele>
        <time>2020-01-09T18:36:22.382Z</time>
      </trkpt>
      <trkpt lat="43.65255" lon="3.93115">
        <ele>68.889221</ele>
        <time>2020-01-09T18:36:50.809Z</time>
      </trkpt>
      <trkpt lat="43.6526" lon="3.93113">
        <ele>68.826173</ele>
        <time>2020-01-09T18:36:53.333Z</time>
      </trkpt>
      <trkpt lat="43.65264" lon="3.93108">
        <ele>68.766327</ele>
        <time>2020-01-09T18:36:56.036Z</time>
      </trkpt>
      <trkpt lat="43.65291" lon="3.93092">
        <ele>68.438261</ele>
        <time>2020-01-09T18:37:09.434Z</time>
      </trkpt>
      <trkpt lat="43.653" lon="3.93079">
        <ele>68.297658</ele>
        <time>2020-01-09T18:37:15.598Z</time>
      </trkpt>
      <trkpt lat="43.65308" lon="3.93037">
        <ele>68.040177</ele>
        <time>2020-01-09T18:37:30.911Z</time>
      </trkpt>
      <trkpt lat="43.65309" lon="3.92961">
        <ele>67.731942</ele>
        <time>2020-01-09T18:37:57.029Z</time>
      </trkpt>
      <trkpt lat="43.65319" lon="3.92914">
        <ele>67.531198</ele>
        <time>2020-01-09T18:38:14.109Z</time>
      </trkpt>
      <trkpt lat="43.65318" lon="3.9285">
        <ele>67.268307</ele>
        <time>2020-01-09T18:38:36.500Z</time>
      </trkpt>
      <trkpt lat="43.65327" lon="3.92794">
        <ele>66.867194</ele>
        <time>2020-01-09T18:38:56.220Z</time>
      </trkpt>
      <trkpt lat="43.65338" lon="3.9277">
        <ele>66.554009</ele>
        <time>2020-01-09T18:39:05.592Z</time>
      </trkpt>
      <trkpt lat="43.65341" lon="3.92784">
        <ele>66.401285</ele>
        <time>2020-01-09T18:39:10.374Z</time>
      </trkpt>
      <trkpt lat="43.65337" lon="3.92814">
        <ele>66.052672</ele>
        <time>2020-01-09T18:39:20.869Z</time>
      </trkpt>
      <trkpt lat="43.65337" lon="3.92834">
        <ele>65.832086</ele>
        <time>2020-01-09T18:39:27.637Z</time>
      </trkpt>
      <trkpt lat="43.65337" lon="3.92835">
        <ele>65.825194</ele>
        <time>2020-01-09T18:39:27.995Z</time>
      </trkpt>
      <trkpt lat="43.65332" lon="3.92893">
        <ele>65.170662</ele>
        <time>2020-01-09T18:39:47.750Z</time>
      </trkpt>
      <trkpt lat="43.65348" lon="3.93098">
        <ele>61.541574</ele>
        <time>2020-01-09T18:40:55.770Z</time>
      </trkpt>
      <trkpt lat="43.6529" lon="3.93186">
        <ele>59.004688</ele>
        <time>2020-01-09T18:41:34.114Z</time>
      </trkpt>
      <trkpt lat="43.65283" lon="3.9321">
        <ele>58.132994</ele>
        <time>2020-01-09T18:41:42.678Z</time>
      </trkpt>
      <trkpt lat="43.65286" lon="3.9324">
        <ele>57.138707</ele>
        <time>2020-01-09T18:41:52.438Z</time>
      </trkpt>
      <trkpt lat="43.65311" lon="3.93362">
        <ele>53.023137</ele>
        <time>2020-01-09T18:42:32.128Z</time>
      </trkpt>
      <trkpt lat="43.65325" lon="3.93378">
        <ele>52.210296</ele>
        <time>2020-01-09T18:42:39.729Z</time>
      </trkpt>
      <trkpt lat="43.65344" lon="3.93346">
        <ele>50.895916</ele>
        <time>2020-01-09T18:42:52.423Z</time>
      </trkpt>
      <trkpt lat="43.65368" lon="3.93348">
        <ele>50.056189</ele>
        <time>2020-01-09T18:43:02.950Z</time>
      </trkpt>
      <trkpt lat="43.65371" lon="3.93338">
        <ele>49.784951</ele>
        <time>2020-01-09T18:43:06.115Z</time>
      </trkpt>
      <trkpt lat="43.65412" lon="3.93294">
        <ele>47.951928</ele>
        <time>2020-01-09T18:43:29.139Z</time>
      </trkpt>
      <trkpt lat="43.65473" lon="3.93241">
        <ele>45.395325</ele>
        <time>2020-01-09T18:44:01.565Z</time>
      </trkpt>
      <trkpt lat="43.65473" lon="3.93241">
        <ele>45.395325</ele>
        <time>2020-01-09T18:44:01.819Z</time>
      </trkpt>
      <trkpt lat="43.65473" lon="3.93241">
        <ele>45.395325</ele>
        <time>2020-01-09T18:44:01.872Z</time>
      </trkpt>
      <trkpt lat="43.6551" lon="3.93249">
        <ele>44.634358</ele>
        <time>2020-01-09T18:44:18.923Z</time>
      </trkpt>
      <trkpt lat="43.65521" lon="3.9325">
        <ele>44.626545</ele>
        <time>2020-01-09T18:44:23.993Z</time>
      </trkpt>
      <trkpt lat="43.65522" lon="3.9325">
        <ele>44.625967</ele>
        <time>2020-01-09T18:44:24.376Z</time>
      </trkpt>
      <trkpt lat="43.65541" lon="3.9324">
        <ele>44.611028</ele>
        <time>2020-01-09T18:44:34.161Z</time>
      </trkpt>
      <trkpt lat="43.65601" lon="3.93187">
        <ele>44.56004</ele>
        <time>2020-01-09T18:45:08.392Z</time>
      </trkpt>
      <trkpt lat="43.65606" lon="3.93191">
        <ele>44.556183</ele>
        <time>2020-01-09T18:45:11.385Z</time>
      </trkpt>
      <trkpt lat="43.65614" lon="3.93185">
        <ele>44.549345</ele>
        <time>2020-01-09T18:45:16.107Z</time>
      </trkpt>
      <trkpt lat="43.65639" lon="3.93148">
        <ele>44.523046</ele>
        <time>2020-01-09T18:45:34.839Z</time>
      </trkpt>
      <trkpt lat="43.65653" lon="3.93143">
        <ele>44.567122</ele>
        <time>2020-01-09T18:45:41.952Z</time>
      </trkpt>
      <trkpt lat="43.65652" lon="3.93159">
        <ele>44.676163</ele>
        <time>2020-01-09T18:45:48.339Z</time>
      </trkpt>
      <trkpt lat="43.65638" lon="3.93191">
        <ele>44.937381</ele>
        <time>2020-01-09T18:46:02.183Z</time>
      </trkpt>
      <trkpt lat="43.65634" lon="3.932">
        <ele>45.008349</ele>
        <time>2020-01-09T18:46:06.487Z</time>
      </trkpt>
      <trkpt lat="43.65643" lon="3.9321">
        <ele>45.110972</ele>
        <time>2020-01-09T18:46:11.762Z</time>
      </trkpt>
      <trkpt lat="43.65652" lon="3.93234">
        <ele>45.298505</ele>
        <time>2020-01-09T18:46:21.715Z</time>
      </trkpt>
      <trkpt lat="43.65658" lon="3.93268">
        <ele>45.542988</ele>
        <time>2020-01-09T18:46:34.659Z</time>
      </trkpt>
      <trkpt lat="43.6565" lon="3.93334">
        <ele>46.001713</ele>
        <time>2020-01-09T18:46:55.133Z</time>
      </trkpt>
      <trkpt lat="43.65637" lon="3.93393">
        <ele>46.098013</ele>
        <time>2020-01-09T18:47:13.763Z</time>
      </trkpt>
      <trkpt lat="43.65641" lon="3.934">
        <ele>46.061764</ele>
        <time>2020-01-09T18:47:16.181Z</time>
      </trkpt>
      <trkpt lat="43.65635" lon="3.93476">
        <ele>45.736127</ele>
        <time>2020-01-09T18:47:38.643Z</time>
      </trkpt>
      <trkpt lat="43.6563" lon="3.93485">
        <ele>45.685859</ele>
        <time>2020-01-09T18:47:42.039Z</time>
      </trkpt>
      <trkpt lat="43.65641" lon="3.93478">
        <ele>45.612089</ele>
        <time>2020-01-09T18:47:46.951Z</time>
      </trkpt>
      <trkpt lat="43.6566" lon="3.93466">
        <ele>45.489372</ele>
        <time>2020-01-09T18:47:55.323Z</time>
      </trkpt>
      <trkpt lat="43.65704" lon="3.93402">
        <ele>45.115032</ele>
        <time>2020-01-09T18:48:20.701Z</time>
      </trkpt>
      <trkpt lat="43.65787" lon="3.93265">
        <ele>44.450384</ele>
        <time>2020-01-09T18:49:12.727Z</time>
      </trkpt>
      <trkpt lat="43.65792" lon="3.93253">
        <ele>44.398874</ele>
        <time>2020-01-09T18:49:16.779Z</time>
      </trkpt>
      <trkpt lat="43.65821" lon="3.93229">
        <ele>44.232786</ele>
        <time>2020-01-09T18:49:30.740Z</time>
      </trkpt>
      <trkpt lat="43.65862" lon="3.93188">
        <ele>44.788112</ele>
        <time>2020-01-09T18:49:52.176Z</time>
      </trkpt>
      <trkpt lat="43.65888" lon="3.93136">
        <ele>45.289744</ele>
        <time>2020-01-09T18:50:11.970Z</time>
      </trkpt>
      <trkpt lat="43.65906" lon="3.93114">
        <ele>45.549728</ele>
        <time>2020-01-09T18:50:22.168Z</time>
      </trkpt>
      <trkpt lat="43.65935" lon="3.93073">
        <ele>46.012587</ele>
        <time>2020-01-09T18:50:40.657Z</time>
      </trkpt>
      <trkpt lat="43.65948" lon="3.93053">
        <ele>46.216541</ele>
        <time>2020-01-09T18:50:48.861Z</time>
      </trkpt>
      <trkpt lat="43.65968" lon="3.93021">
        <ele>46.511489</ele>
        <time>2020-01-09T18:51:02.191Z</time>
      </trkpt>
      <trkpt lat="43.65975" lon="3.93003">
        <ele>46.653578</ele>
        <time>2020-01-09T18:51:08.531Z</time>
      </trkpt>
      <trkpt lat="43.66032" lon="3.92917">
        <ele>47.461934</ele>
        <time>2020-01-09T18:51:44.553Z</time>
      </trkpt>
      <trkpt lat="43.66054" lon="3.92895">
        <ele>47.722603</ele>
        <time>2020-01-09T18:51:55.938Z</time>
      </trkpt>
      <trkpt lat="43.66068" lon="3.92887">
        <ele>47.870878</ele>
        <time>2020-01-09T18:52:02.449Z</time>
      </trkpt>
      <trkpt lat="43.6609" lon="3.92877">
        <ele>47.946363</ele>
        <time>2020-01-09T18:52:13.729Z</time>
      </trkpt>
      <trkpt lat="43.66136" lon="3.92873">
        <ele>48.002028</ele>
        <time>2020-01-09T18:52:36.157Z</time>
      </trkpt>
      <trkpt lat="43.66193" lon="3.92879">
        <ele>48.069963</ele>
        <time>2020-01-09T18:53:03.442Z</time>
      </trkpt>
      <trkpt lat="43.66297" lon="3.92854">
        <ele>48.08246</ele>
        <time>2020-01-09T18:53:54.731Z</time>
      </trkpt>
      <trkpt lat="43.66336" lon="3.92836">
        <ele>48.030312</ele>
        <time>2020-01-09T18:54:14.514Z</time>
      </trkpt>
      <trkpt lat="43.66466" lon="3.92721">
        <ele>48.064102</ele>
        <time>2020-01-09T18:55:28.687Z</time>
      </trkpt>
      <trkpt lat="43.66469" lon="3.92704">
        <ele>48.094768</ele>
        <time>2020-01-09T18:55:34.729Z</time>
      </trkpt>
      <trkpt lat="43.6648" lon="3.92695">
        <ele>48.126708</ele>
        <time>2020-01-09T18:55:41.067Z</time>
      </trkpt>
      <trkpt lat="43.6653" lon="3.92641">
        <ele>48.281513</ele>
        <time>2020-01-09T18:56:11.915Z</time>
      </trkpt>
      <trkpt lat="43.66548" lon="3.92629">
        <ele>48.330291</ele>
        <time>2020-01-09T18:56:21.965Z</time>
      </trkpt>
      <trkpt lat="43.66575" lon="3.92621">
        <ele>48.833039</ele>
        <time>2020-01-09T18:56:35.849Z</time>
      </trkpt>
      <trkpt lat="43.66597" lon="3.9262">
        <ele>49.393619</ele>
        <time>2020-01-09T18:56:47.390Z</time>
      </trkpt>
      <trkpt lat="43.66633" lon="3.9265">
        <ele>50.446022</ele>
        <time>2020-01-09T18:57:06.624Z</time>
      </trkpt>
      <trkpt lat="43.66648" lon="3.92664">
        <ele>50.888272</ele>
        <time>2020-01-09T18:57:14.778Z</time>
      </trkpt>
      <trkpt lat="43.66668" lon="3.92683">
        <ele>51.496888</ele>
        <time>2020-01-09T18:57:28.190Z</time>
      </trkpt>
      <trkpt lat="43.66668" lon="3.92684">
        <ele>51.524793</ele>
        <time>2020-01-09T18:57:28.693Z</time>
      </trkpt>
      <trkpt lat="43.66695" lon="3.92722">
        <ele>52.481415</ele>
        <time>2020-01-09T18:57:46.485Z</time>
      </trkpt>
      <trkpt lat="43.66704" lon="3.92737">
        <ele>52.832566</ele>
        <time>2020-01-09T18:57:52.812Z</time>
      </trkpt>
      <trkpt lat="43.66716" lon="3.92757">
        <ele>53.109028</ele>
        <time>2020-01-09T18:58:02.002Z</time>
      </trkpt>
      <trkpt lat="43.66728" lon="3.92777">
        <ele>53.365683</ele>
        <time>2020-01-09T18:58:10.435Z</time>
      </trkpt>
      <trkpt lat="43.66746" lon="3.92806">
        <ele>53.743496</ele>
        <time>2020-01-09T18:58:22.997Z</time>
      </trkpt>
      <trkpt lat="43.66753" lon="3.92818">
        <ele>53.891395</ele>
        <time>2020-01-09T18:58:27.667Z</time>
      </trkpt>
      <trkpt lat="43.66754" lon="3.9282">
        <ele>53.920998</ele>
        <time>2020-01-09T18:58:28.625Z</time>
      </trkpt>
      <trkpt lat="43.66757" lon="3.92828">
        <ele>54.010296</ele>
        <time>2020-01-09T18:58:31.637Z</time>
      </trkpt>
      <trkpt lat="43.66797" lon="3.92925">
        <ele>55.10766</ele>
        <time>2020-01-09T18:59:05.884Z</time>
      </trkpt>
      <trkpt lat="43.66802" lon="3.92928">
        <ele>55.188522</ele>
        <time>2020-01-09T18:59:08.414Z</time>
      </trkpt>
      <trkpt lat="43.66831" lon="3.92928">
        <ele>55.147161</ele>
        <time>2020-01-09T18:59:19.867Z</time>
      </trkpt>
      <trkpt lat="43.66918" lon="3.92932">
        <ele>54.389039</ele>
        <time>2020-01-09T18:59:54.330Z</time>
      </trkpt>
      <trkpt lat="43.66946" lon="3.9294">
        <ele>54.138873</ele>
        <time>2020-01-09T19:00:05.723Z</time>
      </trkpt>
      <trkpt lat="43.66984" lon="3.92931">
        <ele>53.797398</ele>
        <time>2020-01-09T19:00:21.233Z</time>
      </trkpt>
      <trkpt lat="43.67005" lon="3.92946">
        <ele>53.757961</ele>
        <time>2020-01-09T19:00:30.805Z</time>
      </trkpt>
      <trkpt lat="43.67029" lon="3.92959">
        <ele>53.781624</ele>
        <time>2020-01-09T19:00:41.294Z</time>
      </trkpt>
      <trkpt lat="43.67044" lon="3.92999">
        <ele>53.812285</ele>
        <time>2020-01-09T19:00:54.986Z</time>
      </trkpt>
      <trkpt lat="43.67064" lon="3.93085">
        <ele>53.872204</ele>
        <time>2020-01-09T19:01:21.970Z</time>
      </trkpt>
      <trkpt lat="43.67065" lon="3.93121">
        <ele>53.8965</ele>
        <time>2020-01-09T19:01:32.992Z</time>
      </trkpt>
      <trkpt lat="43.67043" lon="3.93211">
        <ele>54.246934</ele>
        <time>2020-01-09T19:02:01.841Z</time>
      </trkpt>
      <trkpt lat="43.67025" lon="3.93305">
        <ele>54.669983</ele>
        <time>2020-01-09T19:02:31.012Z</time>
      </trkpt>
      <trkpt lat="43.6702" lon="3.93362">
        <ele>54.922221</ele>
        <time>2020-01-09T19:02:48.638Z</time>
      </trkpt>
      <trkpt lat="43.6702" lon="3.93457">
        <ele>55.726899</ele>
        <time>2020-01-09T19:03:18.158Z</time>
      </trkpt>
      <trkpt lat="43.67032" lon="3.93565">
        <ele>56.743701</ele>
        <time>2020-01-09T19:03:52.369Z</time>
      </trkpt>
      <trkpt lat="43.67051" lon="3.93636">
        <ele>57.452048</ele>
        <time>2020-01-09T19:04:16.291Z</time>
      </trkpt>
      <trkpt lat="43.67094" lon="3.93704">
        <ele>58.319056</ele>
        <time>2020-01-09T19:04:45.179Z</time>
      </trkpt>
      <trkpt lat="43.67108" lon="3.93721">
        <ele>58.568716</ele>
        <time>2020-01-09T19:04:53.429Z</time>
      </trkpt>
      <trkpt lat="43.6718" lon="3.93777">
        <ele>59.656098</ele>
        <time>2020-01-09T19:05:28.688Z</time>
      </trkpt>
      <trkpt lat="43.67193" lon="3.93784">
        <ele>59.710001</ele>
        <time>2020-01-09T19:05:34.367Z</time>
      </trkpt>
      <trkpt lat="43.67221" lon="3.93799">
        <ele>59.76593</ele>
        <time>2020-01-09T19:05:47.011Z</time>
      </trkpt>
      <trkpt lat="43.67244" lon="3.9382">
        <ele>59.817876</ele>
        <time>2020-01-09T19:05:58.677Z</time>
      </trkpt>
      <trkpt lat="43.67272" lon="3.93857">
        <ele>59.888473</ele>
        <time>2020-01-09T19:06:14.463Z</time>
      </trkpt>
      <trkpt lat="43.67341" lon="3.93917">
        <ele>59.982078</ele>
        <time>2020-01-09T19:06:47.723Z</time>
      </trkpt>
      <trkpt lat="43.6743" lon="3.93941">
        <ele>59.573985</ele>
        <time>2020-01-09T19:07:24.690Z</time>
      </trkpt>
      <trkpt lat="43.67431" lon="3.93941">
        <ele>59.571711</ele>
        <time>2020-01-09T19:07:24.891Z</time>
      </trkpt>
      <trkpt lat="43.67463" lon="3.93945">
        <ele>59.423975</ele>
        <time>2020-01-09T19:07:38.128Z</time>
      </trkpt>
      <trkpt lat="43.675" lon="3.93939">
        <ele>59.258446</ele>
        <time>2020-01-09T19:07:52.986Z</time>
      </trkpt>
      <trkpt lat="43.67561" lon="3.93961">
        <ele>58.75651</ele>
        <time>2020-01-09T19:08:18.554Z</time>
      </trkpt>
      <trkpt lat="43.67572" lon="3.93969">
        <ele>58.652002</ele>
        <time>2020-01-09T19:08:23.554Z</time>
      </trkpt>
      <trkpt lat="43.67567" lon="3.93976">
        <ele>58.588378</ele>
        <time>2020-01-09T19:08:26.401Z</time>
      </trkpt>
      <trkpt lat="43.67486" lon="3.9408">
        <ele>57.675885</ele>
        <time>2020-01-09T19:09:11.015Z</time>
      </trkpt>
      <trkpt lat="43.6746" lon="3.94123">
        <ele>57.665959</ele>
        <time>2020-01-09T19:09:27.140Z</time>
      </trkpt>
      <trkpt lat="43.67447" lon="3.94164">
        <ele>57.657899</ele>
        <time>2020-01-09T19:09:40.469Z</time>
      </trkpt>
      <trkpt lat="43.67424" lon="3.94269">
        <ele>57.638261</ele>
        <time>2020-01-09T19:10:13.431Z</time>
      </trkpt>
      <trkpt lat="43.67411" lon="3.94305">
        <ele>57.765993</ele>
        <time>2020-01-09T19:10:25.845Z</time>
      </trkpt>
      <trkpt lat="43.67395" lon="3.94334">
        <ele>58.371865</ele>
        <time>2020-01-09T19:10:36.905Z</time>
      </trkpt>
      <trkpt lat="43.67407" lon="3.94347">
        <ele>58.736985</ele>
        <time>2020-01-09T19:10:44.824Z</time>
      </trkpt>
      <trkpt lat="43.67447" lon="3.94341">
        <ele>59.677152</ele>
        <time>2020-01-09T19:11:05.304Z</time>
      </trkpt>
      <trkpt lat="43.67585" lon="3.94296">
        <ele>64.55917</ele>
        <time>2020-01-09T19:12:24.110Z</time>
      </trkpt>
      <trkpt lat="43.67596" lon="3.9434">
        <ele>66.428086</ele>
        <time>2020-01-09T19:12:44.983Z</time>
      </trkpt>
      <trkpt lat="43.67631" lon="3.94367">
        <ele>68.624098</ele>
        <time>2020-01-09T19:13:09.458Z</time>
      </trkpt>
      <trkpt lat="43.67642" lon="3.9437">
        <ele>69.266718</ele>
        <time>2020-01-09T19:13:17.316Z</time>
      </trkpt>
      <trkpt lat="43.67645" lon="3.94395">
        <ele>70.265172</ele>
        <time>2020-01-09T19:13:28.527Z</time>
      </trkpt>
      <trkpt lat="43.67646" lon="3.94447">
        <ele>72.392332</ele>
        <time>2020-01-09T19:13:53.257Z</time>
      </trkpt>
      <trkpt lat="43.67676" lon="3.94594">
        <ele>79.246498</ele>
        <time>2020-01-09T19:15:05.859Z</time>
      </trkpt>
      <trkpt lat="43.67698" lon="3.94629">
        <ele>81.302017</ele>
        <time>2020-01-09T19:15:25.916Z</time>
      </trkpt>
      <trkpt lat="43.67707" lon="3.94628">
        <ele>81.862846</ele>
        <time>2020-01-09T19:15:31.256Z</time>
      </trkpt>
      <trkpt lat="43.6772" lon="3.94628">
        <ele>82.709594</ele>
        <time>2020-01-09T19:15:38.940Z</time>
      </trkpt>
      <trkpt lat="43.67807" lon="3.94594">
        <ele>85.783347</ele>
        <time>2020-01-09T19:16:29.624Z</time>
      </trkpt>
      <trkpt lat="43.67922" lon="3.94548">
        <ele>89.413588</ele>
        <time>2020-01-09T19:17:33.986Z</time>
      </trkpt>
      <trkpt lat="43.68032" lon="3.94504">
        <ele>91.596488</ele>
        <time>2020-01-09T19:18:33.368Z</time>
      </trkpt>
      <trkpt lat="43.6814" lon="3.94473">
        <ele>92.941822</ele>
        <time>2020-01-09T19:19:29.453Z</time>
      </trkpt>
      <trkpt lat="43.6831" lon="3.94455">
        <ele>93.876655</ele>
        <time>2020-01-09T19:20:53.283Z</time>
      </trkpt>
      <trkpt lat="43.68444" lon="3.9445">
        <ele>93.905763</ele>
        <time>2020-01-09T19:21:57.721Z</time>
      </trkpt>
      <trkpt lat="43.68504" lon="3.94439">
        <ele>93.840184</ele>
        <time>2020-01-09T19:22:26.329Z</time>
      </trkpt>
      <trkpt lat="43.68659" lon="3.94396">
        <ele>94.153262</ele>
        <time>2020-01-09T19:23:42.870Z</time>
      </trkpt>
      <trkpt lat="43.68736" lon="3.94376">
        <ele>94.743961</ele>
        <time>2020-01-09T19:24:21.803Z</time>
      </trkpt>
      <trkpt lat="43.68993" lon="3.9421">
        <ele>98.34024</ele>
        <time>2020-01-09T19:26:46.487Z</time>
      </trkpt>
      <trkpt lat="43.69058" lon="3.9418">
        <ele>99.149498</ele>
        <time>2020-01-09T19:27:21.087Z</time>
      </trkpt>
      <trkpt lat="43.69123" lon="3.94157">
        <ele>99.858195</ele>
        <time>2020-01-09T19:27:54.925Z</time>
      </trkpt>
      <trkpt lat="43.69123" lon="3.94157">
        <ele>99.858867</ele>
        <time>2020-01-09T19:27:55.074Z</time>
      </trkpt>
      <trkpt lat="43.69294" lon="3.94091">
        <ele>100.463957</ele>
        <time>2020-01-09T19:29:22.719Z</time>
      </trkpt>
      <trkpt lat="43.69342" lon="3.94068">
        <ele>99.221235</ele>
        <time>2020-01-09T19:29:46.636Z</time>
      </trkpt>
      <trkpt lat="43.69344" lon="3.93995">
        <ele>97.924204</ele>
        <time>2020-01-09T19:30:10.812Z</time>
      </trkpt>
      <trkpt lat="43.69344" lon="3.93987">
        <ele>97.772647</ele>
        <time>2020-01-09T19:30:13.607Z</time>
      </trkpt>
      <trkpt lat="43.69308" lon="3.9396">
        <ele>96.759431</ele>
        <time>2020-01-09T19:30:31.556Z</time>
      </trkpt>
      <trkpt lat="43.69271" lon="3.9394">
        <ele>94.993153</ele>
        <time>2020-01-09T19:30:48.523Z</time>
      </trkpt>
      <trkpt lat="43.69239" lon="3.93931">
        <ele>93.026987</ele>
        <time>2020-01-09T19:31:02.369Z</time>
      </trkpt>
      <trkpt lat="43.69195" lon="3.93866">
        <ele>89.18844</ele>
        <time>2020-01-09T19:31:29.093Z</time>
      </trkpt>
      <trkpt lat="43.69194" lon="3.93837">
        <ele>87.936802</ele>
        <time>2020-01-09T19:31:37.768Z</time>
      </trkpt>
      <trkpt lat="43.69159" lon="3.93725">
        <ele>83.67664</ele>
        <time>2020-01-09T19:32:15.058Z</time>
      </trkpt>
      <trkpt lat="43.69136" lon="3.93685">
        <ele>82.224713</ele>
        <time>2020-01-09T19:32:31.313Z</time>
      </trkpt>
      <trkpt lat="43.69127" lon="3.93636">
        <ele>80.781428</ele>
        <time>2020-01-09T19:32:47.885Z</time>
      </trkpt>
      <trkpt lat="43.6911" lon="3.93591">
        <ele>79.353902</ele>
        <time>2020-01-09T19:33:04.528Z</time>
      </trkpt>
      <trkpt lat="43.69066" lon="3.93498">
        <ele>76.984315</ele>
        <time>2020-01-09T19:33:40.993Z</time>
      </trkpt>
      <trkpt lat="43.68996" lon="3.93428">
        <ele>74.698509</ele>
        <time>2020-01-09T19:34:14.623Z</time>
      </trkpt>
      <trkpt lat="43.68896" lon="3.93358">
        <ele>72.919227</ele>
        <time>2020-01-09T19:34:57.625Z</time>
      </trkpt>
      <trkpt lat="43.6889" lon="3.93352">
        <ele>72.845264</ele>
        <time>2020-01-09T19:35:00.073Z</time>
      </trkpt>
      <trkpt lat="43.6884" lon="3.933">
        <ele>72.128647</ele>
        <time>2020-01-09T19:35:25.373Z</time>
      </trkpt>
      <trkpt lat="43.6882" lon="3.9328">
        <ele>71.851034</ele>
        <time>2020-01-09T19:35:35.343Z</time>
      </trkpt>
      <trkpt lat="43.68808" lon="3.93267">
        <ele>72.140297</ele>
        <time>2020-01-09T19:35:42.306Z</time>
      </trkpt>
      <trkpt lat="43.68797" lon="3.93253">
        <ele>72.856316</ele>
        <time>2020-01-09T19:35:49.128Z</time>
      </trkpt>
      <trkpt lat="43.68749" lon="3.93153">
        <ele>77.116769</ele>
        <time>2020-01-09T19:36:32.144Z</time>
      </trkpt>
      <trkpt lat="43.68744" lon="3.93145">
        <ele>77.478092</ele>
        <time>2020-01-09T19:36:36.197Z</time>
      </trkpt>
      <trkpt lat="43.68727" lon="3.93123">
        <ele>78.621109</ele>
        <time>2020-01-09T19:36:49.080Z</time>
      </trkpt>
      <trkpt lat="43.68724" lon="3.9312">
        <ele>78.820405</ele>
        <time>2020-01-09T19:36:51.568Z</time>
      </trkpt>
      <trkpt lat="43.68722" lon="3.93117">
        <ele>78.970727</ele>
        <time>2020-01-09T19:36:53.297Z</time>
      </trkpt>
      <trkpt lat="43.68719" lon="3.93111">
        <ele>79.20662</ele>
        <time>2020-01-09T19:36:55.919Z</time>
      </trkpt>
      <trkpt lat="43.68718" lon="3.93105">
        <ele>79.414756</ele>
        <time>2020-01-09T19:36:58.145Z</time>
      </trkpt>
      <trkpt lat="43.68714" lon="3.93108">
        <ele>79.636991</ele>
        <time>2020-01-09T19:37:01.760Z</time>
      </trkpt>
      <trkpt lat="43.68703" lon="3.93109">
        <ele>80.200491</ele>
        <time>2020-01-09T19:37:07.725Z</time>
      </trkpt>
      <trkpt lat="43.68693" lon="3.93102">
        <ele>80.753639</ele>
        <time>2020-01-09T19:37:13.958Z</time>
      </trkpt>
      <trkpt lat="43.68648" lon="3.93037">
        <ele>84.003592</ele>
        <time>2020-01-09T19:37:50.027Z</time>
      </trkpt>
      <trkpt lat="43.68643" lon="3.93031">
        <ele>84.322509</ele>
        <time>2020-01-09T19:37:53.526Z</time>
      </trkpt>
      <trkpt lat="43.68633" lon="3.9302">
        <ele>84.974292</ele>
        <time>2020-01-09T19:38:01.453Z</time>
      </trkpt>
      <trkpt lat="43.68629" lon="3.93009">
        <ele>85.411427</ele>
        <time>2020-01-09T19:38:05.886Z</time>
      </trkpt>
      <trkpt lat="43.68592" lon="3.92901">
        <ele>89.550065</ele>
        <time>2020-01-09T19:38:46.546Z</time>
      </trkpt>
      <trkpt lat="43.68586" lon="3.92889">
        <ele>89.436721</ele>
        <time>2020-01-09T19:38:51.277Z</time>
      </trkpt>
      <trkpt lat="43.68577" lon="3.9286">
        <ele>89.186262</ele>
        <time>2020-01-09T19:39:00.641Z</time>
      </trkpt>
      <trkpt lat="43.6857" lon="3.92833">
        <ele>88.95885</ele>
        <time>2020-01-09T19:39:09.251Z</time>
      </trkpt>
      <trkpt lat="43.68566" lon="3.92792">
        <ele>88.632174</ele>
        <time>2020-01-09T19:39:21.060Z</time>
      </trkpt>
      <trkpt lat="43.68548" lon="3.92738">
        <ele>88.157739</ele>
        <time>2020-01-09T19:39:37.693Z</time>
      </trkpt>
      <trkpt lat="43.68518" lon="3.92694">
        <ele>87.67928</ele>
        <time>2020-01-09T19:39:54.621Z</time>
      </trkpt>
      <trkpt lat="43.68471" lon="3.92642">
        <ele>85.814281</ele>
        <time>2020-01-09T19:40:18.081Z</time>
      </trkpt>
      <trkpt lat="43.68458" lon="3.92626">
        <ele>85.257289</ele>
        <time>2020-01-09T19:40:24.634Z</time>
      </trkpt>
      <trkpt lat="43.6845" lon="3.92615">
        <ele>84.872245</ele>
        <time>2020-01-09T19:40:29.256Z</time>
      </trkpt>
      <trkpt lat="43.68449" lon="3.92615">
        <ele>84.854487</ele>
        <time>2020-01-09T19:40:29.465Z</time>
      </trkpt>
      <trkpt lat="43.68442" lon="3.92605">
        <ele>84.522325</ele>
        <time>2020-01-09T19:40:33.127Z</time>
      </trkpt>
      <trkpt lat="43.68441" lon="3.92602">
        <ele>84.438844</ele>
        <time>2020-01-09T19:40:34.203Z</time>
      </trkpt>
      <trkpt lat="43.68442" lon="3.92589">
        <ele>84.135717</ele>
        <time>2020-01-09T19:40:37.671Z</time>
      </trkpt>
      <trkpt lat="43.68443" lon="3.92548">
        <ele>83.160947</ele>
        <time>2020-01-09T19:40:48.809Z</time>
      </trkpt>
      <trkpt lat="43.68443" lon="3.92539">
        <ele>82.924957</ele>
        <time>2020-01-09T19:40:51.448Z</time>
      </trkpt>
      <trkpt lat="43.68444" lon="3.92533">
        <ele>82.784092</ele>
        <time>2020-01-09T19:40:53.109Z</time>
      </trkpt>
      <trkpt lat="43.68453" lon="3.9253">
        <ele>82.46741</ele>
        <time>2020-01-09T19:40:56.690Z</time>
      </trkpt>
      <trkpt lat="43.68455" lon="3.92522">
        <ele>82.280389</ele>
        <time>2020-01-09T19:40:58.618Z</time>
      </trkpt>
      <trkpt lat="43.68457" lon="3.92515">
        <ele>82.093368</ele>
        <time>2020-01-09T19:41:00.806Z</time>
      </trkpt>
      <trkpt lat="43.6846" lon="3.9249">
        <ele>81.400549</ele>
        <time>2020-01-09T19:41:07.597Z</time>
      </trkpt>
      <trkpt lat="43.68453" lon="3.92475">
        <ele>80.763624</ele>
        <time>2020-01-09T19:41:12.230Z</time>
      </trkpt>
      <trkpt lat="43.68447" lon="3.92474">
        <ele>80.441765</ele>
        <time>2020-01-09T19:41:14.769Z</time>
      </trkpt>
      <trkpt lat="43.68447" lon="3.92456">
        <ele>79.803684</ele>
        <time>2020-01-09T19:41:19.645Z</time>
      </trkpt>
      <trkpt lat="43.68448" lon="3.92445">
        <ele>79.4343</ele>
        <time>2020-01-09T19:41:22.501Z</time>
      </trkpt>
      <trkpt lat="43.68448" lon="3.92442">
        <ele>79.316939</ele>
        <time>2020-01-09T19:41:23.357Z</time>
      </trkpt>
      <trkpt lat="43.6845" lon="3.92436">
        <ele>79.065806</ele>
        <time>2020-01-09T19:41:25.052Z</time>
      </trkpt>
      <trkpt lat="43.68453" lon="3.92428">
        <ele>78.777422</ele>
        <time>2020-01-09T19:41:27.410Z</time>
      </trkpt>
      <trkpt lat="43.68472" lon="3.92395">
        <ele>77.253672</ele>
        <time>2020-01-09T19:41:38.807Z</time>
      </trkpt>
      <trkpt lat="43.68487" lon="3.92371">
        <ele>76.149821</ele>
        <time>2020-01-09T19:41:47.254Z</time>
      </trkpt>
      <trkpt lat="43.68503" lon="3.92355">
        <ele>75.15002</ele>
        <time>2020-01-09T19:41:54.502Z</time>
      </trkpt>
      <trkpt lat="43.68525" lon="3.92344">
        <ele>73.994335</ele>
        <time>2020-01-09T19:42:03.079Z</time>
      </trkpt>
      <trkpt lat="43.68547" lon="3.9233">
        <ele>72.842288</ele>
        <time>2020-01-09T19:42:11.716Z</time>
      </trkpt>
      <trkpt lat="43.68551" lon="3.92327">
        <ele>72.665921</ele>
        <time>2020-01-09T19:42:13.516Z</time>
      </trkpt>
      <trkpt lat="43.68555" lon="3.92324">
        <ele>72.525396</ele>
        <time>2020-01-09T19:42:14.929Z</time>
      </trkpt>
      <trkpt lat="43.68559" lon="3.92318">
        <ele>72.306684</ele>
        <time>2020-01-09T19:42:16.923Z</time>
      </trkpt>
      <trkpt lat="43.68572" lon="3.92302">
        <ele>71.682172</ele>
        <time>2020-01-09T19:42:23.301Z</time>
      </trkpt>
      <trkpt lat="43.68602" lon="3.92262">
        <ele>70.176841</ele>
        <time>2020-01-09T19:42:38.834Z</time>
      </trkpt>
      <trkpt lat="43.68633" lon="3.9222">
        <ele>68.611561</ele>
        <time>2020-01-09T19:42:55.482Z</time>
      </trkpt>
      <trkpt lat="43.68682" lon="3.92172">
        <ele>66.450336</ele>
        <time>2020-01-09T19:43:18.898Z</time>
      </trkpt>
      <trkpt lat="43.68698" lon="3.92158">
        <ele>66.006345</ele>
        <time>2020-01-09T19:43:26.211Z</time>
      </trkpt>
      <trkpt lat="43.68711" lon="3.92144">
        <ele>65.620575</ele>
        <time>2020-01-09T19:43:32.747Z</time>
      </trkpt>
      <trkpt lat="43.68755" lon="3.921">
        <ele>64.382727</ele>
        <time>2020-01-09T19:43:53.599Z</time>
      </trkpt>
      <trkpt lat="43.68772" lon="3.92084">
        <ele>63.911945</ele>
        <time>2020-01-09T19:44:01.382Z</time>
      </trkpt>
      <trkpt lat="43.68769" lon="3.9207">
        <ele>63.663178</ele>
        <time>2020-01-09T19:44:05.664Z</time>
      </trkpt>
      <trkpt lat="43.68766" lon="3.92053">
        <ele>63.36993</ele>
        <time>2020-01-09T19:44:10.528Z</time>
      </trkpt>
      <trkpt lat="43.6876" lon="3.92017">
        <ele>62.752315</ele>
        <time>2020-01-09T19:44:20.982Z</time>
      </trkpt>
      <trkpt lat="43.68755" lon="3.92001">
        <ele>62.457646</ele>
        <time>2020-01-09T19:44:25.818Z</time>
      </trkpt>
      <trkpt lat="43.68739" lon="3.91972">
        <ele>62.033721</ele>
        <time>2020-01-09T19:44:36.074Z</time>
      </trkpt>
      <trkpt lat="43.68733" lon="3.91964">
        <ele>61.918962</ele>
        <time>2020-01-09T19:44:39.333Z</time>
      </trkpt>
      <trkpt lat="43.68725" lon="3.91957">
        <ele>61.800603</ele>
        <time>2020-01-09T19:44:42.794Z</time>
      </trkpt>
      <trkpt lat="43.68703" lon="3.91934">
        <ele>61.425621</ele>
        <time>2020-01-09T19:44:53.944Z</time>
      </trkpt>
      <trkpt lat="43.68689" lon="3.91911">
        <ele>61.139305</ele>
        <time>2020-01-09T19:45:02.613Z</time>
      </trkpt>
      <trkpt lat="43.68673" lon="3.91878">
        <ele>60.760014</ele>
        <time>2020-01-09T19:45:13.842Z</time>
      </trkpt>
      <trkpt lat="43.68678" lon="3.91866">
        <ele>60.62429</ele>
        <time>2020-01-09T19:45:18.863Z</time>
      </trkpt>
      <trkpt lat="43.68689" lon="3.91776">
        <ele>59.958231</ele>
        <time>2020-01-09T19:45:49.828Z</time>
      </trkpt>
      <trkpt lat="43.68695" lon="3.9177">
        <ele>60.020593</ele>
        <time>2020-01-09T19:45:53.515Z</time>
      </trkpt>
      <trkpt lat="43.68716" lon="3.91766">
        <ele>60.199272</ele>
        <time>2020-01-09T19:46:03.864Z</time>
      </trkpt>
      <trkpt lat="43.68734" lon="3.91741">
        <ele>60.416588</ele>
        <time>2020-01-09T19:46:16.652Z</time>
      </trkpt>
      <trkpt lat="43.6876" lon="3.91717">
        <ele>60.676522</ele>
        <time>2020-01-09T19:46:32.158Z</time>
      </trkpt>
      <trkpt lat="43.68785" lon="3.91714">
        <ele>60.888369</ele>
        <time>2020-01-09T19:46:44.950Z</time>
      </trkpt>
      <trkpt lat="43.68794" lon="3.91638">
        <ele>61.356339</ele>
        <time>2020-01-09T19:47:13.788Z</time>
      </trkpt>
      <trkpt lat="43.68828" lon="3.91567">
        <ele>62.401131</ele>
        <time>2020-01-09T19:47:44.949Z</time>
      </trkpt>
      <trkpt lat="43.6883" lon="3.91564">
        <ele>62.461382</ele>
        <time>2020-01-09T19:47:46.839Z</time>
      </trkpt>
      <trkpt lat="43.68833" lon="3.91558">
        <ele>62.548575</ele>
        <time>2020-01-09T19:47:49.493Z</time>
      </trkpt>
      <trkpt lat="43.68832" lon="3.91533">
        <ele>62.875605</ele>
        <time>2020-01-09T19:47:58.694Z</time>
      </trkpt>
      <trkpt lat="43.68828" lon="3.91522">
        <ele>63.032535</ele>
        <time>2020-01-09T19:48:03.266Z</time>
      </trkpt>
      <trkpt lat="43.68824" lon="3.9151">
        <ele>63.192924</ele>
        <time>2020-01-09T19:48:08.164Z</time>
      </trkpt>
      <trkpt lat="43.68793" lon="3.91439">
        <ele>64.265755</ele>
        <time>2020-01-09T19:48:39.353Z</time>
      </trkpt>
      <trkpt lat="43.68773" lon="3.91408">
        <ele>64.963155</ele>
        <time>2020-01-09T19:48:55.109Z</time>
      </trkpt>
      <trkpt lat="43.68766" lon="3.91327">
        <ele>66.826088</ele>
        <time>2020-01-09T19:49:26.867Z</time>
      </trkpt>
      <trkpt lat="43.68769" lon="3.91262">
        <ele>68.308597</ele>
        <time>2020-01-09T19:49:52.376Z</time>
      </trkpt>
      <trkpt lat="43.68783" lon="3.91239">
        <ele>69.00662</ele>
        <time>2020-01-09T19:50:04.594Z</time>
      </trkpt>
      <trkpt lat="43.688" lon="3.91228">
        <ele>69.590089</ele>
        <time>2020-01-09T19:50:14.983Z</time>
      </trkpt>
      <trkpt lat="43.68808" lon="3.91204">
        <ele>70.203661</ele>
        <time>2020-01-09T19:50:25.982Z</time>
      </trkpt>
      <trkpt lat="43.6885" lon="3.91238">
        <ele>72.323391</ele>
        <time>2020-01-09T19:50:54.067Z</time>
      </trkpt>
      <trkpt lat="43.68901" lon="3.91245">
        <ele>74.60623</ele>
        <time>2020-01-09T19:51:24.503Z</time>
      </trkpt>
      <trkpt lat="43.69063" lon="3.91311">
        <ele>81.597749</ele>
        <time>2020-01-09T19:53:01.519Z</time>
      </trkpt>
      <trkpt lat="43.69127" lon="3.91387">
        <ele>84.851521</ele>
        <time>2020-01-09T19:53:48.575Z</time>
      </trkpt>
      <trkpt lat="43.6916" lon="3.91426">
        <ele>85.992504</ele>
        <time>2020-01-09T19:54:12.005Z</time>
      </trkpt>
      <trkpt lat="43.69184" lon="3.91422">
        <ele>86.553957</ele>
        <time>2020-01-09T19:54:25.417Z</time>
      </trkpt>
      <trkpt lat="43.69196" lon="3.91417">
        <ele>86.850902</ele>
        <time>2020-01-09T19:54:31.849Z</time>
      </trkpt>
      <trkpt lat="43.69204" lon="3.91447">
        <ele>87.376762</ele>
        <time>2020-01-09T19:54:42.497Z</time>
      </trkpt>
      <trkpt lat="43.69244" lon="3.91639">
        <ele>89.413922</ele>
        <time>2020-01-09T19:55:45.537Z</time>
      </trkpt>
      <trkpt lat="43.69248" lon="3.91663">
        <ele>89.41605</ele>
        <time>2020-01-09T19:55:52.820Z</time>
      </trkpt>
      <trkpt lat="43.69254" lon="3.91659">
        <ele>89.416842</ele>
        <time>2020-01-09T19:55:55.751Z</time>
      </trkpt>
      <trkpt lat="43.69272" lon="3.91618">
        <ele>89.42107</ele>
        <time>2020-01-09T19:56:12.283Z</time>
      </trkpt>
      <trkpt lat="43.69285" lon="3.91573">
        <ele>89.425298</ele>
        <time>2020-01-09T19:56:28.880Z</time>
      </trkpt>
      <trkpt lat="43.69289" lon="3.91512">
        <ele>89.590828</ele>
        <time>2020-01-09T19:56:49.945Z</time>
      </trkpt>
      <trkpt lat="43.69287" lon="3.91444">
        <ele>90.071094</ele>
        <time>2020-01-09T19:57:13.626Z</time>
      </trkpt>
      <trkpt lat="43.69288" lon="3.91434">
        <ele>90.147844</ele>
        <time>2020-01-09T19:57:17.121Z</time>
      </trkpt>
      <trkpt lat="43.69296" lon="3.91434">
        <ele>90.227781</ele>
        <time>2020-01-09T19:57:21.868Z</time>
      </trkpt>
      <trkpt lat="43.69316" lon="3.91528">
        <ele>90.912082</ele>
        <time>2020-01-09T19:57:57.946Z</time>
      </trkpt>
      <trkpt lat="43.69326" lon="3.9164">
        <ele>92.600826</ele>
        <time>2020-01-09T19:58:42.303Z</time>
      </trkpt>
      <trkpt lat="43.69321" lon="3.91705">
        <ele>93.84877</ele>
        <time>2020-01-09T19:59:08.381Z</time>
      </trkpt>
      <trkpt lat="43.69325" lon="3.91736">
        <ele>94.437844</ele>
        <time>2020-01-09T19:59:20.443Z</time>
      </trkpt>
      <trkpt lat="43.69344" lon="3.91834">
        <ele>96.180093</ele>
        <time>2020-01-09T19:59:59.648Z</time>
      </trkpt>
      <trkpt lat="43.69341" lon="3.9189">
        <ele>96.806011</ele>
        <time>2020-01-09T20:00:20.660Z</time>
      </trkpt>
      <trkpt lat="43.69319" lon="3.91942">
        <ele>97.484254</ele>
        <time>2020-01-09T20:00:42.775Z</time>
      </trkpt>
      <trkpt lat="43.69318" lon="3.91965">
        <ele>97.74346</ele>
        <time>2020-01-09T20:00:51.155Z</time>
      </trkpt>
      <trkpt lat="43.69424" lon="3.92158">
        <ele>100.368975</ele>
        <time>2020-01-09T20:02:20.714Z</time>
      </trkpt>
      <trkpt lat="43.69438" lon="3.92178">
        <ele>100.662942</ele>
        <time>2020-01-09T20:02:31.063Z</time>
      </trkpt>
      <trkpt lat="43.6947" lon="3.92223">
        <ele>101.338236</ele>
        <time>2020-01-09T20:02:54.368Z</time>
      </trkpt>
      <trkpt lat="43.69565" lon="3.92321">
        <ele>103.331822</ele>
        <time>2020-01-09T20:03:55.237Z</time>
      </trkpt>
      <trkpt lat="43.69616" lon="3.92386">
        <ele>104.573986</ele>
        <time>2020-01-09T20:04:30.944Z</time>
      </trkpt>
      <trkpt lat="43.69684" lon="3.92533">
        <ele>107.734817</ele>
        <time>2020-01-09T20:05:38.265Z</time>
      </trkpt>
      <trkpt lat="43.69728" lon="3.92585">
        <ele>109.053648</ele>
        <time>2020-01-09T20:06:10.530Z</time>
      </trkpt>
      <trkpt lat="43.69855" lon="3.92746">
        <ele>111.33281</ele>
        <time>2020-01-09T20:07:38.436Z</time>
      </trkpt>
      <trkpt lat="43.69855" lon="3.92746">
        <ele>111.33281</ele>
        <time>2020-01-09T20:07:38.761Z</time>
      </trkpt>
      <trkpt lat="43.69855" lon="3.92746">
        <ele>111.33281</ele>
        <time>2020-01-09T20:07:38.828Z</time>
      </trkpt>
      <trkpt lat="43.69861" lon="3.92753">
        <ele>111.246989</ele>
        <time>2020-01-09T20:07:42.370Z</time>
      </trkpt>
      <trkpt lat="43.69873" lon="3.92777">
        <ele>111.010891</ele>
        <time>2020-01-09T20:07:52.321Z</time>
      </trkpt>
      <trkpt lat="43.69877" lon="3.92799">
        <ele>110.826796</ele>
        <time>2020-01-09T20:07:59.882Z</time>
      </trkpt>
      <trkpt lat="43.69884" lon="3.92847">
        <ele>110.429919</ele>
        <time>2020-01-09T20:08:16.127Z</time>
      </trkpt>
      <trkpt lat="43.69907" lon="3.92888">
        <ele>110.008307</ele>
        <time>2020-01-09T20:08:33.266Z</time>
      </trkpt>
      <trkpt lat="43.69907" lon="3.92889">
        <ele>110.00363</ele>
        <time>2020-01-09T20:08:33.429Z</time>
      </trkpt>
      <trkpt lat="43.69917" lon="3.92926">
        <ele>109.680789</ele>
        <time>2020-01-09T20:08:46.876Z</time>
      </trkpt>
      <trkpt lat="43.69913" lon="3.92934">
        <ele>109.597889</ele>
        <time>2020-01-09T20:08:50.233Z</time>
      </trkpt>
      <trkpt lat="43.69905" lon="3.92935">
        <ele>109.513142</ele>
        <time>2020-01-09T20:08:53.914Z</time>
      </trkpt>
      <trkpt lat="43.6986" lon="3.92929">
        <ele>109.894366</ele>
        <time>2020-01-09T20:09:15.458Z</time>
      </trkpt>
      <trkpt lat="43.69839" lon="3.92945">
        <ele>110.285396</ele>
        <time>2020-01-09T20:09:27.598Z</time>
      </trkpt>
      <trkpt lat="43.69831" lon="3.9295">
        <ele>110.422038</ele>
        <time>2020-01-09T20:09:32.099Z</time>
      </trkpt>
      <trkpt lat="43.69827" lon="3.92954">
        <ele>110.50643</ele>
        <time>2020-01-09T20:09:34.868Z</time>
      </trkpt>
      <trkpt lat="43.69812" lon="3.92961">
        <ele>110.7566</ele>
        <time>2020-01-09T20:09:42.835Z</time>
      </trkpt>
      <trkpt lat="43.69809" lon="3.9296">
        <ele>110.805178</ele>
        <time>2020-01-09T20:09:44.480Z</time>
      </trkpt>
      <trkpt lat="43.69808" lon="3.92975">
        <ele>110.983074</ele>
        <time>2020-01-09T20:09:50.596Z</time>
      </trkpt>
      <trkpt lat="43.69809" lon="3.93">
        <ele>111.263671</ele>
        <time>2020-01-09T20:09:59.588Z</time>
      </trkpt>
      <trkpt lat="43.698" lon="3.9301">
        <ele>111.446412</ele>
        <time>2020-01-09T20:10:06.108Z</time>
      </trkpt>
      <trkpt lat="43.6979" lon="3.93012">
        <ele>111.608737</ele>
        <time>2020-01-09T20:10:11.591Z</time>
      </trkpt>
      <trkpt lat="43.69787" lon="3.93027">
        <ele>111.790695</ele>
        <time>2020-01-09T20:10:17.423Z</time>
      </trkpt>
      <trkpt lat="43.69794" lon="3.93057">
        <ele>112.165261</ele>
        <time>2020-01-09T20:10:30.585Z</time>
      </trkpt>
      <trkpt lat="43.69807" lon="3.9308">
        <ele>112.552455</ele>
        <time>2020-01-09T20:10:41.627Z</time>
      </trkpt>
      <trkpt lat="43.69828" lon="3.93137">
        <ele>113.462098</ele>
        <time>2020-01-09T20:11:07.724Z</time>
      </trkpt>
      <trkpt lat="43.69837" lon="3.93165">
        <ele>113.884105</ele>
        <time>2020-01-09T20:11:19.104Z</time>
      </trkpt>
      <trkpt lat="43.69882" lon="3.93225">
        <ele>115.124912</ele>
        <time>2020-01-09T20:11:51.874Z</time>
      </trkpt>
      <trkpt lat="43.69888" lon="3.93247">
        <ele>115.456349</ele>
        <time>2020-01-09T20:12:00.254Z</time>
      </trkpt>
      <trkpt lat="43.69882" lon="3.93312">
        <ele>115.682649</ele>
        <time>2020-01-09T20:12:23.215Z</time>
      </trkpt>
      <trkpt lat="43.69969" lon="3.93425">
        <ele>115.365771</ele>
        <time>2020-01-09T20:13:20.376Z</time>
      </trkpt>
      <trkpt lat="43.69979" lon="3.93449">
        <ele>115.312273</ele>
        <time>2020-01-09T20:13:29.950Z</time>
      </trkpt>
      <trkpt lat="43.70011" lon="3.93482">
        <ele>115.121326</ele>
        <time>2020-01-09T20:13:48.967Z</time>
      </trkpt>
      <trkpt lat="43.70065" lon="3.93525">
        <ele>114.786666</ele>
        <time>2020-01-09T20:14:18.700Z</time>
      </trkpt>
      <trkpt lat="43.70213" lon="3.93553">
        <ele>113.563783</ele>
        <time>2020-01-09T20:15:29.565Z</time>
      </trkpt>
      <trkpt lat="43.70252" lon="3.93579">
        <ele>113.036126</ele>
        <time>2020-01-09T20:15:49.968Z</time>
      </trkpt>
      <trkpt lat="43.70284" lon="3.93608">
        <ele>112.567848</ele>
        <time>2020-01-09T20:16:07.892Z</time>
      </trkpt>
      <trkpt lat="43.7031" lon="3.9362">
        <ele>112.237398</ele>
        <time>2020-01-09T20:16:20.494Z</time>
      </trkpt>
      <trkpt lat="43.7032" lon="3.93636">
        <ele>111.942736</ele>
        <time>2020-01-09T20:16:27.472Z</time>
      </trkpt>
      <trkpt lat="43.70325" lon="3.93653">
        <ele>111.564977</ele>
        <time>2020-01-09T20:16:33.787Z</time>
      </trkpt>
      <trkpt lat="43.70312" lon="3.9369">
        <ele>110.759287</ele>
        <time>2020-01-09T20:16:47.193Z</time>
      </trkpt>
      <trkpt lat="43.70314" lon="3.93722">
        <ele>110.126994</ele>
        <time>2020-01-09T20:16:57.682Z</time>
      </trkpt>
      <trkpt lat="43.70319" lon="3.93804">
        <ele>108.470083</ele>
        <time>2020-01-09T20:17:24.921Z</time>
      </trkpt>
      <trkpt lat="43.70313" lon="3.93841">
        <ele>107.719441</ele>
        <time>2020-01-09T20:17:37.157Z</time>
      </trkpt>
      <trkpt lat="43.70255" lon="3.9392">
        <ele>104.700855</ele>
        <time>2020-01-09T20:18:12.965Z</time>
      </trkpt>
      <trkpt lat="43.70234" lon="3.93927">
        <ele>103.840007</ele>
        <time>2020-01-09T20:18:22.348Z</time>
      </trkpt>
      <trkpt lat="43.70207" lon="3.93911">
        <ele>102.664438</ele>
        <time>2020-01-09T20:18:35.159Z</time>
      </trkpt>
      <trkpt lat="43.70182" lon="3.93893">
        <ele>101.521663</ele>
        <time>2020-01-09T20:18:47.623Z</time>
      </trkpt>
      <trkpt lat="43.70165" lon="3.93888">
        <ele>100.839815</ele>
        <time>2020-01-09T20:18:55.048Z</time>
      </trkpt>
      <trkpt lat="43.70155" lon="3.93905">
        <ele>100.189771</ele>
        <time>2020-01-09T20:19:02.095Z</time>
      </trkpt>
      <trkpt lat="43.70066" lon="3.93953">
        <ele>96.73917</ele>
        <time>2020-01-09T20:19:43.607Z</time>
      </trkpt>
      <trkpt lat="43.70007" lon="3.94016">
        <ele>94.03687</ele>
        <time>2020-01-09T20:20:16.992Z</time>
      </trkpt>
      <trkpt lat="43.6996" lon="3.94078">
        <ele>92.319203</ele>
        <time>2020-01-09T20:20:46.634Z</time>
      </trkpt>
      <trkpt lat="43.69901" lon="3.94123">
        <ele>90.759912</ele>
        <time>2020-01-09T20:21:17.532Z</time>
      </trkpt>
      <trkpt lat="43.69824" lon="3.94126">
        <ele>88.934779</ele>
        <time>2020-01-09T20:21:53.072Z</time>
      </trkpt>
      <trkpt lat="43.69759" lon="3.94119">
        <ele>87.256354</ele>
        <time>2020-01-09T20:22:22.250Z</time>
      </trkpt>
      <trkpt lat="43.69743" lon="3.94124">
        <ele>86.836571</ele>
        <time>2020-01-09T20:22:29.583Z</time>
      </trkpt>
      <trkpt lat="43.69721" lon="3.94172">
        <ele>85.775116</ele>
        <time>2020-01-09T20:22:48.213Z</time>
      </trkpt>
      <trkpt lat="43.69712" lon="3.94182">
        <ele>85.478269</ele>
        <time>2020-01-09T20:22:53.281Z</time>
      </trkpt>
      <trkpt lat="43.69702" lon="3.94224">
        <ele>84.665965</ele>
        <time>2020-01-09T20:23:07.854Z</time>
      </trkpt>
      <trkpt lat="43.69701" lon="3.94278">
        <ele>84.440604</ele>
        <time>2020-01-09T20:23:25.987Z</time>
      </trkpt>
      <trkpt lat="43.69701" lon="3.94284">
        <ele>84.416433</ele>
        <time>2020-01-09T20:23:28.145Z</time>
      </trkpt>
      <trkpt lat="43.69702" lon="3.94328">
        <ele>84.252744</ele>
        <time>2020-01-09T20:23:43.147Z</time>
      </trkpt>
      <trkpt lat="43.69696" lon="3.94338">
        <ele>84.205176</ele>
        <time>2020-01-09T20:23:47.397Z</time>
      </trkpt>
      <trkpt lat="43.69679" lon="3.94342">
        <ele>84.114725</ele>
        <time>2020-01-09T20:23:56.229Z</time>
      </trkpt>
      <trkpt lat="43.69614" lon="3.94329">
        <ele>83.771629</ele>
        <time>2020-01-09T20:24:27.932Z</time>
      </trkpt>
      <trkpt lat="43.69583" lon="3.94329">
        <ele>83.880949</ele>
        <time>2020-01-09T20:24:43.237Z</time>
      </trkpt>
      <trkpt lat="43.69577" lon="3.94329">
        <ele>83.938079</ele>
        <time>2020-01-09T20:24:46.886Z</time>
      </trkpt>
      <trkpt lat="43.69551" lon="3.94331">
        <ele>84.18477</ele>
        <time>2020-01-09T20:24:59.429Z</time>
      </trkpt>
      <trkpt lat="43.69524" lon="3.94341">
        <ele>84.453139</ele>
        <time>2020-01-09T20:25:13.955Z</time>
      </trkpt>
      <trkpt lat="43.69492" lon="3.94339">
        <ele>84.767086</ele>
        <time>2020-01-09T20:25:30.451Z</time>
      </trkpt>
      <trkpt lat="43.69477" lon="3.94346">
        <ele>84.914486</ele>
        <time>2020-01-09T20:25:38.016Z</time>
      </trkpt>
      <trkpt lat="43.69466" lon="3.94376">
        <ele>85.150232</ele>
        <time>2020-01-09T20:25:50.375Z</time>
      </trkpt>
      <trkpt lat="43.6947" lon="3.94398">
        <ele>85.305005</ele>
        <time>2020-01-09T20:25:57.427Z</time>
      </trkpt>
      <trkpt lat="43.6948" lon="3.94436">
        <ele>85.471648</ele>
        <time>2020-01-09T20:26:09.616Z</time>
      </trkpt>
      <trkpt lat="43.69489" lon="3.9451">
        <ele>85.582041</ele>
        <time>2020-01-09T20:26:31.839Z</time>
      </trkpt>
      <trkpt lat="43.69494" lon="3.94591">
        <ele>85.702781</ele>
        <time>2020-01-09T20:26:56.311Z</time>
      </trkpt>
      <trkpt lat="43.69495" lon="3.94633">
        <ele>85.764841</ele>
        <time>2020-01-09T20:27:08.917Z</time>
      </trkpt>
      <trkpt lat="43.69498" lon="3.94679">
        <ele>85.70544</ele>
        <time>2020-01-09T20:27:22.765Z</time>
      </trkpt>
      <trkpt lat="43.69506" lon="3.94716">
        <ele>85.47455</ele>
        <time>2020-01-09T20:27:34.063Z</time>
      </trkpt>
      <trkpt lat="43.69547" lon="3.94863">
        <ele>84.513422</ele>
        <time>2020-01-09T20:28:20.223Z</time>
      </trkpt>
      <trkpt lat="43.69567" lon="3.95043">
        <ele>81.696797</ele>
        <time>2020-01-09T20:29:11.585Z</time>
      </trkpt>
      <trkpt lat="43.69568" lon="3.95052">
        <ele>81.535329</ele>
        <time>2020-01-09T20:29:14.041Z</time>
      </trkpt>
      <trkpt lat="43.69568" lon="3.95055">
        <ele>81.46903</ele>
        <time>2020-01-09T20:29:15.095Z</time>
      </trkpt>
      <trkpt lat="43.69568" lon="3.9506">
        <ele>81.385013</ele>
        <time>2020-01-09T20:29:16.272Z</time>
      </trkpt>
      <trkpt lat="43.6957" lon="3.95142">
        <ele>79.922399</ele>
        <time>2020-01-09T20:29:39.249Z</time>
      </trkpt>
      <trkpt lat="43.69584" lon="3.95319">
        <ele>75.833545</ele>
        <time>2020-01-09T20:30:28.210Z</time>
      </trkpt>
      <trkpt lat="43.69584" lon="3.95436">
        <ele>73.189797</ele>
        <time>2020-01-09T20:31:00.782Z</time>
      </trkpt>
      <trkpt lat="43.69589" lon="3.955">
        <ele>71.80885</ele>
        <time>2020-01-09T20:31:18.487Z</time>
      </trkpt>
      <trkpt lat="43.69589" lon="3.955">
        <ele>71.800203</ele>
        <time>2020-01-09T20:31:18.588Z</time>
      </trkpt>
      <trkpt lat="43.69586" lon="3.95539">
        <ele>70.961799</ele>
        <time>2020-01-09T20:31:29.370Z</time>
      </trkpt>
      <trkpt lat="43.69598" lon="3.95737">
        <ele>67.290155</ele>
        <time>2020-01-09T20:32:24.636Z</time>
      </trkpt>
      <trkpt lat="43.69603" lon="3.95787">
        <ele>66.535102</ele>
        <time>2020-01-09T20:32:38.853Z</time>
      </trkpt>
      <trkpt lat="43.69606" lon="3.95802">
        <ele>66.299219</ele>
        <time>2020-01-09T20:32:43.361Z</time>
      </trkpt>
      <trkpt lat="43.69606" lon="3.9584">
        <ele>65.733558</ele>
        <time>2020-01-09T20:32:54.046Z</time>
      </trkpt>
      <trkpt lat="43.69597" lon="3.95851">
        <ele>65.486705</ele>
        <time>2020-01-09T20:32:58.778Z</time>
      </trkpt>
      <trkpt lat="43.69601" lon="3.95869">
        <ele>65.205665</ele>
        <time>2020-01-09T20:33:04.126Z</time>
      </trkpt>
      <trkpt lat="43.69586" lon="3.95923">
        <ele>64.959584</ele>
        <time>2020-01-09T20:33:20.766Z</time>
      </trkpt>
      <trkpt lat="43.69565" lon="3.95955">
        <ele>64.916925</ele>
        <time>2020-01-09T20:33:33.340Z</time>
      </trkpt>
      <trkpt lat="43.69541" lon="3.95998">
        <ele>64.862908</ele>
        <time>2020-01-09T20:33:49.681Z</time>
      </trkpt>
      <trkpt lat="43.69523" lon="3.95995">
        <ele>64.837678</ele>
        <time>2020-01-09T20:33:57.361Z</time>
      </trkpt>
      <trkpt lat="43.69471" lon="3.96104">
        <ele>64.844675</ele>
        <time>2020-01-09T20:34:36.703Z</time>
      </trkpt>
      <trkpt lat="43.69472" lon="3.96118">
        <ele>64.869391</ele>
        <time>2020-01-09T20:34:40.846Z</time>
      </trkpt>
      <trkpt lat="43.69482" lon="3.96123">
        <ele>64.895579</ele>
        <time>2020-01-09T20:34:45.206Z</time>
      </trkpt>
      <trkpt lat="43.69452" lon="3.96324">
        <ele>65.196438</ele>
        <time>2020-01-09T20:35:46.985Z</time>
      </trkpt>
      <trkpt lat="43.69423" lon="3.96408">
        <ele>65.161701</ele>
        <time>2020-01-09T20:36:14.525Z</time>
      </trkpt>
      <trkpt lat="43.69391" lon="3.96469">
        <ele>65.133519</ele>
        <time>2020-01-09T20:36:36.859Z</time>
      </trkpt>
      <trkpt lat="43.69379" lon="3.96648">
        <ele>65.373383</ele>
        <time>2020-01-09T20:37:30.302Z</time>
      </trkpt>
      <trkpt lat="43.69385" lon="3.96729">
        <ele>65.530894</ele>
        <time>2020-01-09T20:37:54.817Z</time>
      </trkpt>
      <trkpt lat="43.69445" lon="3.96906">
        <ele>66.945689</ele>
        <time>2020-01-09T20:38:55.173Z</time>
      </trkpt>
      <trkpt lat="43.69446" lon="3.96906">
        <ele>66.951984</ele>
        <time>2020-01-09T20:38:55.565Z</time>
      </trkpt>
      <trkpt lat="43.69463" lon="3.96975">
        <ele>67.558859</ele>
        <time>2020-01-09T20:39:18.437Z</time>
      </trkpt>
      <trkpt lat="43.69469" lon="3.96982">
        <ele>67.648054</ele>
        <time>2020-01-09T20:39:21.859Z</time>
      </trkpt>
      <trkpt lat="43.69478" lon="3.96993">
        <ele>67.776082</ele>
        <time>2020-01-09T20:39:27.329Z</time>
      </trkpt>
      <trkpt lat="43.69507" lon="3.97097">
        <ele>68.588502</ele>
        <time>2020-01-09T20:40:02.128Z</time>
      </trkpt>
      <trkpt lat="43.69513" lon="3.97111">
        <ele>68.710222</ele>
        <time>2020-01-09T20:40:07.331Z</time>
      </trkpt>
      <trkpt lat="43.69533" lon="3.9711">
        <ele>68.905642</ele>
        <time>2020-01-09T20:40:15.543Z</time>
      </trkpt>
      <trkpt lat="43.69536" lon="3.97121">
        <ele>68.991331</ele>
        <time>2020-01-09T20:40:19.099Z</time>
      </trkpt>
      <trkpt lat="43.69532" lon="3.97166">
        <ele>69.327531</ele>
        <time>2020-01-09T20:40:33.154Z</time>
      </trkpt>
      <trkpt lat="43.69539" lon="3.97241">
        <ele>69.160999</ele>
        <time>2020-01-09T20:40:55.457Z</time>
      </trkpt>
      <trkpt lat="43.69541" lon="3.97352">
        <ele>68.432563</ele>
        <time>2020-01-09T20:41:27.814Z</time>
      </trkpt>
      <trkpt lat="43.69528" lon="3.97435">
        <ele>67.875618</ele>
        <time>2020-01-09T20:41:52.135Z</time>
      </trkpt>
      <trkpt lat="43.69519" lon="3.97467">
        <ele>67.666533</ele>
        <time>2020-01-09T20:42:01.919Z</time>
      </trkpt>
      <trkpt lat="43.69514" lon="3.9748">
        <ele>67.574884</ele>
        <time>2020-01-09T20:42:06.321Z</time>
      </trkpt>
      <trkpt lat="43.69505" lon="3.97493">
        <ele>67.468524</ele>
        <time>2020-01-09T20:42:11.359Z</time>
      </trkpt>
      <trkpt lat="43.69499" lon="3.97502">
        <ele>67.397238</ele>
        <time>2020-01-09T20:42:14.671Z</time>
      </trkpt>
      <trkpt lat="43.69472" lon="3.97544">
        <ele>67.050741</ele>
        <time>2020-01-09T20:42:31.250Z</time>
      </trkpt>
      <trkpt lat="43.69458" lon="3.97578">
        <ele>66.817331</ele>
        <time>2020-01-09T20:42:42.523Z</time>
      </trkpt>
      <trkpt lat="43.69453" lon="3.97611">
        <ele>66.60905</ele>
        <time>2020-01-09T20:42:52.615Z</time>
      </trkpt>
      <trkpt lat="43.69449" lon="3.97633">
        <ele>66.475275</ele>
        <time>2020-01-09T20:42:59.103Z</time>
      </trkpt>
      <trkpt lat="43.69445" lon="3.97688">
        <ele>66.632088</ele>
        <time>2020-01-09T20:43:15.793Z</time>
      </trkpt>
      <trkpt lat="43.69434" lon="3.97709">
        <ele>66.82183</ele>
        <time>2020-01-09T20:43:23.546Z</time>
      </trkpt>
      <trkpt lat="43.69432" lon="3.97714">
        <ele>66.867767</ele>
        <time>2020-01-09T20:43:25.607Z</time>
      </trkpt>
      <trkpt lat="43.69422" lon="3.97742">
        <ele>67.094786</ele>
        <time>2020-01-09T20:43:34.983Z</time>
      </trkpt>
      <trkpt lat="43.6942" lon="3.97804">
        <ele>67.554225</ele>
        <time>2020-01-09T20:43:54.258Z</time>
      </trkpt>
      <trkpt lat="43.69404" lon="3.97846">
        <ele>67.89518</ele>
        <time>2020-01-09T20:44:08.872Z</time>
      </trkpt>
      <trkpt lat="43.69406" lon="3.97873">
        <ele>68.097461</ele>
        <time>2020-01-09T20:44:17.805Z</time>
      </trkpt>
      <trkpt lat="43.69399" lon="3.97951">
        <ele>69.522876</ele>
        <time>2020-01-09T20:44:42.783Z</time>
      </trkpt>
      <trkpt lat="43.69378" lon="3.98039">
        <ele>71.421173</ele>
        <time>2020-01-09T20:45:13.599Z</time>
      </trkpt>
      <trkpt lat="43.69381" lon="3.98048">
        <ele>71.624637</ele>
        <time>2020-01-09T20:45:17.194Z</time>
      </trkpt>
      <trkpt lat="43.69391" lon="3.98044">
        <ele>71.920214</ele>
        <time>2020-01-09T20:45:22.228Z</time>
      </trkpt>
      <trkpt lat="43.694" lon="3.98044">
        <ele>72.165396</ele>
        <time>2020-01-09T20:45:26.161Z</time>
      </trkpt>
      <trkpt lat="43.69411" lon="3.98053">
        <ele>72.528429</ele>
        <time>2020-01-09T20:45:32.467Z</time>
      </trkpt>
      <trkpt lat="43.69429" lon="3.98067">
        <ele>73.108599</ele>
        <time>2020-01-09T20:45:42.232Z</time>
      </trkpt>
      <trkpt lat="43.69441" lon="3.98068">
        <ele>73.459725</ele>
        <time>2020-01-09T20:45:47.985Z</time>
      </trkpt>
      <trkpt lat="43.69449" lon="3.98073">
        <ele>73.719378</ele>
        <time>2020-01-09T20:45:52.559Z</time>
      </trkpt>
      <trkpt lat="43.69469" lon="3.98085">
        <ele>74.339726</ele>
        <time>2020-01-09T20:46:02.463Z</time>
      </trkpt>
      <trkpt lat="43.69477" lon="3.9809">
        <ele>74.582465</ele>
        <time>2020-01-09T20:46:06.751Z</time>
      </trkpt>
      <trkpt lat="43.69509" lon="3.98107">
        <ele>75.577545</ele>
        <time>2020-01-09T20:46:23.055Z</time>
      </trkpt>
      <trkpt lat="43.69516" lon="3.98131">
        <ele>76.11724</ele>
        <time>2020-01-09T20:46:32.063Z</time>
      </trkpt>
      <trkpt lat="43.69537" lon="3.98151">
        <ele>76.839402</ele>
        <time>2020-01-09T20:46:43.675Z</time>
      </trkpt>
      <trkpt lat="43.69563" lon="3.98181">
        <ele>77.812537</ele>
        <time>2020-01-09T20:46:58.742Z</time>
      </trkpt>
      <trkpt lat="43.69581" lon="3.98223">
        <ele>78.360574</ele>
        <time>2020-01-09T20:47:14.213Z</time>
      </trkpt>
      <trkpt lat="43.69582" lon="3.98223">
        <ele>78.359028</ele>
        <time>2020-01-09T20:47:14.397Z</time>
      </trkpt>
      <trkpt lat="43.69606" lon="3.98253">
        <ele>78.217657</ele>
        <time>2020-01-09T20:47:27.771Z</time>
      </trkpt>
      <trkpt lat="43.69602" lon="3.98287">
        <ele>78.107549</ele>
        <time>2020-01-09T20:47:38.248Z</time>
      </trkpt>
      <trkpt lat="43.6961" lon="3.98288">
        <ele>78.071767</ele>
        <time>2020-01-09T20:47:41.523Z</time>
      </trkpt>
      <trkpt lat="43.69637" lon="3.98292">
        <ele>77.953389</ele>
        <time>2020-01-09T20:47:52.328Z</time>
      </trkpt>
      <trkpt lat="43.69655" lon="3.98294">
        <ele>77.874325</ele>
        <time>2020-01-09T20:47:59.389Z</time>
      </trkpt>
      <trkpt lat="43.69732" lon="3.9828">
        <ele>77.227469</ele>
        <time>2020-01-09T20:48:30.283Z</time>
      </trkpt>
      <trkpt lat="43.69821" lon="3.98262">
        <ele>75.657865</ele>
        <time>2020-01-09T20:49:05.204Z</time>
      </trkpt>
      <trkpt lat="43.69845" lon="3.98258">
        <ele>75.229999</ele>
        <time>2020-01-09T20:49:14.807Z</time>
      </trkpt>
      <trkpt lat="43.69887" lon="3.98239">
        <ele>74.455756</ele>
        <time>2020-01-09T20:49:32.382Z</time>
      </trkpt>
      <trkpt lat="43.69897" lon="3.98228">
        <ele>74.295636</ele>
        <time>2020-01-09T20:49:38.327Z</time>
      </trkpt>
      <trkpt lat="43.69918" lon="3.98211">
        <ele>73.994494</ele>
        <time>2020-01-09T20:49:49.658Z</time>
      </trkpt>
      <trkpt lat="43.70007" lon="3.98181">
        <ele>72.864814</ele>
        <time>2020-01-09T20:50:32.231Z</time>
      </trkpt>
      <trkpt lat="43.70039" lon="3.98179">
        <ele>72.467507</ele>
        <time>2020-01-09T20:50:47.408Z</time>
      </trkpt>
      <trkpt lat="43.70041" lon="3.9818">
        <ele>72.440983</ele>
        <time>2020-01-09T20:50:48.355Z</time>
      </trkpt>
      <trkpt lat="43.70057" lon="3.98259">
        <ele>72.424121</ele>
        <time>2020-01-09T20:51:16.782Z</time>
      </trkpt>
      <trkpt lat="43.70066" lon="3.98285">
        <ele>72.512478</ele>
        <time>2020-01-09T20:51:27.191Z</time>
      </trkpt>
      <trkpt lat="43.70077" lon="3.98299">
        <ele>72.571476</ele>
        <time>2020-01-09T20:51:34.238Z</time>
      </trkpt>
      <trkpt lat="43.70154" lon="3.98319">
        <ele>72.890634</ele>
        <time>2020-01-09T20:52:12.563Z</time>
      </trkpt>
      <trkpt lat="43.70162" lon="3.98336">
        <ele>72.952282</ele>
        <time>2020-01-09T20:52:20.171Z</time>
      </trkpt>
      <trkpt lat="43.70173" lon="3.98344">
        <ele>73.148277</ele>
        <time>2020-01-09T20:52:26.498Z</time>
      </trkpt>
      <trkpt lat="43.70206" lon="3.98342">
        <ele>74.225792</ele>
        <time>2020-01-09T20:52:43.336Z</time>
      </trkpt>
      <trkpt lat="43.70226" lon="3.98331">
        <ele>74.962288</ele>
        <time>2020-01-09T20:52:55.582Z</time>
      </trkpt>
      <trkpt lat="43.70248" lon="3.9838">
        <ele>76.331801</ele>
        <time>2020-01-09T20:53:18.060Z</time>
      </trkpt>
      <trkpt lat="43.7026" lon="3.98423">
        <ele>77.453322</ele>
        <time>2020-01-09T20:53:36.791Z</time>
      </trkpt>
      <trkpt lat="43.70263" lon="3.98443">
        <ele>77.936515</ele>
        <time>2020-01-09T20:53:45.226Z</time>
      </trkpt>
      <trkpt lat="43.7027" lon="3.98445">
        <ele>78.173913</ele>
        <time>2020-01-09T20:53:49.692Z</time>
      </trkpt>
      <trkpt lat="43.70294" lon="3.98448">
        <ele>78.992575</ele>
        <time>2020-01-09T20:54:03.250Z</time>
      </trkpt>
      <trkpt lat="43.70303" lon="3.98449">
        <ele>79.457896</ele>
        <time>2020-01-09T20:54:09.866Z</time>
      </trkpt>
      <trkpt lat="43.70314" lon="3.98464">
        <ele>80.341707</ele>
        <time>2020-01-09T20:54:18.827Z</time>
      </trkpt>
      <trkpt lat="43.70319" lon="3.98494">
        <ele>81.567143</ele>
        <time>2020-01-09T20:54:33.286Z</time>
      </trkpt>
      <trkpt lat="43.70342" lon="3.98568">
        <ele>84.773511</ele>
        <time>2020-01-09T20:55:08.975Z</time>
      </trkpt>
      <trkpt lat="43.70365" lon="3.98616">
        <ele>87.051277</ele>
        <time>2020-01-09T20:55:35.180Z</time>
      </trkpt>
      <trkpt lat="43.70367" lon="3.98621">
        <ele>87.274507</ele>
        <time>2020-01-09T20:55:38.808Z</time>
      </trkpt>
      <trkpt lat="43.70387" lon="3.98643">
        <ele>88.683407</ele>
        <time>2020-01-09T20:55:53.279Z</time>
      </trkpt>
      <trkpt lat="43.7042" lon="3.98655">
        <ele>89.827691</ele>
        <time>2020-01-09T20:56:13.076Z</time>
      </trkpt>
      <trkpt lat="43.70435" lon="3.98654">
        <ele>90.271293</ele>
        <time>2020-01-09T20:56:21.404Z</time>
      </trkpt>
      <trkpt lat="43.70454" lon="3.98647">
        <ele>90.883485</ele>
        <time>2020-01-09T20:56:32.587Z</time>
      </trkpt>
      <trkpt lat="43.70472" lon="3.98636">
        <ele>91.497193</ele>
        <time>2020-01-09T20:56:43.838Z</time>
      </trkpt>
      <trkpt lat="43.70479" lon="3.98627">
        <ele>91.789289</ele>
        <time>2020-01-09T20:56:49.227Z</time>
      </trkpt>
      <trkpt lat="43.70506" lon="3.9859">
        <ele>92.957079</ele>
        <time>2020-01-09T20:57:09.629Z</time>
      </trkpt>
      <trkpt lat="43.70547" lon="3.9857">
        <ele>94.310949</ele>
        <time>2020-01-09T20:57:32.110Z</time>
      </trkpt>
      <trkpt lat="43.70559" lon="3.98563">
        <ele>94.29157</ele>
        <time>2020-01-09T20:57:38.224Z</time>
      </trkpt>
      <trkpt lat="43.70562" lon="3.98578">
        <ele>94.151711</ele>
        <time>2020-01-09T20:57:43.999Z</time>
      </trkpt>
      <trkpt lat="43.70587" lon="3.98665">
        <ele>93.288742</ele>
        <time>2020-01-09T20:58:16.305Z</time>
      </trkpt>
      <trkpt lat="43.70615" lon="3.98679">
        <ele>92.899845</ele>
        <time>2020-01-09T20:58:30.386Z</time>
      </trkpt>
      <trkpt lat="43.70641" lon="3.98729">
        <ele>92.336051</ele>
        <time>2020-01-09T20:58:50.514Z</time>
      </trkpt>
      <trkpt lat="43.70663" lon="3.98771">
        <ele>91.346774</ele>
        <time>2020-01-09T20:59:07.040Z</time>
      </trkpt>
      <trkpt lat="43.7067" lon="3.98795">
        <ele>90.628357</ele>
        <time>2020-01-09T20:59:15.904Z</time>
      </trkpt>
      <trkpt lat="43.70671" lon="3.98807">
        <ele>90.285948</ele>
        <time>2020-01-09T20:59:19.936Z</time>
      </trkpt>
      <trkpt lat="43.70672" lon="3.98819">
        <ele>89.969069</ele>
        <time>2020-01-09T20:59:23.177Z</time>
      </trkpt>
      <trkpt lat="43.70691" lon="3.98868">
        <ele>88.429556</ele>
        <time>2020-01-09T20:59:41.111Z</time>
      </trkpt>
      <trkpt lat="43.70711" lon="3.98891">
        <ele>87.42918</ele>
        <time>2020-01-09T20:59:52.924Z</time>
      </trkpt>
      <trkpt lat="43.70706" lon="3.98939">
        <ele>86.082123</ele>
        <time>2020-01-09T21:00:08.443Z</time>
      </trkpt>
      <trkpt lat="43.70711" lon="3.98945">
        <ele>85.852369</ele>
        <time>2020-01-09T21:00:10.707Z</time>
      </trkpt>
      <trkpt lat="43.70715" lon="3.98942">
        <ele>85.653822</ele>
        <time>2020-01-09T21:00:13.179Z</time>
      </trkpt>
      <trkpt lat="43.70742" lon="3.98922">
        <ele>84.597885</ele>
        <time>2020-01-09T21:00:26.272Z</time>
      </trkpt>
      <trkpt lat="43.70771" lon="3.98911">
        <ele>83.648588</ele>
        <time>2020-01-09T21:00:39.629Z</time>
      </trkpt>
      <trkpt lat="43.70822" lon="3.98928">
        <ele>81.919765</ele>
        <time>2020-01-09T21:01:03.328Z</time>
      </trkpt>
      <trkpt lat="43.70926" lon="3.98905">
        <ele>78.518167</ele>
        <time>2020-01-09T21:01:50.779Z</time>
      </trkpt>
      <trkpt lat="43.70945" lon="3.98904">
        <ele>77.899352</ele>
        <time>2020-01-09T21:01:59.442Z</time>
      </trkpt>
      <trkpt lat="43.70968" lon="3.98912">
        <ele>77.119904</ele>
        <time>2020-01-09T21:02:10.424Z</time>
      </trkpt>
      <trkpt lat="43.71035" lon="3.98937">
        <ele>74.895772</ele>
        <time>2020-01-09T21:02:41.471Z</time>
      </trkpt>
      <trkpt lat="43.71035" lon="3.98937">
        <ele>74.895772</ele>
        <time>2020-01-09T21:02:41.523Z</time>
      </trkpt>
      <trkpt lat="43.71046" lon="3.9894">
        <ele>74.549108</ele>
        <time>2020-01-09T21:02:46.267Z</time>
      </trkpt>
      <trkpt lat="43.71107" lon="3.98955">
        <ele>72.422433</ele>
        <time>2020-01-09T21:03:13.745Z</time>
      </trkpt>
      <trkpt lat="43.71133" lon="3.9897">
        <ele>71.413206</ele>
        <time>2020-01-09T21:03:26.057Z</time>
      </trkpt>
      <trkpt lat="43.71142" lon="3.9898">
        <ele>70.968469</ele>
        <time>2020-01-09T21:03:31.271Z</time>
      </trkpt>
      <trkpt lat="43.7115" lon="3.98988">
        <ele>70.631932</ele>
        <time>2020-01-09T21:03:34.698Z</time>
      </trkpt>
      <trkpt lat="43.71181" lon="3.99021">
        <ele>69.22588</ele>
        <time>2020-01-09T21:03:49.274Z</time>
      </trkpt>
      <trkpt lat="43.712" lon="3.99027">
        <ele>68.506759</ele>
        <time>2020-01-09T21:03:56.905Z</time>
      </trkpt>
      <trkpt lat="43.71211" lon="3.99032">
        <ele>68.067679</ele>
        <time>2020-01-09T21:04:01.378Z</time>
      </trkpt>
      <trkpt lat="43.71229" lon="3.99045">
        <ele>67.339779</ele>
        <time>2020-01-09T21:04:09.165Z</time>
      </trkpt>
      <trkpt lat="43.71234" lon="3.99046">
        <ele>67.153332</ele>
        <time>2020-01-09T21:04:11.049Z</time>
      </trkpt>
      <trkpt lat="43.71239" lon="3.99068">
        <ele>66.772313</ele>
        <time>2020-01-09T21:04:17.217Z</time>
      </trkpt>
      <trkpt lat="43.71266" lon="3.99247">
        <ele>63.797515</ele>
        <time>2020-01-09T21:05:08.474Z</time>
      </trkpt>
      <trkpt lat="43.71252" lon="3.99303">
        <ele>63.18842</ele>
        <time>2020-01-09T21:05:25.508Z</time>
      </trkpt>
      <trkpt lat="43.71243" lon="3.99324">
        <ele>63.379847</ele>
        <time>2020-01-09T21:05:32.713Z</time>
      </trkpt>
      <trkpt lat="43.71232" lon="3.99348">
        <ele>63.604078</ele>
        <time>2020-01-09T21:05:41.441Z</time>
      </trkpt>
      <trkpt lat="43.71228" lon="3.99361">
        <ele>63.716147</ele>
        <time>2020-01-09T21:05:45.657Z</time>
      </trkpt>
      <trkpt lat="43.71229" lon="3.9937">
        <ele>63.789411</ele>
        <time>2020-01-09T21:05:48.636Z</time>
      </trkpt>
      <trkpt lat="43.71253" lon="3.9945">
        <ele>64.469899</ele>
        <time>2020-01-09T21:06:15.712Z</time>
      </trkpt>
      <trkpt lat="43.71273" lon="3.99498">
        <ele>64.905803</ele>
        <time>2020-01-09T21:06:33.568Z</time>
      </trkpt>
      <trkpt lat="43.71279" lon="3.99506">
        <ele>64.995405</ele>
        <time>2020-01-09T21:06:37.526Z</time>
      </trkpt>
      <trkpt lat="43.71294" lon="3.99514">
        <ele>65.399971</ele>
        <time>2020-01-09T21:06:45.116Z</time>
      </trkpt>
      <trkpt lat="43.71341" lon="3.99526">
        <ele>66.734459</ele>
        <time>2020-01-09T21:07:06.920Z</time>
      </trkpt>
      <trkpt lat="43.71355" lon="3.9954">
        <ele>67.225568</ele>
        <time>2020-01-09T21:07:15.269Z</time>
      </trkpt>
      <trkpt lat="43.71362" lon="3.99548">
        <ele>67.483113</ele>
        <time>2020-01-09T21:07:19.661Z</time>
      </trkpt>
      <trkpt lat="43.71435" lon="3.9971">
        <ele>70.640052</ele>
        <time>2020-01-09T21:08:22.713Z</time>
      </trkpt>
      <trkpt lat="43.71442" lon="3.99725">
        <ele>70.800849</ele>
        <time>2020-01-09T21:08:28.502Z</time>
      </trkpt>
      <trkpt lat="43.71464" lon="3.99772">
        <ele>71.297197</ele>
        <time>2020-01-09T21:08:45.631Z</time>
      </trkpt>
      <trkpt lat="43.71464" lon="3.99772">
        <ele>71.300129</ele>
        <time>2020-01-09T21:08:45.786Z</time>
      </trkpt>
      <trkpt lat="43.71469" lon="3.99776">
        <ele>71.36803</ele>
        <time>2020-01-09T21:08:48.082Z</time>
      </trkpt>
      <trkpt lat="43.71485" lon="3.99777">
        <ele>71.570814</ele>
        <time>2020-01-09T21:08:55.020Z</time>
      </trkpt>
      <trkpt lat="43.71486" lon="3.9978">
        <ele>71.59876</ele>
        <time>2020-01-09T21:08:56.000Z</time>
      </trkpt>
      <trkpt lat="43.7149" lon="3.99787">
        <ele>71.679928</ele>
        <time>2020-01-09T21:08:58.719Z</time>
      </trkpt>
      <trkpt lat="43.71493" lon="3.99788">
        <ele>71.707645</ele>
        <time>2020-01-09T21:08:59.656Z</time>
      </trkpt>
      <trkpt lat="43.71491" lon="3.99831">
        <ele>72.094068</ele>
        <time>2020-01-09T21:09:12.842Z</time>
      </trkpt>
      <trkpt lat="43.7149" lon="3.99876">
        <ele>72.383935</ele>
        <time>2020-01-09T21:09:26.408Z</time>
      </trkpt>
      <trkpt lat="43.71492" lon="3.999">
        <ele>72.478071</ele>
        <time>2020-01-09T21:09:33.427Z</time>
      </trkpt>
      <trkpt lat="43.71505" lon="3.99946">
        <ele>72.674408</ele>
        <time>2020-01-09T21:09:48.179Z</time>
      </trkpt>
      <trkpt lat="43.71506" lon="3.9996">
        <ele>72.730653</ele>
        <time>2020-01-09T21:09:52.414Z</time>
      </trkpt>
      <trkpt lat="43.71505" lon="3.99977">
        <ele>72.799767</ele>
        <time>2020-01-09T21:09:57.672Z</time>
      </trkpt>
      <trkpt lat="43.71502" lon="3.99992">
        <ele>72.861416</ele>
        <time>2020-01-09T21:10:02.285Z</time>
      </trkpt>
      <trkpt lat="43.71494" lon="4.00026">
        <ele>73.002201</ele>
        <time>2020-01-09T21:10:13.084Z</time>
      </trkpt>
      <trkpt lat="43.71469" lon="4.00089">
        <ele>73.301563</ele>
        <time>2020-01-09T21:10:35.022Z</time>
      </trkpt>
      <trkpt lat="43.7144" lon="4.00141">
        <ele>74.30093</ele>
        <time>2020-01-09T21:10:55.702Z</time>
      </trkpt>
      <trkpt lat="43.71419" lon="4.00177">
        <ele>75.007767</ele>
        <time>2020-01-09T21:11:10.835Z</time>
      </trkpt>
      <trkpt lat="43.7141" lon="4.00187">
        <ele>75.253843</ele>
        <time>2020-01-09T21:11:16.099Z</time>
      </trkpt>
      <trkpt lat="43.71388" lon="4.00218">
        <ele>75.930121</ele>
        <time>2020-01-09T21:11:30.649Z</time>
      </trkpt>
      <trkpt lat="43.71367" lon="4.00243">
        <ele>76.513764</ele>
        <time>2020-01-09T21:11:43.101Z</time>
      </trkpt>
      <trkpt lat="43.71356" lon="4.00266">
        <ele>76.938136</ele>
        <time>2020-01-09T21:11:52.000Z</time>
      </trkpt>
      <trkpt lat="43.71347" lon="4.00295">
        <ele>77.230414</ele>
        <time>2020-01-09T21:12:02.258Z</time>
      </trkpt>
      <trkpt lat="43.71348" lon="4.00311">
        <ele>77.340132</ele>
        <time>2020-01-09T21:12:07.582Z</time>
      </trkpt>
      <trkpt lat="43.71348" lon="4.00317">
        <ele>77.379029</ele>
        <time>2020-01-09T21:12:09.632Z</time>
      </trkpt>
      <trkpt lat="43.71346" lon="4.00324">
        <ele>77.42893</ele>
        <time>2020-01-09T21:12:12.207Z</time>
      </trkpt>
      <trkpt lat="43.71327" lon="4.00358">
        <ele>77.713307</ele>
        <time>2020-01-09T21:12:26.290Z</time>
      </trkpt>
      <trkpt lat="43.71318" lon="4.00382">
        <ele>77.887505</ele>
        <time>2020-01-09T21:12:34.379Z</time>
      </trkpt>
      <trkpt lat="43.71297" lon="4.00433">
        <ele>78.280868</ele>
        <time>2020-01-09T21:12:52.479Z</time>
      </trkpt>
      <trkpt lat="43.71294" lon="4.00438">
        <ele>78.320939</ele>
        <time>2020-01-09T21:12:54.292Z</time>
      </trkpt>
      <trkpt lat="43.71289" lon="4.00436">
        <ele>78.365321</ele>
        <time>2020-01-09T21:12:56.472Z</time>
      </trkpt>
      <trkpt lat="43.71281" lon="4.00441">
        <ele>78.447944</ele>
        <time>2020-01-09T21:13:00.218Z</time>
      </trkpt>
      <trkpt lat="43.7125" lon="4.00449">
        <ele>78.720856</ele>
        <time>2020-01-09T21:13:13.124Z</time>
      </trkpt>
      <trkpt lat="43.71243" lon="4.00449">
        <ele>78.555909</ele>
        <time>2020-01-09T21:13:15.750Z</time>
      </trkpt>
      <trkpt lat="43.71223" lon="4.0045">
        <ele>78.073316</ele>
        <time>2020-01-09T21:13:23.604Z</time>
      </trkpt>
      <trkpt lat="43.71216" lon="4.00449">
        <ele>77.889907</ele>
        <time>2020-01-09T21:13:26.685Z</time>
      </trkpt>
      <trkpt lat="43.71198" lon="4.00446">
        <ele>77.456589</ele>
        <time>2020-01-09T21:13:33.570Z</time>
      </trkpt>
      <trkpt lat="43.71131" lon="4.00449">
        <ele>75.831484</ele>
        <time>2020-01-09T21:13:59.530Z</time>
      </trkpt>
      <trkpt lat="43.71107" lon="4.00457">
        <ele>75.240687</ele>
        <time>2020-01-09T21:14:08.857Z</time>
      </trkpt>
      <trkpt lat="43.70997" lon="4.00529">
        <ele>71.48039</ele>
        <time>2020-01-09T21:14:54.752Z</time>
      </trkpt>
      <trkpt lat="43.70961" lon="4.0053">
        <ele>70.286049</ele>
        <time>2020-01-09T21:15:08.310Z</time>
      </trkpt>
      <trkpt lat="43.70924" lon="4.0052">
        <ele>69.024549</ele>
        <time>2020-01-09T21:15:22.733Z</time>
      </trkpt>
      <trkpt lat="43.70926" lon="4.00508">
        <ele>68.740069</ele>
        <time>2020-01-09T21:15:25.980Z</time>
      </trkpt>
      <trkpt lat="43.70923" lon="4.00502">
        <ele>68.569194</ele>
        <time>2020-01-09T21:15:27.919Z</time>
      </trkpt>
      <trkpt lat="43.70914" lon="4.00498">
        <ele>68.282173</ele>
        <time>2020-01-09T21:15:31.605Z</time>
      </trkpt>
      <trkpt lat="43.70843" lon="4.00475">
        <ele>66.595736</ele>
        <time>2020-01-09T21:15:59.639Z</time>
      </trkpt>
      <trkpt lat="43.70791" lon="4.00457">
        <ele>65.34785</ele>
        <time>2020-01-09T21:16:20.742Z</time>
      </trkpt>
      <trkpt lat="43.70791" lon="4.00457">
        <ele>65.34785</ele>
        <time>2020-01-09T21:16:20.772Z</time>
      </trkpt>
      <trkpt lat="43.70792" lon="4.00449">
        <ele>65.205087</ele>
        <time>2020-01-09T21:16:23.161Z</time>
      </trkpt>
      <trkpt lat="43.70819" lon="4.00359">
        <ele>63.635652</ele>
        <time>2020-01-09T21:16:50.617Z</time>
      </trkpt>
      <trkpt lat="43.70848" lon="4.00259">
        <ele>61.992946</ele>
        <time>2020-01-09T21:17:21.168Z</time>
      </trkpt>
      <trkpt lat="43.70853" lon="4.0023">
        <ele>61.539319</ele>
        <time>2020-01-09T21:17:29.552Z</time>
      </trkpt>
      <trkpt lat="43.70852" lon="4.00199">
        <ele>61.062189</ele>
        <time>2020-01-09T21:17:38.387Z</time>
      </trkpt>
      <trkpt lat="43.70824" lon="4.00193">
        <ele>60.460757</ele>
        <time>2020-01-09T21:17:49.508Z</time>
      </trkpt>
      <trkpt lat="43.70787" lon="4.00186">
        <ele>59.791474</ele>
        <time>2020-01-09T21:18:04.228Z</time>
      </trkpt>
      <trkpt lat="43.70754" lon="4.0018">
        <ele>59.213188</ele>
        <time>2020-01-09T21:18:17.156Z</time>
      </trkpt>
      <trkpt lat="43.70758" lon="4.00156">
        <ele>58.896326</ele>
        <time>2020-01-09T21:18:24.182Z</time>
      </trkpt>
      <trkpt lat="43.70702" lon="4.0012">
        <ele>57.828628</ele>
        <time>2020-01-09T21:18:48.511Z</time>
      </trkpt>
      <trkpt lat="43.70699" lon="4.00108">
        <ele>57.669073</ele>
        <time>2020-01-09T21:18:52.128Z</time>
      </trkpt>
      <trkpt lat="43.70702" lon="4.00059">
        <ele>57.264079</ele>
        <time>2020-01-09T21:19:06.365Z</time>
      </trkpt>
      <trkpt lat="43.70672" lon="4.00038">
        <ele>57.249719</ele>
        <time>2020-01-09T21:19:20.181Z</time>
      </trkpt>
      <trkpt lat="43.70667" lon="4.00037">
        <ele>57.247715</ele>
        <time>2020-01-09T21:19:21.981Z</time>
      </trkpt>
      <trkpt lat="43.70654" lon="4.00033">
        <ele>57.242169</ele>
        <time>2020-01-09T21:19:27.553Z</time>
      </trkpt>
      <trkpt lat="43.70638" lon="4.00014">
        <ele>57.232991</ele>
        <time>2020-01-09T21:19:36.378Z</time>
      </trkpt>
      <trkpt lat="43.70623" lon="4.00006">
        <ele>57.226251</ele>
        <time>2020-01-09T21:19:43.160Z</time>
      </trkpt>
      <trkpt lat="43.70605" lon="4.00012">
        <ele>57.218309</ele>
        <time>2020-01-09T21:19:50.832Z</time>
      </trkpt>
      <trkpt lat="43.70588" lon="4.00018">
        <ele>57.210849</ele>
        <time>2020-01-09T21:19:58.276Z</time>
      </trkpt>
      <trkpt lat="43.70568" lon="4.00015">
        <ele>57.202252</ele>
        <time>2020-01-09T21:20:06.608Z</time>
      </trkpt>
      <trkpt lat="43.70564" lon="4.00012">
        <ele>57.200305</ele>
        <time>2020-01-09T21:20:08.608Z</time>
      </trkpt>
      <trkpt lat="43.70553" lon="4.00018">
        <ele>57.195207</ele>
        <time>2020-01-09T21:20:14.581Z</time>
      </trkpt>
      <trkpt lat="43.70511" lon="4.00027">
        <ele>57.00772</ele>
        <time>2020-01-09T21:20:34.745Z</time>
      </trkpt>
      <trkpt lat="43.7044" lon="4.00016">
        <ele>56.647828</ele>
        <time>2020-01-09T21:21:09.012Z</time>
      </trkpt>
      <trkpt lat="43.70417" lon="4.00024">
        <ele>56.529126</ele>
        <time>2020-01-09T21:21:20.144Z</time>
      </trkpt>
      <trkpt lat="43.70407" lon="4.00025">
        <ele>56.476114</ele>
        <time>2020-01-09T21:21:25.202Z</time>
      </trkpt>
      <trkpt lat="43.70398" lon="4.00039">
        <ele>56.408709</ele>
        <time>2020-01-09T21:21:31.336Z</time>
      </trkpt>
      <trkpt lat="43.70376" lon="4.00074">
        <ele>56.223033</ele>
        <time>2020-01-09T21:21:47.153Z</time>
      </trkpt>
      <trkpt lat="43.70338" lon="4.00159">
        <ele>55.733129</ele>
        <time>2020-01-09T21:22:21.219Z</time>
      </trkpt>
      <trkpt lat="43.70337" lon="4.00166">
        <ele>55.699805</ele>
        <time>2020-01-09T21:22:23.419Z</time>
      </trkpt>
      <trkpt lat="43.70336" lon="4.00165">
        <ele>55.693127</ele>
        <time>2020-01-09T21:22:23.964Z</time>
      </trkpt>
      <trkpt lat="43.70237" lon="4.00096">
        <ele>55.132493</ele>
        <time>2020-01-09T21:23:17.202Z</time>
      </trkpt>
      <trkpt lat="43.70206" lon="4.00065">
        <ele>55.258597</ele>
        <time>2020-01-09T21:23:36.168Z</time>
      </trkpt>
      <trkpt lat="43.70201" lon="4.00059">
        <ele>55.27992</ele>
        <time>2020-01-09T21:23:39.555Z</time>
      </trkpt>
      <trkpt lat="43.70181" lon="4.00038">
        <ele>55.360773</ele>
        <time>2020-01-09T21:23:51.700Z</time>
      </trkpt>
      <trkpt lat="43.70181" lon="4.00037">
        <ele>55.363103</ele>
        <time>2020-01-09T21:23:52.060Z</time>
      </trkpt>
      <trkpt lat="43.70173" lon="4.00025">
        <ele>55.401266</ele>
        <time>2020-01-09T21:23:58.009Z</time>
      </trkpt>
      <trkpt lat="43.70164" lon="4.00023">
        <ele>55.430872</ele>
        <time>2020-01-09T21:24:02.387Z</time>
      </trkpt>
      <trkpt lat="43.70156" lon="4.00028">
        <ele>55.460317</ele>
        <time>2020-01-09T21:24:06.829Z</time>
      </trkpt>
      <trkpt lat="43.70149" lon="4.00034">
        <ele>55.488287</ele>
        <time>2020-01-09T21:24:11.033Z</time>
      </trkpt>
      <trkpt lat="43.70141" lon="4.00032">
        <ele>55.513074</ele>
        <time>2020-01-09T21:24:14.888Z</time>
      </trkpt>
      <trkpt lat="43.70105" lon="3.99993">
        <ele>55.658079</ele>
        <time>2020-01-09T21:24:37.109Z</time>
      </trkpt>
      <trkpt lat="43.70085" lon="3.99983">
        <ele>55.634198</ele>
        <time>2020-01-09T21:24:47.545Z</time>
      </trkpt>
      <trkpt lat="43.70036" lon="3.99957">
        <ele>55.57632</ele>
        <time>2020-01-09T21:25:12.666Z</time>
      </trkpt>
      <trkpt lat="43.70024" lon="3.99946">
        <ele>55.560539</ele>
        <time>2020-01-09T21:25:19.617Z</time>
      </trkpt>
      <trkpt lat="43.70008" lon="3.99923">
        <ele>55.535051</ele>
        <time>2020-01-09T21:25:30.670Z</time>
      </trkpt>
      <trkpt lat="43.69996" lon="3.99917">
        <ele>55.521389</ele>
        <time>2020-01-09T21:25:36.617Z</time>
      </trkpt>
      <trkpt lat="43.69985" lon="3.99923">
        <ele>55.507861</ele>
        <time>2020-01-09T21:25:42.459Z</time>
      </trkpt>
      <trkpt lat="43.69966" lon="3.99915">
        <ele>55.486339</ele>
        <time>2020-01-09T21:25:51.716Z</time>
      </trkpt>
      <trkpt lat="43.6982" lon="3.99879">
        <ele>55.871347</ele>
        <time>2020-01-09T21:27:03.578Z</time>
      </trkpt>
      <trkpt lat="43.69799" lon="3.99868">
        <ele>55.942978</ele>
        <time>2020-01-09T21:27:14.790Z</time>
      </trkpt>
      <trkpt lat="43.6979" lon="3.99846">
        <ele>56.00209</ele>
        <time>2020-01-09T21:27:23.806Z</time>
      </trkpt>
      <trkpt lat="43.69772" lon="3.99822">
        <ele>56.147319</ele>
        <time>2020-01-09T21:27:36.760Z</time>
      </trkpt>
      <trkpt lat="43.69733" lon="3.99802">
        <ele>56.512496</ele>
        <time>2020-01-09T21:27:57.699Z</time>
      </trkpt>
      <trkpt lat="43.69685" lon="3.99798">
        <ele>56.934971</ele>
        <time>2020-01-09T21:28:21.802Z</time>
      </trkpt>
      <trkpt lat="43.69676" lon="3.99793">
        <ele>57.013343</ele>
        <time>2020-01-09T21:28:26.439Z</time>
      </trkpt>
      <trkpt lat="43.69639" lon="3.99803">
        <ele>57.34256</ele>
        <time>2020-01-09T21:28:42.358Z</time>
      </trkpt>
      <trkpt lat="43.69585" lon="3.99792">
        <ele>57.678601</ele>
        <time>2020-01-09T21:29:09.617Z</time>
      </trkpt>
      <trkpt lat="43.69554" lon="3.99781">
        <ele>57.750768</ele>
        <time>2020-01-09T21:29:24.966Z</time>
      </trkpt>
      <trkpt lat="43.69475" lon="3.99735">
        <ele>57.949702</ele>
        <time>2020-01-09T21:30:06.551Z</time>
      </trkpt>
      <trkpt lat="43.69396" lon="3.99676">
        <ele>58.475132</ele>
        <time>2020-01-09T21:30:49.972Z</time>
      </trkpt>
      <trkpt lat="43.69379" lon="3.99652">
        <ele>58.692344</ele>
        <time>2020-01-09T21:31:02.467Z</time>
      </trkpt>
      <trkpt lat="43.69372" lon="3.99646">
        <ele>58.763294</ele>
        <time>2020-01-09T21:31:05.914Z</time>
      </trkpt>
      <trkpt lat="43.69347" lon="3.99617">
        <ele>59.04748</ele>
        <time>2020-01-09T21:31:19.836Z</time>
      </trkpt>
      <trkpt lat="43.6934" lon="3.99612">
        <ele>59.112854</ele>
        <time>2020-01-09T21:31:23.023Z</time>
      </trkpt>
      <trkpt lat="43.6937" lon="3.99557">
        <ele>59.54649</ele>
        <time>2020-01-09T21:31:44.449Z</time>
      </trkpt>
      <trkpt lat="43.69392" lon="3.99512">
        <ele>60.090814</ele>
        <time>2020-01-09T21:32:01.508Z</time>
      </trkpt>
      <trkpt lat="43.69392" lon="3.99504">
        <ele>60.185486</ele>
        <time>2020-01-09T21:32:04.508Z</time>
      </trkpt>
      <trkpt lat="43.69391" lon="3.99498">
        <ele>60.250715</ele>
        <time>2020-01-09T21:32:06.370Z</time>
      </trkpt>
      <trkpt lat="43.69391" lon="3.99483">
        <ele>60.406274</ele>
        <time>2020-01-09T21:32:10.888Z</time>
      </trkpt>
      <trkpt lat="43.69405" lon="3.99414">
        <ele>61.185784</ele>
        <time>2020-01-09T21:32:33.694Z</time>
      </trkpt>
      <trkpt lat="43.69402" lon="3.99393">
        <ele>61.426296</ele>
        <time>2020-01-09T21:32:42.134Z</time>
      </trkpt>
      <trkpt lat="43.69401" lon="3.99327">
        <ele>62.140905</ele>
        <time>2020-01-09T21:33:06.208Z</time>
      </trkpt>
      <trkpt lat="43.69407" lon="3.99309">
        <ele>62.322636</ele>
        <time>2020-01-09T21:33:13.562Z</time>
      </trkpt>
      <trkpt lat="43.69403" lon="3.99306">
        <ele>62.34431</ele>
        <time>2020-01-09T21:33:15.556Z</time>
      </trkpt>
      <trkpt lat="43.69319" lon="3.99241">
        <ele>62.848303</ele>
        <time>2020-01-09T21:34:03.081Z</time>
      </trkpt>
      <trkpt lat="43.69199" lon="3.99148">
        <ele>62.92422</ele>
        <time>2020-01-09T21:35:10.127Z</time>
      </trkpt>
      <trkpt lat="43.69176" lon="3.99127">
        <ele>62.776729</ele>
        <time>2020-01-09T21:35:23.506Z</time>
      </trkpt>
      <trkpt lat="43.69148" lon="3.99136">
        <ele>62.627657</ele>
        <time>2020-01-09T21:35:36.721Z</time>
      </trkpt>
      <trkpt lat="43.69124" lon="3.99141">
        <ele>62.498481</ele>
        <time>2020-01-09T21:35:48.156Z</time>
      </trkpt>
      <trkpt lat="43.69108" lon="3.99149">
        <ele>62.404582</ele>
        <time>2020-01-09T21:35:56.413Z</time>
      </trkpt>
      <trkpt lat="43.69097" lon="3.99154">
        <ele>62.34467</ele>
        <time>2020-01-09T21:36:01.671Z</time>
      </trkpt>
      <trkpt lat="43.6907" lon="3.99147">
        <ele>61.924811</ele>
        <time>2020-01-09T21:36:14.605Z</time>
      </trkpt>
      <trkpt lat="43.69041" lon="3.99171">
        <ele>61.237562</ele>
        <time>2020-01-09T21:36:30.196Z</time>
      </trkpt>
      <trkpt lat="43.69021" lon="3.99178">
        <ele>60.802668</ele>
        <time>2020-01-09T21:36:39.973Z</time>
      </trkpt>
      <trkpt lat="43.69006" lon="3.99191">
        <ele>60.43339</ele>
        <time>2020-01-09T21:36:48.147Z</time>
      </trkpt>
      <trkpt lat="43.6899" lon="3.99202">
        <ele>60.069441</ele>
        <time>2020-01-09T21:36:56.255Z</time>
      </trkpt>
      <trkpt lat="43.68964" lon="3.99203">
        <ele>59.534047</ele>
        <time>2020-01-09T21:37:08.001Z</time>
      </trkpt>
      <trkpt lat="43.68914" lon="3.99244">
        <ele>58.328668</ele>
        <time>2020-01-09T21:37:34.344Z</time>
      </trkpt>
      <trkpt lat="43.68887" lon="3.99274">
        <ele>57.573308</ele>
        <time>2020-01-09T21:37:50.295Z</time>
      </trkpt>
      <trkpt lat="43.68876" lon="3.99275">
        <ele>57.346677</ele>
        <time>2020-01-09T21:37:54.941Z</time>
      </trkpt>
      <trkpt lat="43.68851" lon="3.99257">
        <ele>56.748363</ele>
        <time>2020-01-09T21:38:07.768Z</time>
      </trkpt>
      <trkpt lat="43.68821" lon="3.99232">
        <ele>55.981815</ele>
        <time>2020-01-09T21:38:24.092Z</time>
      </trkpt>
      <trkpt lat="43.688" lon="3.99227">
        <ele>55.533166</ele>
        <time>2020-01-09T21:38:33.659Z</time>
      </trkpt>
      <trkpt lat="43.68777" lon="3.99208">
        <ele>54.944723</ele>
        <time>2020-01-09T21:38:46.224Z</time>
      </trkpt>
      <trkpt lat="43.68752" lon="3.99167">
        <ele>54.414723</ele>
        <time>2020-01-09T21:39:04.208Z</time>
      </trkpt>
      <trkpt lat="43.68745" lon="3.99152">
        <ele>54.277683</ele>
        <time>2020-01-09T21:39:10.238Z</time>
      </trkpt>
      <trkpt lat="43.68729" lon="3.99112">
        <ele>53.925449</ele>
        <time>2020-01-09T21:39:25.865Z</time>
      </trkpt>
      <trkpt lat="43.68636" lon="3.99005">
        <ele>52.823031</ele>
        <time>2020-01-09T21:40:23.162Z</time>
      </trkpt>
      <trkpt lat="43.68591" lon="3.98964">
        <ele>52.895291</ele>
        <time>2020-01-09T21:40:48.735Z</time>
      </trkpt>
      <trkpt lat="43.68546" lon="3.98909">
        <ele>52.976975</ele>
        <time>2020-01-09T21:41:17.995Z</time>
      </trkpt>
      <trkpt lat="43.68545" lon="3.989">
        <ele>52.986076</ele>
        <time>2020-01-09T21:41:21.289Z</time>
      </trkpt>
      <trkpt lat="43.68535" lon="3.98896">
        <ele>53.000683</ele>
        <time>2020-01-09T21:41:26.788Z</time>
      </trkpt>
      <trkpt lat="43.68469" lon="3.98855">
        <ele>53.608962</ele>
        <time>2020-01-09T21:42:02.976Z</time>
      </trkpt>
      <trkpt lat="43.68458" lon="3.98847">
        <ele>53.790206</ele>
        <time>2020-01-09T21:42:09.277Z</time>
      </trkpt>
      <trkpt lat="43.68441" lon="3.98836">
        <ele>54.056798</ele>
        <time>2020-01-09T21:42:17.141Z</time>
      </trkpt>
      <trkpt lat="43.68415" lon="3.98817">
        <ele>54.484569</ele>
        <time>2020-01-09T21:42:29.729Z</time>
      </trkpt>
      <trkpt lat="43.68408" lon="3.98814">
        <ele>54.5913</ele>
        <time>2020-01-09T21:42:33.045Z</time>
      </trkpt>
      <trkpt lat="43.68397" lon="3.98811">
        <ele>54.764294</ele>
        <time>2020-01-09T21:42:38.287Z</time>
      </trkpt>
      <trkpt lat="43.68343" lon="3.98786">
        <ele>55.578082</ele>
        <time>2020-01-09T21:43:02.876Z</time>
      </trkpt>
      <trkpt lat="43.68325" lon="3.9877">
        <ele>56.081164</ele>
        <time>2020-01-09T21:43:12.796Z</time>
      </trkpt>
      <trkpt lat="43.68316" lon="3.98787">
        <ele>56.466171</ele>
        <time>2020-01-09T21:43:19.343Z</time>
      </trkpt>
      <trkpt lat="43.68311" lon="3.98796">
        <ele>56.692885</ele>
        <time>2020-01-09T21:43:23.375Z</time>
      </trkpt>
      <trkpt lat="43.68309" lon="3.98798">
        <ele>56.749336</ele>
        <time>2020-01-09T21:43:24.331Z</time>
      </trkpt>
      <trkpt lat="43.68302" lon="3.9879">
        <ele>56.979566</ele>
        <time>2020-01-09T21:43:28.377Z</time>
      </trkpt>
      <trkpt lat="43.68292" lon="3.98781">
        <ele>57.285038</ele>
        <time>2020-01-09T21:43:33.448Z</time>
      </trkpt>
      <trkpt lat="43.68283" lon="3.98773">
        <ele>57.574501</ele>
        <time>2020-01-09T21:43:38.690Z</time>
      </trkpt>
      <trkpt lat="43.68214" lon="3.98731">
        <ele>59.540802</ele>
        <time>2020-01-09T21:44:13.439Z</time>
      </trkpt>
      <trkpt lat="43.68157" lon="3.98709">
        <ele>61.159597</ele>
        <time>2020-01-09T21:44:40.530Z</time>
      </trkpt>
      <trkpt lat="43.68123" lon="3.98702">
        <ele>62.139979</ele>
        <time>2020-01-09T21:44:56.093Z</time>
      </trkpt>
      <trkpt lat="43.68117" lon="3.98701">
        <ele>62.325383</ele>
        <time>2020-01-09T21:44:59.137Z</time>
      </trkpt>
      <trkpt lat="43.68094" lon="3.98695">
        <ele>62.999681</ele>
        <time>2020-01-09T21:45:09.816Z</time>
      </trkpt>
      <trkpt lat="43.68088" lon="3.98692">
        <ele>63.193508</ele>
        <time>2020-01-09T21:45:12.889Z</time>
      </trkpt>
      <trkpt lat="43.68079" lon="3.98687">
        <ele>63.454965</ele>
        <time>2020-01-09T21:45:17.146Z</time>
      </trkpt>
      <trkpt lat="43.68057" lon="3.98671">
        <ele>64.169662</ele>
        <time>2020-01-09T21:45:28.409Z</time>
      </trkpt>
      <trkpt lat="43.68028" lon="3.98638">
        <ele>65.268675</ele>
        <time>2020-01-09T21:45:45.949Z</time>
      </trkpt>
      <trkpt lat="43.68005" lon="3.98606">
        <ele>65.872426</ele>
        <time>2020-01-09T21:46:01.378Z</time>
      </trkpt>
      <trkpt lat="43.68002" lon="3.98594">
        <ele>66.004495</ele>
        <time>2020-01-09T21:46:05.633Z</time>
      </trkpt>
      <trkpt lat="43.67989" lon="3.98567">
        <ele>66.330115</ele>
        <time>2020-01-09T21:46:15.854Z</time>
      </trkpt>
      <trkpt lat="43.67985" lon="3.98569">
        <ele>66.390184</ele>
        <time>2020-01-09T21:46:17.895Z</time>
      </trkpt>
      <trkpt lat="43.67973" lon="3.98572">
        <ele>66.569184</ele>
        <time>2020-01-09T21:46:23.345Z</time>
      </trkpt>
      <trkpt lat="43.67928" lon="3.98584">
        <ele>67.224705</ele>
        <time>2020-01-09T21:46:43.422Z</time>
      </trkpt>
      <trkpt lat="43.67922" lon="3.98587">
        <ele>67.323943</ele>
        <time>2020-01-09T21:46:46.464Z</time>
      </trkpt>
      <trkpt lat="43.67914" lon="3.98592">
        <ele>67.441278</ele>
        <time>2020-01-09T21:46:49.926Z</time>
      </trkpt>
      <trkpt lat="43.67894" lon="3.98592">
        <ele>67.730373</ele>
        <time>2020-01-09T21:46:58.084Z</time>
      </trkpt>
      <trkpt lat="43.67882" lon="3.98594">
        <ele>67.899072</ele>
        <time>2020-01-09T21:47:02.962Z</time>
      </trkpt>
      <trkpt lat="43.6788" lon="3.98594">
        <ele>67.930783</ele>
        <time>2020-01-09T21:47:03.872Z</time>
      </trkpt>
      <trkpt lat="43.67865" lon="3.98596">
        <ele>68.05319</ele>
        <time>2020-01-09T21:47:09.812Z</time>
      </trkpt>
      <trkpt lat="43.67851" lon="3.986">
        <ele>67.725521</ele>
        <time>2020-01-09T21:47:15.804Z</time>
      </trkpt>
      <trkpt lat="43.67843" lon="3.98603">
        <ele>67.537868</ele>
        <time>2020-01-09T21:47:19.160Z</time>
      </trkpt>
      <trkpt lat="43.67839" lon="3.98599">
        <ele>67.432355</ele>
        <time>2020-01-09T21:47:20.846Z</time>
      </trkpt>
      <trkpt lat="43.67812" lon="3.98569">
        <ele>66.648625</ele>
        <time>2020-01-09T21:47:34.626Z</time>
      </trkpt>
      <trkpt lat="43.67808" lon="3.98569">
        <ele>66.564259</ele>
        <time>2020-01-09T21:47:36.024Z</time>
      </trkpt>
      <trkpt lat="43.67808" lon="3.98569">
        <ele>66.564259</ele>
        <time>2020-01-09T21:47:36.045Z</time>
      </trkpt>
      <trkpt lat="43.67805" lon="3.9857">
        <ele>66.485375</ele>
        <time>2020-01-09T21:47:37.457Z</time>
      </trkpt>
      <trkpt lat="43.67793" lon="3.98576">
        <ele>66.212965</ele>
        <time>2020-01-09T21:47:42.213Z</time>
      </trkpt>
      <trkpt lat="43.67792" lon="3.98575">
        <ele>66.174246</ele>
        <time>2020-01-09T21:47:42.923Z</time>
      </trkpt>
      <trkpt lat="43.67789" lon="3.98575">
        <ele>66.103591</ele>
        <time>2020-01-09T21:47:44.153Z</time>
      </trkpt>
      <trkpt lat="43.67785" lon="3.98573">
        <ele>66.024559</ele>
        <time>2020-01-09T21:47:45.573Z</time>
      </trkpt>
      <trkpt lat="43.67779" lon="3.98567">
        <ele>65.843473</ele>
        <time>2020-01-09T21:47:48.581Z</time>
      </trkpt>
      <trkpt lat="43.67762" lon="3.98547">
        <ele>65.352335</ele>
        <time>2020-01-09T21:47:56.972Z</time>
      </trkpt>
      <trkpt lat="43.67759" lon="3.98544">
        <ele>65.257671</ele>
        <time>2020-01-09T21:47:58.591Z</time>
      </trkpt>
      <trkpt lat="43.67757" lon="3.98541">
        <ele>65.189201</ele>
        <time>2020-01-09T21:47:59.717Z</time>
      </trkpt>
      <trkpt lat="43.67754" lon="3.98543">
        <ele>65.125733</ele>
        <time>2020-01-09T21:48:00.801Z</time>
      </trkpt>
      <trkpt lat="43.67749" lon="3.98547">
        <ele>64.989674</ele>
        <time>2020-01-09T21:48:02.895Z</time>
      </trkpt>
      <trkpt lat="43.67723" lon="3.98558">
        <ele>64.375509</ele>
        <time>2020-01-09T21:48:13.202Z</time>
      </trkpt>
      <trkpt lat="43.67677" lon="3.98596">
        <ele>62.627727</ele>
        <time>2020-01-09T21:48:33.384Z</time>
      </trkpt>
      <trkpt lat="43.67671" lon="3.98596">
        <ele>62.423137</ele>
        <time>2020-01-09T21:48:35.534Z</time>
      </trkpt>
      <trkpt lat="43.67671" lon="3.98596">
        <ele>62.423137</ele>
        <time>2020-01-09T21:48:35.575Z</time>
      </trkpt>
      <trkpt lat="43.67671" lon="3.98599">
        <ele>62.353005</ele>
        <time>2020-01-09T21:48:36.345Z</time>
      </trkpt>
      <trkpt lat="43.67671" lon="3.98601">
        <ele>62.301</ele>
        <time>2020-01-09T21:48:36.942Z</time>
      </trkpt>
      <trkpt lat="43.67668" lon="3.98608">
        <ele>62.099173</ele>
        <time>2020-01-09T21:48:39.089Z</time>
      </trkpt>
      <trkpt lat="43.67657" lon="3.98636">
        <ele>61.277677</ele>
        <time>2020-01-09T21:48:47.601Z</time>
      </trkpt>
      <trkpt lat="43.67652" lon="3.98652">
        <ele>60.804025</ele>
        <time>2020-01-09T21:48:52.578Z</time>
      </trkpt>
      <trkpt lat="43.67645" lon="3.98671">
        <ele>60.27032</ele>
        <time>2020-01-09T21:48:58.159Z</time>
      </trkpt>
      <trkpt lat="43.67642" lon="3.98687">
        <ele>59.823092</ele>
        <time>2020-01-09T21:49:02.849Z</time>
      </trkpt>
      <trkpt lat="43.67645" lon="3.98743">
        <ele>58.389434</ele>
        <time>2020-01-09T21:49:18.272Z</time>
      </trkpt>
      <trkpt lat="43.67649" lon="3.98755">
        <ele>58.035302</ele>
        <time>2020-01-09T21:49:22.077Z</time>
      </trkpt>
      <trkpt lat="43.67656" lon="3.98761">
        <ele>57.750562</ele>
        <time>2020-01-09T21:49:25.117Z</time>
      </trkpt>
      <trkpt lat="43.67665" lon="3.9878">
        <ele>57.254531</ele>
        <time>2020-01-09T21:49:31.314Z</time>
      </trkpt>
      <trkpt lat="43.67671" lon="3.98788">
        <ele>57.017999</ele>
        <time>2020-01-09T21:49:34.585Z</time>
      </trkpt>
      <trkpt lat="43.67681" lon="3.98803">
        <ele>56.605873</ele>
        <time>2020-01-09T21:49:40.148Z</time>
      </trkpt>
      <trkpt lat="43.6768" lon="3.98808">
        <ele>56.4908</ele>
        <time>2020-01-09T21:49:41.677Z</time>
      </trkpt>
      <trkpt lat="43.67687" lon="3.9882">
        <ele>56.168349</ele>
        <time>2020-01-09T21:49:46.114Z</time>
      </trkpt>
      <trkpt lat="43.67682" lon="3.98836">
        <ele>55.826028</ele>
        <time>2020-01-09T21:49:50.810Z</time>
      </trkpt>
      <trkpt lat="43.67679" lon="3.98841">
        <ele>55.675525</ele>
        <time>2020-01-09T21:49:52.831Z</time>
      </trkpt>
      <trkpt lat="43.67674" lon="3.98854">
        <ele>55.376957</ele>
        <time>2020-01-09T21:49:56.866Z</time>
      </trkpt>
      <trkpt lat="43.67667" lon="3.98862">
        <ele>55.134317</ele>
        <time>2020-01-09T21:50:00.292Z</time>
      </trkpt>
      <trkpt lat="43.6765" lon="3.98882">
        <ele>54.516706</ele>
        <time>2020-01-09T21:50:08.749Z</time>
      </trkpt>
      <trkpt lat="43.67646" lon="3.98875">
        <ele>54.345643</ele>
        <time>2020-01-09T21:50:11.147Z</time>
      </trkpt>
      <trkpt lat="43.67609" lon="3.98916">
        <ele>53.014365</ele>
        <time>2020-01-09T21:50:29.539Z</time>
      </trkpt>
      <trkpt lat="43.67605" lon="3.9892">
        <ele>52.865042</ele>
        <time>2020-01-09T21:50:31.590Z</time>
      </trkpt>
      <trkpt lat="43.67602" lon="3.98932">
        <ele>52.605587</ele>
        <time>2020-01-09T21:50:35.065Z</time>
      </trkpt>
      <trkpt lat="43.6761" lon="3.98943">
        <ele>52.365085</ele>
        <time>2020-01-09T21:50:39.273Z</time>
      </trkpt>
      <trkpt lat="43.67637" lon="3.98977">
        <ele>51.624059</ele>
        <time>2020-01-09T21:50:53.445Z</time>
      </trkpt>
      <trkpt lat="43.6768" lon="3.9901">
        <ele>50.628411</ele>
        <time>2020-01-09T21:51:12.736Z</time>
      </trkpt>
      <trkpt lat="43.67685" lon="3.99014">
        <ele>50.506839</ele>
        <time>2020-01-09T21:51:15.005Z</time>
      </trkpt>
      <trkpt lat="43.67688" lon="3.99021">
        <ele>50.381207</ele>
        <time>2020-01-09T21:51:17.422Z</time>
      </trkpt>
      <trkpt lat="43.6769" lon="3.99037">
        <ele>50.155373</ele>
        <time>2020-01-09T21:51:21.847Z</time>
      </trkpt>
      <trkpt lat="43.67689" lon="3.99052">
        <ele>49.9315</ele>
        <time>2020-01-09T21:51:26.271Z</time>
      </trkpt>
      <trkpt lat="43.67681" lon="3.99131">
        <ele>48.845268</ele>
        <time>2020-01-09T21:51:49.107Z</time>
      </trkpt>
      <trkpt lat="43.67681" lon="3.99144">
        <ele>48.770106</ele>
        <time>2020-01-09T21:51:52.943Z</time>
      </trkpt>
      <trkpt lat="43.67685" lon="3.99163">
        <ele>48.658812</ele>
        <time>2020-01-09T21:51:58.447Z</time>
      </trkpt>
      <trkpt lat="43.67713" lon="3.99298">
        <ele>47.855091</ele>
        <time>2020-01-09T21:52:39.385Z</time>
      </trkpt>
      <trkpt lat="43.67728" lon="3.99369">
        <ele>47.497821</ele>
        <time>2020-01-09T21:53:01.439Z</time>
      </trkpt>
      <trkpt lat="43.67732" lon="3.99384">
        <ele>47.539128</ele>
        <time>2020-01-09T21:53:06.048Z</time>
      </trkpt>
      <trkpt lat="43.67741" lon="3.99377">
        <ele>47.577436</ele>
        <time>2020-01-09T21:53:10.770Z</time>
      </trkpt>
      <trkpt lat="43.67799" lon="3.99329">
        <ele>47.820688</ele>
        <time>2020-01-09T21:53:38.931Z</time>
      </trkpt>
      <trkpt lat="43.67879" lon="3.99256">
        <ele>48.052307</ele>
        <time>2020-01-09T21:54:19.339Z</time>
      </trkpt>
      <trkpt lat="43.6792" lon="3.99237">
        <ele>47.778365</ele>
        <time>2020-01-09T21:54:36.997Z</time>
      </trkpt>
      <trkpt lat="43.67932" lon="3.99239">
        <ele>47.705658</ele>
        <time>2020-01-09T21:54:41.672Z</time>
      </trkpt>
      <trkpt lat="43.67979" lon="3.99277">
        <ele>47.357388</ele>
        <time>2020-01-09T21:55:03.787Z</time>
      </trkpt>
      <trkpt lat="43.68041" lon="3.99318">
        <ele>46.836807</ele>
        <time>2020-01-09T21:55:30.998Z</time>
      </trkpt>
      <trkpt lat="43.68171" lon="3.99387">
        <ele>44.733314</ele>
        <time>2020-01-09T21:56:26.064Z</time>
      </trkpt>
      <trkpt lat="43.68272" lon="3.99466">
        <ele>43.401552</ele>
        <time>2020-01-09T21:57:12.130Z</time>
      </trkpt>
      <trkpt lat="43.68316" lon="3.99496">
        <ele>42.897958</ele>
        <time>2020-01-09T21:57:31.854Z</time>
      </trkpt>
      <trkpt lat="43.68309" lon="3.99514">
        <ele>42.748316</ele>
        <time>2020-01-09T21:57:38.718Z</time>
      </trkpt>
      <trkpt lat="43.68329" lon="3.99656">
        <ele>41.9579</ele>
        <time>2020-01-09T21:58:28.553Z</time>
      </trkpt>
      <trkpt lat="43.68373" lon="3.99742">
        <ele>41.471344</ele>
        <time>2020-01-09T21:59:04.747Z</time>
      </trkpt>
      <trkpt lat="43.68391" lon="3.99801">
        <ele>41.199909</ele>
        <time>2020-01-09T21:59:26.844Z</time>
      </trkpt>
      <trkpt lat="43.68393" lon="3.99829">
        <ele>41.101226</ele>
        <time>2020-01-09T21:59:36.621Z</time>
      </trkpt>
      <trkpt lat="43.68388" lon="3.99953">
        <ele>40.668315</ele>
        <time>2020-01-09T22:00:19.445Z</time>
      </trkpt>
      <trkpt lat="43.68373" lon="4.00176">
        <ele>40.112202</ele>
        <time>2020-01-09T22:01:37.384Z</time>
      </trkpt>
      <trkpt lat="43.68359" lon="4.00271">
        <ele>39.921544</ele>
        <time>2020-01-09T22:02:11.218Z</time>
      </trkpt>
      <trkpt lat="43.68362" lon="4.00289">
        <ele>39.90103</ele>
        <time>2020-01-09T22:02:17.648Z</time>
      </trkpt>
      <trkpt lat="43.68439" lon="4.004">
        <ele>39.743637</ele>
        <time>2020-01-09T22:03:11.037Z</time>
      </trkpt>
      <trkpt lat="43.68461" lon="4.00445">
        <ele>39.687788</ele>
        <time>2020-01-09T22:03:29.924Z</time>
      </trkpt>
      <trkpt lat="43.68475" lon="4.00511">
        <ele>39.52866</ele>
        <time>2020-01-09T22:03:53.888Z</time>
      </trkpt>
      <trkpt lat="43.68458" lon="4.00558">
        <ele>39.366921</ele>
        <time>2020-01-09T22:04:12.316Z</time>
      </trkpt>
      <trkpt lat="43.68445" lon="4.00644">
        <ele>39.102707</ele>
        <time>2020-01-09T22:04:42.388Z</time>
      </trkpt>
      <trkpt lat="43.68437" lon="4.00674">
        <ele>39.002958</ele>
        <time>2020-01-09T22:04:53.821Z</time>
      </trkpt>
      <trkpt lat="43.68436" lon="4.00674">
        <ele>39.001405</ele>
        <time>2020-01-09T22:04:53.949Z</time>
      </trkpt>
      <trkpt lat="43.68269" lon="4.00839">
        <ele>38.664556</ele>
        <time>2020-01-09T22:06:32.347Z</time>
      </trkpt>
      <trkpt lat="43.68184" lon="4.0095">
        <ele>39.781048</ele>
        <time>2020-01-09T22:07:30.819Z</time>
      </trkpt>
      <trkpt lat="43.68158" lon="4.00991">
        <ele>40.152722</ele>
        <time>2020-01-09T22:07:50.806Z</time>
      </trkpt>
      <trkpt lat="43.68148" lon="4.01022">
        <ele>40.401965</ele>
        <time>2020-01-09T22:08:03.533Z</time>
      </trkpt>
      <trkpt lat="43.68092" lon="4.01053">
        <ele>41.207041</ele>
        <time>2020-01-09T22:08:35.057Z</time>
      </trkpt>
      <trkpt lat="43.68066" lon="4.01077">
        <ele>41.614035</ele>
        <time>2020-01-09T22:08:50.945Z</time>
      </trkpt>
      <trkpt lat="43.68055" lon="4.01097">
        <ele>41.858682</ele>
        <time>2020-01-09T22:09:00.491Z</time>
      </trkpt>
      <trkpt lat="43.68017" lon="4.01141">
        <ele>42.505323</ele>
        <time>2020-01-09T22:09:25.395Z</time>
      </trkpt>
      <trkpt lat="43.68006" lon="4.01145">
        <ele>42.653071</ele>
        <time>2020-01-09T22:09:31.078Z</time>
      </trkpt>
      <trkpt lat="43.67983" lon="4.01141">
        <ele>42.533452</ele>
        <time>2020-01-09T22:09:42.778Z</time>
      </trkpt>
      <trkpt lat="43.67966" lon="4.0115">
        <ele>42.358228</ele>
        <time>2020-01-09T22:09:51.337Z</time>
      </trkpt>
      <trkpt lat="43.67869" lon="4.01233">
        <ele>41.208073</ele>
        <time>2020-01-09T22:10:45.142Z</time>
      </trkpt>
      <trkpt lat="43.67861" lon="4.01237">
        <ele>41.121405</ele>
        <time>2020-01-09T22:10:48.996Z</time>
      </trkpt>
      <trkpt lat="43.67843" lon="4.01248">
        <ele>40.929517</ele>
        <time>2020-01-09T22:10:57.790Z</time>
      </trkpt>
      <trkpt lat="43.67819" lon="4.01263">
        <ele>40.18138</ele>
        <time>2020-01-09T22:11:10.008Z</time>
      </trkpt>
      <trkpt lat="43.67801" lon="4.01278">
        <ele>39.600274</ele>
        <time>2020-01-09T22:11:19.192Z</time>
      </trkpt>
      <trkpt lat="43.67794" lon="4.013">
        <ele>39.097939</ele>
        <time>2020-01-09T22:11:27.066Z</time>
      </trkpt>
      <trkpt lat="43.6769" lon="4.01439">
        <ele>35.06121</ele>
        <time>2020-01-09T22:12:31.800Z</time>
      </trkpt>
      <trkpt lat="43.67649" lon="4.01537">
        <ele>33.014552</ele>
        <time>2020-01-09T22:13:09.243Z</time>
      </trkpt>
      <trkpt lat="43.67616" lon="4.01591">
        <ele>31.746537</ele>
        <time>2020-01-09T22:13:32.614Z</time>
      </trkpt>
      <trkpt lat="43.6757" lon="4.01647">
        <ele>30.611102</ele>
        <time>2020-01-09T22:14:01.055Z</time>
      </trkpt>
      <trkpt lat="43.6755" lon="4.01693">
        <ele>30.006342</ele>
        <time>2020-01-09T22:14:18.996Z</time>
      </trkpt>
      <trkpt lat="43.67517" lon="4.01741">
        <ele>29.263043</ele>
        <time>2020-01-09T22:14:41.243Z</time>
      </trkpt>
      <trkpt lat="43.67498" lon="4.01782">
        <ele>28.719043</ele>
        <time>2020-01-09T22:14:57.712Z</time>
      </trkpt>
      <trkpt lat="43.67498" lon="4.01817">
        <ele>28.477053</ele>
        <time>2020-01-09T22:15:09.617Z</time>
      </trkpt>
      <trkpt lat="43.67491" lon="4.01867">
        <ele>28.480384</ele>
        <time>2020-01-09T22:15:27.076Z</time>
      </trkpt>
      <trkpt lat="43.6746" lon="4.01865">
        <ele>28.48325</ele>
        <time>2020-01-09T22:15:39.868Z</time>
      </trkpt>
      <trkpt lat="43.67451" lon="4.01845">
        <ele>28.484752</ele>
        <time>2020-01-09T22:15:46.704Z</time>
      </trkpt>
      <trkpt lat="43.67441" lon="4.01786">
        <ele>28.488752</ele>
        <time>2020-01-09T22:16:04.841Z</time>
      </trkpt>
      <trkpt lat="43.67397" lon="4.01652">
        <ele>29.337713</ele>
        <time>2020-01-09T22:16:50.583Z</time>
      </trkpt>
      <trkpt lat="43.6739" lon="4.01616">
        <ele>29.688072</ele>
        <time>2020-01-09T22:17:02.260Z</time>
      </trkpt>
      <trkpt lat="43.67393" lon="4.01599">
        <ele>29.857122</ele>
        <time>2020-01-09T22:17:07.950Z</time>
      </trkpt>
      <trkpt lat="43.67358" lon="4.01508">
        <ele>30.822771</ele>
        <time>2020-01-09T22:17:40.096Z</time>
      </trkpt>
      <trkpt lat="43.67356" lon="4.01492">
        <ele>30.93523</ele>
        <time>2020-01-09T22:17:45.394Z</time>
      </trkpt>
      <trkpt lat="43.6736" lon="4.0147">
        <ele>31.074179</ele>
        <time>2020-01-09T22:17:52.396Z</time>
      </trkpt>
      <trkpt lat="43.67291" lon="4.01296">
        <ele>32.310903</ele>
        <time>2020-01-09T22:18:53.254Z</time>
      </trkpt>
      <trkpt lat="43.67282" lon="4.01263">
        <ele>32.519371</ele>
        <time>2020-01-09T22:19:03.712Z</time>
      </trkpt>
      <trkpt lat="43.67286" lon="4.01234">
        <ele>32.69136</ele>
        <time>2020-01-09T22:19:12.572Z</time>
      </trkpt>
      <trkpt lat="43.67256" lon="4.01117">
        <ele>33.410864</ele>
        <time>2020-01-09T22:19:50.332Z</time>
      </trkpt>
      <trkpt lat="43.6723" lon="4.01023">
        <ele>34.280577</ele>
        <time>2020-01-09T22:20:21.790Z</time>
      </trkpt>
      <trkpt lat="43.67212" lon="4.00997">
        <ele>34.873729</ele>
        <time>2020-01-09T22:20:33.325Z</time>
      </trkpt>
      <trkpt lat="43.67209" lon="4.00994">
        <ele>34.941975</ele>
        <time>2020-01-09T22:20:34.593Z</time>
      </trkpt>
      <trkpt lat="43.67201" lon="4.00986">
        <ele>35.165159</ele>
        <time>2020-01-09T22:20:39.442Z</time>
      </trkpt>
      <trkpt lat="43.67186" lon="4.00942">
        <ele>35.967188</ele>
        <time>2020-01-09T22:20:55.546Z</time>
      </trkpt>
      <trkpt lat="43.67184" lon="4.00917">
        <ele>36.376936</ele>
        <time>2020-01-09T22:21:03.607Z</time>
      </trkpt>
      <trkpt lat="43.67164" lon="4.00856">
        <ele>37.464493</ele>
        <time>2020-01-09T22:21:25.894Z</time>
      </trkpt>
      <trkpt lat="43.67139" lon="4.00808">
        <ele>38.304753</ele>
        <time>2020-01-09T22:21:45.680Z</time>
      </trkpt>
      <trkpt lat="43.67137" lon="4.00783">
        <ele>38.625043</ele>
        <time>2020-01-09T22:21:53.738Z</time>
      </trkpt>
      <trkpt lat="43.67108" lon="4.00676">
        <ele>40.106559</ele>
        <time>2020-01-09T22:22:30.496Z</time>
      </trkpt>
      <trkpt lat="43.67054" lon="4.00514">
        <ele>41.400888</ele>
        <time>2020-01-09T22:23:25.114Z</time>
      </trkpt>
      <trkpt lat="43.66989" lon="4.00466">
        <ele>41.719205</ele>
        <time>2020-01-09T22:23:55.569Z</time>
      </trkpt>
      <trkpt lat="43.66985" lon="4.00451">
        <ele>41.770089</ele>
        <time>2020-01-09T22:24:00.347Z</time>
      </trkpt>
      <trkpt lat="43.67032" lon="4.00421">
        <ele>41.858703</ele>
        <time>2020-01-09T22:24:21.428Z</time>
      </trkpt>
      <trkpt lat="43.67042" lon="4.00414">
        <ele>41.859358</ele>
        <time>2020-01-09T22:24:26.156Z</time>
      </trkpt>
      <trkpt lat="43.67044" lon="4.00397">
        <ele>41.860053</ele>
        <time>2020-01-09T22:24:31.135Z</time>
      </trkpt>
      <trkpt lat="43.67013" lon="4.00322">
        <ele>41.863619</ele>
        <time>2020-01-09T22:24:56.997Z</time>
      </trkpt>
      <trkpt lat="43.67" lon="4.00304">
        <ele>41.864666</ele>
        <time>2020-01-09T22:25:04.671Z</time>
      </trkpt>
      <trkpt lat="43.66932" lon="4.00117">
        <ele>41.827306</ele>
        <time>2020-01-09T22:26:06.912Z</time>
      </trkpt>
      <trkpt lat="43.6693" lon="4.00084">
        <ele>41.818415</ele>
        <time>2020-01-09T22:26:16.746Z</time>
      </trkpt>
      <trkpt lat="43.66864" lon="3.99859">
        <ele>42.036441</ele>
        <time>2020-01-09T22:27:28.763Z</time>
      </trkpt>
      <trkpt lat="43.66853" lon="3.99845">
        <ele>42.06479</ele>
        <time>2020-01-09T22:27:35.165Z</time>
      </trkpt>
      <trkpt lat="43.66844" lon="3.99849">
        <ele>42.083064</ele>
        <time>2020-01-09T22:27:39.201Z</time>
      </trkpt>
      <trkpt lat="43.66853" lon="3.99824">
        <ele>42.120654</ele>
        <time>2020-01-09T22:27:47.725Z</time>
      </trkpt>
      <trkpt lat="43.668" lon="3.99663">
        <ele>43.28776</ele>
        <time>2020-01-09T22:28:42.071Z</time>
      </trkpt>
      <trkpt lat="43.66754" lon="3.99489">
        <ele>44.804419</ele>
        <time>2020-01-09T22:29:40.331Z</time>
      </trkpt>
      <trkpt lat="43.66734" lon="3.99443">
        <ele>45.287533</ele>
        <time>2020-01-09T22:29:56.845Z</time>
      </trkpt>
      <trkpt lat="43.66736" lon="3.99361">
        <ele>46.039022</ele>
        <time>2020-01-09T22:30:22.441Z</time>
      </trkpt>
      <trkpt lat="43.6672" lon="3.99277">
        <ele>46.330191</ele>
        <time>2020-01-09T22:30:54.257Z</time>
      </trkpt>
      <trkpt lat="43.6667" lon="3.99135">
        <ele>46.730195</ele>
        <time>2020-01-09T22:31:49.705Z</time>
      </trkpt>
      <trkpt lat="43.66674" lon="3.99113">
        <ele>46.706811</ele>
        <time>2020-01-09T22:31:57.740Z</time>
      </trkpt>
      <trkpt lat="43.66686" lon="3.99111">
        <ele>46.598732</ele>
        <time>2020-01-09T22:32:03.576Z</time>
      </trkpt>
      <trkpt lat="43.66707" lon="3.99101">
        <ele>46.395548</ele>
        <time>2020-01-09T22:32:14.416Z</time>
      </trkpt>
      <trkpt lat="43.66704" lon="3.99076">
        <ele>46.234118</ele>
        <time>2020-01-09T22:32:21.777Z</time>
      </trkpt>
      <trkpt lat="43.66687" lon="3.99032">
        <ele>45.910196</ele>
        <time>2020-01-09T22:32:36.472Z</time>
      </trkpt>
      <trkpt lat="43.66675" lon="3.98955">
        <ele>45.40391</ele>
        <time>2020-01-09T22:32:59.257Z</time>
      </trkpt>
      <trkpt lat="43.66659" lon="3.9894">
        <ele>45.2375</ele>
        <time>2020-01-09T22:33:06.653Z</time>
      </trkpt>
      <trkpt lat="43.66572" lon="3.98914">
        <ele>44.044184</ele>
        <time>2020-01-09T22:33:41.681Z</time>
      </trkpt>
      <trkpt lat="43.66565" lon="3.98897">
        <ele>43.850823</ele>
        <time>2020-01-09T22:33:47.245Z</time>
      </trkpt>
      <trkpt lat="43.66559" lon="3.98882">
        <ele>43.668785</ele>
        <time>2020-01-09T22:33:52.426Z</time>
      </trkpt>
      <trkpt lat="43.66543" lon="3.98881">
        <ele>43.452875</ele>
        <time>2020-01-09T22:33:59.650Z</time>
      </trkpt>
      <trkpt lat="43.66452" lon="3.98874">
        <ele>42.395637</ele>
        <time>2020-01-09T22:34:42.759Z</time>
      </trkpt>
      <trkpt lat="43.66388" lon="3.98855">
        <ele>41.899889</ele>
        <time>2020-01-09T22:35:13.483Z</time>
      </trkpt>
      <trkpt lat="43.6632" lon="3.98813">
        <ele>41.335031</ele>
        <time>2020-01-09T22:35:49.084Z</time>
      </trkpt>
      <trkpt lat="43.6619" lon="3.98721">
        <ele>40.828022</ele>
        <time>2020-01-09T22:36:59.171Z</time>
      </trkpt>
      <trkpt lat="43.6612" lon="3.98697">
        <ele>40.49461</ele>
        <time>2020-01-09T22:37:33.679Z</time>
      </trkpt>
      <trkpt lat="43.66081" lon="3.98671">
        <ele>40.228832</ele>
        <time>2020-01-09T22:37:54.510Z</time>
      </trkpt>
      <trkpt lat="43.66028" lon="3.98623">
        <ele>39.846041</ele>
        <time>2020-01-09T22:38:24.272Z</time>
      </trkpt>
      <trkpt lat="43.6599" lon="3.98615">
        <ele>39.608365</ele>
        <time>2020-01-09T22:38:42.516Z</time>
      </trkpt>
      <trkpt lat="43.65962" lon="3.98603">
        <ele>39.283315</ele>
        <time>2020-01-09T22:38:56.351Z</time>
      </trkpt>
      <trkpt lat="43.65952" lon="3.986">
        <ele>39.169713</ele>
        <time>2020-01-09T22:39:01.167Z</time>
      </trkpt>
      <trkpt lat="43.65921" lon="3.98555">
        <ele>38.664484</ele>
        <time>2020-01-09T22:39:19.159Z</time>
      </trkpt>
      <trkpt lat="43.65921" lon="3.98552">
        <ele>38.640094</ele>
        <time>2020-01-09T22:39:19.958Z</time>
      </trkpt>
      <trkpt lat="43.65924" lon="3.98544">
        <ele>38.567611</ele>
        <time>2020-01-09T22:39:22.483Z</time>
      </trkpt>
      <trkpt lat="43.6592" lon="3.98526">
        <ele>38.408921</ele>
        <time>2020-01-09T22:39:28.243Z</time>
      </trkpt>
      <trkpt lat="43.65915" lon="3.98503">
        <ele>38.214085</ele>
        <time>2020-01-09T22:39:35.159Z</time>
      </trkpt>
      <trkpt lat="43.65913" lon="3.98485">
        <ele>38.067615</ele>
        <time>2020-01-09T22:39:40.374Z</time>
      </trkpt>
      <trkpt lat="43.65915" lon="3.98474">
        <ele>37.973844</ele>
        <time>2020-01-09T22:39:43.782Z</time>
      </trkpt>
      <trkpt lat="43.65917" lon="3.98474">
        <ele>37.948935</ele>
        <time>2020-01-09T22:39:44.641Z</time>
      </trkpt>
      <trkpt lat="43.65917" lon="3.98474">
        <ele>37.948935</ele>
        <time>2020-01-09T22:39:44.672Z</time>
      </trkpt>
      <trkpt lat="43.65938" lon="3.98478">
        <ele>37.71775</ele>
        <time>2020-01-09T22:39:52.826Z</time>
      </trkpt>
      <trkpt lat="43.65951" lon="3.98482">
        <ele>37.573907</ele>
        <time>2020-01-09T22:39:58.505Z</time>
      </trkpt>
      <trkpt lat="43.65958" lon="3.98483">
        <ele>37.550906</ele>
        <time>2020-01-09T22:40:01.223Z</time>
      </trkpt>
      <trkpt lat="43.65972" lon="3.98471">
        <ele>37.495515</ele>
        <time>2020-01-09T22:40:07.582Z</time>
      </trkpt>
      <trkpt lat="43.65975" lon="3.98443">
        <ele>37.425814</ele>
        <time>2020-01-09T22:40:15.795Z</time>
      </trkpt>
      <trkpt lat="43.65977" lon="3.98439">
        <ele>37.4144</ele>
        <time>2020-01-09T22:40:17.109Z</time>
      </trkpt>
      <trkpt lat="43.65939" lon="3.98284">
        <ele>37.009355</ele>
        <time>2020-01-09T22:41:05.577Z</time>
      </trkpt>
      <trkpt lat="43.65915" lon="3.98168">
        <ele>37.238747</ele>
        <time>2020-01-09T22:41:42.061Z</time>
      </trkpt>
      <trkpt lat="43.659" lon="3.98101">
        <ele>37.42566</ele>
        <time>2020-01-09T22:42:03.187Z</time>
      </trkpt>
      <trkpt lat="43.65897" lon="3.9809">
        <ele>37.457497</ele>
        <time>2020-01-09T22:42:06.806Z</time>
      </trkpt>
      <trkpt lat="43.65893" lon="3.98068">
        <ele>37.520505</ele>
        <time>2020-01-09T22:42:13.887Z</time>
      </trkpt>
      <trkpt lat="43.65892" lon="3.98053">
        <ele>37.561334</ele>
        <time>2020-01-09T22:42:18.483Z</time>
      </trkpt>
      <trkpt lat="43.6589" lon="3.98039">
        <ele>37.598601</ele>
        <time>2020-01-09T22:42:22.644Z</time>
      </trkpt>
      <trkpt lat="43.65879" lon="3.97952">
        <ele>37.868314</ele>
        <time>2020-01-09T22:42:49.249Z</time>
      </trkpt>
      <trkpt lat="43.65877" lon="3.9787">
        <ele>38.121412</ele>
        <time>2020-01-09T22:43:13.754Z</time>
      </trkpt>
      <trkpt lat="43.65876" lon="3.97781">
        <ele>38.397099</ele>
        <time>2020-01-09T22:43:40.490Z</time>
      </trkpt>
      <trkpt lat="43.65876" lon="3.97781">
        <ele>38.397099</ele>
        <time>2020-01-09T22:43:40.581Z</time>
      </trkpt>
      <trkpt lat="43.65876" lon="3.97726">
        <ele>39.29954</ele>
        <time>2020-01-09T22:43:57.774Z</time>
      </trkpt>
      <trkpt lat="43.65879" lon="3.97637">
        <ele>40.806437</ele>
        <time>2020-01-09T22:44:26.617Z</time>
      </trkpt>
      <trkpt lat="43.65879" lon="3.97623">
        <ele>41.034428</ele>
        <time>2020-01-09T22:44:30.936Z</time>
      </trkpt>
      <trkpt lat="43.6588" lon="3.97615">
        <ele>41.177781</ele>
        <time>2020-01-09T22:44:33.778Z</time>
      </trkpt>
      <trkpt lat="43.65876" lon="3.97612">
        <ele>41.26745</ele>
        <time>2020-01-09T22:44:35.614Z</time>
      </trkpt>
      <trkpt lat="43.65873" lon="3.97609">
        <ele>41.35535</ele>
        <time>2020-01-09T22:44:37.560Z</time>
      </trkpt>
      <trkpt lat="43.65871" lon="3.97603">
        <ele>41.475504</ele>
        <time>2020-01-09T22:44:39.939Z</time>
      </trkpt>
      <trkpt lat="43.65871" lon="3.97582">
        <ele>41.822582</ele>
        <time>2020-01-09T22:44:46.583Z</time>
      </trkpt>
      <trkpt lat="43.65874" lon="3.97576">
        <ele>41.942685</ele>
        <time>2020-01-09T22:44:49.017Z</time>
      </trkpt>
      <trkpt lat="43.65864" lon="3.97565">
        <ele>42.239838</ele>
        <time>2020-01-09T22:44:55.565Z</time>
      </trkpt>
      <trkpt lat="43.65815" lon="3.97508">
        <ele>44.318367</ele>
        <time>2020-01-09T22:45:25.989Z</time>
      </trkpt>
      <trkpt lat="43.6581" lon="3.975">
        <ele>44.587493</ele>
        <time>2020-01-09T22:45:30.087Z</time>
      </trkpt>
      <trkpt lat="43.6578" lon="3.97448">
        <ele>46.280187</ele>
        <time>2020-01-09T22:45:53.115Z</time>
      </trkpt>
      <trkpt lat="43.6577" lon="3.97428">
        <ele>46.893545</ele>
        <time>2020-01-09T22:46:01.589Z</time>
      </trkpt>
      <trkpt lat="43.65762" lon="3.97409">
        <ele>47.476013</ele>
        <time>2020-01-09T22:46:09.618Z</time>
      </trkpt>
      <trkpt lat="43.65758" lon="3.97399">
        <ele>47.745608</ele>
        <time>2020-01-09T22:46:13.138Z</time>
      </trkpt>
      <trkpt lat="43.65755" lon="3.97391">
        <ele>47.995994</ele>
        <time>2020-01-09T22:46:16.373Z</time>
      </trkpt>
      <trkpt lat="43.65732" lon="3.97346">
        <ele>48.980443</ele>
        <time>2020-01-09T22:46:34.418Z</time>
      </trkpt>
      <trkpt lat="43.65713" lon="3.97312">
        <ele>49.102796</ele>
        <time>2020-01-09T22:46:48.137Z</time>
      </trkpt>
      <trkpt lat="43.65696" lon="3.97287">
        <ele>49.202924</ele>
        <time>2020-01-09T22:46:58.890Z</time>
      </trkpt>
      <trkpt lat="43.65693" lon="3.97282">
        <ele>49.221602</ele>
        <time>2020-01-09T22:47:00.869Z</time>
      </trkpt>
      <trkpt lat="43.65692" lon="3.97274">
        <ele>49.243264</ele>
        <time>2020-01-09T22:47:03.183Z</time>
      </trkpt>
      <trkpt lat="43.65692" lon="3.97266">
        <ele>49.266347</ele>
        <time>2020-01-09T22:47:05.665Z</time>
      </trkpt>
      <trkpt lat="43.65692" lon="3.97264">
        <ele>49.27355</ele>
        <time>2020-01-09T22:47:06.439Z</time>
      </trkpt>
      <trkpt lat="43.65695" lon="3.9726">
        <ele>49.290763</ele>
        <time>2020-01-09T22:47:08.238Z</time>
      </trkpt>
      <trkpt lat="43.65704" lon="3.9725">
        <ele>49.335199</ele>
        <time>2020-01-09T22:47:12.878Z</time>
      </trkpt>
      <trkpt lat="43.65705" lon="3.97246">
        <ele>49.348341</ele>
        <time>2020-01-09T22:47:14.304Z</time>
      </trkpt>
      <trkpt lat="43.65711" lon="3.97238">
        <ele>49.381385</ele>
        <time>2020-01-09T22:47:17.635Z</time>
      </trkpt>
      <trkpt lat="43.65748" lon="3.97149">
        <ele>49.47318</ele>
        <time>2020-01-09T22:47:47.248Z</time>
      </trkpt>
      <trkpt lat="43.65763" lon="3.97113">
        <ele>48.837658</ele>
        <time>2020-01-09T22:47:58.970Z</time>
      </trkpt>
      <trkpt lat="43.65779" lon="3.97053">
        <ele>47.855593</ele>
        <time>2020-01-09T22:48:17.034Z</time>
      </trkpt>
      <trkpt lat="43.65791" lon="3.96994">
        <ele>46.899745</ele>
        <time>2020-01-09T22:48:34.558Z</time>
      </trkpt>
      <trkpt lat="43.65769" lon="3.96994">
        <ele>46.431012</ele>
        <time>2020-01-09T22:48:43.024Z</time>
      </trkpt>
      <trkpt lat="43.65743" lon="3.96991">
        <ele>45.869052</ele>
        <time>2020-01-09T22:48:53.119Z</time>
      </trkpt>
      <trkpt lat="43.65707" lon="3.96989">
        <ele>45.047742</ele>
        <time>2020-01-09T22:49:07.171Z</time>
      </trkpt>
      <trkpt lat="43.65688" lon="3.96992">
        <ele>44.631369</ele>
        <time>2020-01-09T22:49:14.333Z</time>
      </trkpt>
      <trkpt lat="43.65677" lon="3.96994">
        <ele>44.380367</ele>
        <time>2020-01-09T22:49:18.585Z</time>
      </trkpt>
      <trkpt lat="43.65677" lon="3.96994">
        <ele>44.380367</ele>
        <time>2020-01-09T22:49:18.612Z</time>
      </trkpt>
      <trkpt lat="43.65675" lon="3.96992">
        <ele>44.315073</ele>
        <time>2020-01-09T22:49:19.679Z</time>
      </trkpt>
      <trkpt lat="43.65667" lon="3.96984">
        <ele>44.098257</ele>
        <time>2020-01-09T22:49:23.448Z</time>
      </trkpt>
      <trkpt lat="43.65666" lon="3.96958">
        <ele>43.66683</ele>
        <time>2020-01-09T22:49:30.901Z</time>
      </trkpt>
      <trkpt lat="43.65667" lon="3.96952">
        <ele>43.569941</ele>
        <time>2020-01-09T22:49:32.548Z</time>
      </trkpt>
      <trkpt lat="43.65668" lon="3.96927">
        <ele>43.158806</ele>
        <time>2020-01-09T22:49:39.660Z</time>
      </trkpt>
      <trkpt lat="43.65671" lon="3.96911">
        <ele>42.89654</ele>
        <time>2020-01-09T22:49:44.294Z</time>
      </trkpt>
      <trkpt lat="43.65677" lon="3.96906">
        <ele>42.739572</ele>
        <time>2020-01-09T22:49:46.911Z</time>
      </trkpt>
      <trkpt lat="43.65684" lon="3.96903">
        <ele>42.581624</ele>
        <time>2020-01-09T22:49:49.610Z</time>
      </trkpt>
      <trkpt lat="43.657" lon="3.96882">
        <ele>42.070992</ele>
        <time>2020-01-09T22:49:58.518Z</time>
      </trkpt>
      <trkpt lat="43.65708" lon="3.96855">
        <ele>41.66709</ele>
        <time>2020-01-09T22:50:06.585Z</time>
      </trkpt>
      <trkpt lat="43.65711" lon="3.96849">
        <ele>41.600177</ele>
        <time>2020-01-09T22:50:08.742Z</time>
      </trkpt>
      <trkpt lat="43.65673" lon="3.96835">
        <ele>41.129608</ele>
        <time>2020-01-09T22:50:24.160Z</time>
      </trkpt>
      <trkpt lat="43.65653" lon="3.96827">
        <ele>40.876321</ele>
        <time>2020-01-09T22:50:32.519Z</time>
      </trkpt>
      <trkpt lat="43.65604" lon="3.96808">
        <ele>40.268243</ele>
        <time>2020-01-09T22:50:52.870Z</time>
      </trkpt>
      <trkpt lat="43.65603" lon="3.96808">
        <ele>40.261019</ele>
        <time>2020-01-09T22:50:53.114Z</time>
      </trkpt>
      <trkpt lat="43.65591" lon="3.96805">
        <ele>40.111106</ele>
        <time>2020-01-09T22:50:58.179Z</time>
      </trkpt>
      <trkpt lat="43.65557" lon="3.96802">
        <ele>39.707612</ele>
        <time>2020-01-09T22:51:11.812Z</time>
      </trkpt>
      <trkpt lat="43.65561" lon="3.96818">
        <ele>39.601915</ele>
        <time>2020-01-09T22:51:16.842Z</time>
      </trkpt>
      <trkpt lat="43.65579" lon="3.96874">
        <ele>39.800785</ele>
        <time>2020-01-09T22:51:34.901Z</time>
      </trkpt>
      <trkpt lat="43.65581" lon="3.96879">
        <ele>39.81924</ele>
        <time>2020-01-09T22:51:36.649Z</time>
      </trkpt>
      <trkpt lat="43.65581" lon="3.96879">
        <ele>39.81924</ele>
        <time>2020-01-09T22:51:36.652Z</time>
      </trkpt>
      <trkpt lat="43.65562" lon="3.96873">
        <ele>39.904532</ele>
        <time>2020-01-09T22:51:44.389Z</time>
      </trkpt>
      <trkpt lat="43.65535" lon="3.96862">
        <ele>40.032627</ele>
        <time>2020-01-09T22:51:56.108Z</time>
      </trkpt>
      <trkpt lat="43.65522" lon="3.96858">
        <ele>40.094652</ele>
        <time>2020-01-09T22:52:01.845Z</time>
      </trkpt>
      <trkpt lat="43.65517" lon="3.96855">
        <ele>40.117909</ele>
        <time>2020-01-09T22:52:03.922Z</time>
      </trkpt>
      <trkpt lat="43.65456" lon="3.96832">
        <ele>40.411966</ele>
        <time>2020-01-09T22:52:31.176Z</time>
      </trkpt>
      <trkpt lat="43.65405" lon="3.96812">
        <ele>41.439965</ele>
        <time>2020-01-09T22:52:53.880Z</time>
      </trkpt>
      <trkpt lat="43.65388" lon="3.96805">
        <ele>41.803169</ele>
        <time>2020-01-09T22:53:02.129Z</time>
      </trkpt>
      <trkpt lat="43.65382" lon="3.96803">
        <ele>41.911941</ele>
        <time>2020-01-09T22:53:04.587Z</time>
      </trkpt>
      <trkpt lat="43.65383" lon="3.9681">
        <ele>42.014732</ele>
        <time>2020-01-09T22:53:06.822Z</time>
      </trkpt>
      <trkpt lat="43.65355" lon="3.96797">
        <ele>42.599769</ele>
        <time>2020-01-09T22:53:20.319Z</time>
      </trkpt>
      <trkpt lat="43.65342" lon="3.96789">
        <ele>42.876325</ele>
        <time>2020-01-09T22:53:26.566Z</time>
      </trkpt>
      <trkpt lat="43.6523" lon="3.96742">
        <ele>44.135617</ele>
        <time>2020-01-09T22:54:18.774Z</time>
      </trkpt>
      <trkpt lat="43.65204" lon="3.96737">
        <ele>44.213684</ele>
        <time>2020-01-09T22:54:29.659Z</time>
      </trkpt>
      <trkpt lat="43.65172" lon="3.96769">
        <ele>44.329455</ele>
        <time>2020-01-09T22:54:45.640Z</time>
      </trkpt>
      <trkpt lat="43.65161" lon="3.96774">
        <ele>44.364012</ele>
        <time>2020-01-09T22:54:50.244Z</time>
      </trkpt>
      <trkpt lat="43.65132" lon="3.96735">
        <ele>44.484305</ele>
        <time>2020-01-09T22:55:06.487Z</time>
      </trkpt>
      <trkpt lat="43.65128" lon="3.96742">
        <ele>44.372633</ele>
        <time>2020-01-09T22:55:08.686Z</time>
      </trkpt>
      <trkpt lat="43.65114" lon="3.96749">
        <ele>44.075772</ele>
        <time>2020-01-09T22:55:14.836Z</time>
      </trkpt>
      <trkpt lat="43.65106" lon="3.96748">
        <ele>43.920619</ele>
        <time>2020-01-09T22:55:17.899Z</time>
      </trkpt>
      <trkpt lat="43.65101" lon="3.96753">
        <ele>43.797897</ele>
        <time>2020-01-09T22:55:20.183Z</time>
      </trkpt>
      <trkpt lat="43.6506" lon="3.96774">
        <ele>42.946234</ele>
        <time>2020-01-09T22:55:36.976Z</time>
      </trkpt>
      <trkpt lat="43.64923" lon="3.96871">
        <ele>41.055149</ele>
        <time>2020-01-09T22:56:37.291Z</time>
      </trkpt>
      <trkpt lat="43.64862" lon="3.96915">
        <ele>41.184257</ele>
        <time>2020-01-09T22:57:05.829Z</time>
      </trkpt>
      <trkpt lat="43.64849" lon="3.96889">
        <ele>41.226941</ele>
        <time>2020-01-09T22:57:15.567Z</time>
      </trkpt>
      <trkpt lat="43.648" lon="3.96767">
        <ele>42.96806</ele>
        <time>2020-01-09T22:58:00.871Z</time>
      </trkpt>
      <trkpt lat="43.64776" lon="3.96701">
        <ele>44.342505</ele>
        <time>2020-01-09T22:58:25.634Z</time>
      </trkpt>
      <trkpt lat="43.64745" lon="3.96619">
        <ele>46.056807</ele>
        <time>2020-01-09T22:58:56.616Z</time>
      </trkpt>
      <trkpt lat="43.64612" lon="3.96196">
        <ele>53.671436</ele>
        <time>2020-01-09T23:01:26.377Z</time>
      </trkpt>
      <trkpt lat="43.64605" lon="3.96175">
        <ele>54.040303</ele>
        <time>2020-01-09T23:01:33.866Z</time>
      </trkpt>
      <trkpt lat="43.64549" lon="3.9621">
        <ele>54.812739</ele>
        <time>2020-01-09T23:02:00.682Z</time>
      </trkpt>
      <trkpt lat="43.64546" lon="3.96212">
        <ele>54.855693</ele>
        <time>2020-01-09T23:02:02.223Z</time>
      </trkpt>
      <trkpt lat="43.64533" lon="3.96217">
        <ele>55.013001</ele>
        <time>2020-01-09T23:02:07.903Z</time>
      </trkpt>
      <trkpt lat="43.64508" lon="3.96224">
        <ele>55.319459</ele>
        <time>2020-01-09T23:02:18.892Z</time>
      </trkpt>
      <trkpt lat="43.64446" lon="3.96244">
        <ele>56.084414</ele>
        <time>2020-01-09T23:02:45.957Z</time>
      </trkpt>
      <trkpt lat="43.64326" lon="3.96253">
        <ele>56.313858</ele>
        <time>2020-01-09T23:03:35.475Z</time>
      </trkpt>
      <trkpt lat="43.64294" lon="3.96254">
        <ele>56.322831</ele>
        <time>2020-01-09T23:03:48.715Z</time>
      </trkpt>
      <trkpt lat="43.64286" lon="3.96255">
        <ele>56.324914</ele>
        <time>2020-01-09T23:03:51.780Z</time>
      </trkpt>
      <trkpt lat="43.6427" lon="3.96257">
        <ele>56.329345</ele>
        <time>2020-01-09T23:03:58.304Z</time>
      </trkpt>
      <trkpt lat="43.64224" lon="3.96264">
        <ele>56.152089</ele>
        <time>2020-01-09T23:04:17.183Z</time>
      </trkpt>
      <trkpt lat="43.64217" lon="3.96265">
        <ele>56.09756</ele>
        <time>2020-01-09T23:04:20.303Z</time>
      </trkpt>
      <trkpt lat="43.64204" lon="3.96266">
        <ele>56.006065</ele>
        <time>2020-01-09T23:04:25.561Z</time>
      </trkpt>
      <trkpt lat="43.64191" lon="3.96267">
        <ele>55.916569</ele>
        <time>2020-01-09T23:04:30.653Z</time>
      </trkpt>
      <trkpt lat="43.64181" lon="3.96269">
        <ele>55.841262</ele>
        <time>2020-01-09T23:04:35.000Z</time>
      </trkpt>
      <trkpt lat="43.64154" lon="3.96272">
        <ele>55.649402</ele>
        <time>2020-01-09T23:04:45.859Z</time>
      </trkpt>
      <trkpt lat="43.6411" lon="3.96276">
        <ele>55.338192</ele>
        <time>2020-01-09T23:05:03.545Z</time>
      </trkpt>
      <trkpt lat="43.64027" lon="3.96282">
        <ele>54.468679</ele>
        <time>2020-01-09T23:05:36.904Z</time>
      </trkpt>
      <trkpt lat="43.64015" lon="3.96284">
        <ele>54.311701</ele>
        <time>2020-01-09T23:05:41.517Z</time>
      </trkpt>
      <trkpt lat="43.64015" lon="3.96284">
        <ele>54.311701</ele>
        <time>2020-01-09T23:05:41.525Z</time>
      </trkpt>
      <trkpt lat="43.64015" lon="3.96284">
        <ele>54.311701</ele>
        <time>2020-01-09T23:05:41.548Z</time>
      </trkpt>
      <trkpt lat="43.64014" lon="3.96281">
        <ele>54.280285</ele>
        <time>2020-01-09T23:05:42.482Z</time>
      </trkpt>
      <trkpt lat="43.64011" lon="3.9628">
        <ele>54.248256</ele>
        <time>2020-01-09T23:05:43.413Z</time>
      </trkpt>
      <trkpt lat="43.64009" lon="3.9628">
        <ele>54.220079</ele>
        <time>2020-01-09T23:05:44.255Z</time>
      </trkpt>
      <trkpt lat="43.64007" lon="3.96281">
        <ele>54.191942</ele>
        <time>2020-01-09T23:05:45.100Z</time>
      </trkpt>
      <trkpt lat="43.64006" lon="3.96284">
        <ele>54.16427</ele>
        <time>2020-01-09T23:05:45.942Z</time>
      </trkpt>
      <trkpt lat="43.64002" lon="3.96284">
        <ele>54.099755</ele>
        <time>2020-01-09T23:05:47.846Z</time>
      </trkpt>
      <trkpt lat="43.63953" lon="3.96285">
        <ele>53.446461</ele>
        <time>2020-01-09T23:06:07.227Z</time>
      </trkpt>
      <trkpt lat="43.63938" lon="3.9629">
        <ele>53.237308</ele>
        <time>2020-01-09T23:06:13.421Z</time>
      </trkpt>
      <trkpt lat="43.6393" lon="3.96294">
        <ele>53.130377</ele>
        <time>2020-01-09T23:06:16.593Z</time>
      </trkpt>
      <trkpt lat="43.63925" lon="3.96297">
        <ele>53.06024</ele>
        <time>2020-01-09T23:06:18.661Z</time>
      </trkpt>
      <trkpt lat="43.63926" lon="3.963">
        <ele>53.032019</ele>
        <time>2020-01-09T23:06:19.499Z</time>
      </trkpt>
      <trkpt lat="43.63919" lon="3.96305">
        <ele>52.934263</ele>
        <time>2020-01-09T23:06:22.370Z</time>
      </trkpt>
      <trkpt lat="43.63918" lon="3.96303">
        <ele>52.90636</ele>
        <time>2020-01-09T23:06:23.204Z</time>
      </trkpt>
      <trkpt lat="43.63895" lon="3.96323">
        <ele>52.463008</ele>
        <time>2020-01-09T23:06:33.837Z</time>
      </trkpt>
      <trkpt lat="43.6384" lon="3.96381">
        <ele>50.811068</ele>
        <time>2020-01-09T23:07:01.036Z</time>
      </trkpt>
      <trkpt lat="43.63835" lon="3.96387">
        <ele>50.656783</ele>
        <time>2020-01-09T23:07:03.586Z</time>
      </trkpt>
      <trkpt lat="43.63825" lon="3.964">
        <ele>50.32869</ele>
        <time>2020-01-09T23:07:08.939Z</time>
      </trkpt>
      <trkpt lat="43.63808" lon="3.96428">
        <ele>49.691719</ele>
        <time>2020-01-09T23:07:19.378Z</time>
      </trkpt>
      <trkpt lat="43.638" lon="3.96443">
        <ele>49.378511</ele>
        <time>2020-01-09T23:07:24.292Z</time>
      </trkpt>
      <trkpt lat="43.63783" lon="3.96474">
        <ele>48.711338</ele>
        <time>2020-01-09T23:07:35.084Z</time>
      </trkpt>
      <trkpt lat="43.6378" lon="3.9648">
        <ele>48.567248</ele>
        <time>2020-01-09T23:07:37.320Z</time>
      </trkpt>
      <trkpt lat="43.63775" lon="3.96488">
        <ele>48.393863</ele>
        <time>2020-01-09T23:07:40.029Z</time>
      </trkpt>
      <trkpt lat="43.63741" lon="3.96539">
        <ele>46.400769</ele>
        <time>2020-01-09T23:07:59.195Z</time>
      </trkpt>
      <trkpt lat="43.63725" lon="3.96555">
        <ele>45.633498</ele>
        <time>2020-01-09T23:08:06.187Z</time>
      </trkpt>
      <trkpt lat="43.63708" lon="3.96576">
        <ele>44.698963</ele>
        <time>2020-01-09T23:08:15.125Z</time>
      </trkpt>
      <trkpt lat="43.63699" lon="3.96586">
        <ele>44.25681</ele>
        <time>2020-01-09T23:08:19.098Z</time>
      </trkpt>
      <trkpt lat="43.6369" lon="3.96575">
        <ele>43.787449</ele>
        <time>2020-01-09T23:08:23.609Z</time>
      </trkpt>
      <trkpt lat="43.63681" lon="3.96568">
        <ele>43.361624</ele>
        <time>2020-01-09T23:08:27.623Z</time>
      </trkpt>
      <trkpt lat="43.63677" lon="3.96561">
        <ele>43.083212</ele>
        <time>2020-01-09T23:08:30.129Z</time>
      </trkpt>
      <trkpt lat="43.63656" lon="3.96545">
        <ele>42.156917</ele>
        <time>2020-01-09T23:08:38.803Z</time>
      </trkpt>
      <trkpt lat="43.6365" lon="3.9655">
        <ele>41.886768</ele>
        <time>2020-01-09T23:08:41.321Z</time>
      </trkpt>
      <trkpt lat="43.63648" lon="3.96543">
        <ele>41.673397</ele>
        <time>2020-01-09T23:08:43.241Z</time>
      </trkpt>
      <trkpt lat="43.63621" lon="3.96537">
        <ele>40.530311</ele>
        <time>2020-01-09T23:08:53.361Z</time>
      </trkpt>
      <trkpt lat="43.63612" lon="3.96523">
        <ele>39.928628</ele>
        <time>2020-01-09T23:08:58.212Z</time>
      </trkpt>
      <trkpt lat="43.6361" lon="3.96518">
        <ele>39.734711</ele>
        <time>2020-01-09T23:08:59.833Z</time>
      </trkpt>
      <trkpt lat="43.63606" lon="3.96511">
        <ele>39.441387</ele>
        <time>2020-01-09T23:09:02.392Z</time>
      </trkpt>
      <trkpt lat="43.63596" lon="3.96499">
        <ele>38.865531</ele>
        <time>2020-01-09T23:09:07.249Z</time>
      </trkpt>
      <trkpt lat="43.6359" lon="3.96503">
        <ele>38.558588</ele>
        <time>2020-01-09T23:09:09.757Z</time>
      </trkpt>
      <trkpt lat="43.63588" lon="3.965">
        <ele>38.418281</ele>
        <time>2020-01-09T23:09:10.884Z</time>
      </trkpt>
      <trkpt lat="43.63578" lon="3.9649">
        <ele>37.872372</ele>
        <time>2020-01-09T23:09:15.356Z</time>
      </trkpt>
      <trkpt lat="43.63576" lon="3.96488">
        <ele>37.755902</ele>
        <time>2020-01-09T23:09:16.266Z</time>
      </trkpt>
      <trkpt lat="43.63573" lon="3.96492">
        <ele>37.592323</ele>
        <time>2020-01-09T23:09:17.617Z</time>
      </trkpt>
      <trkpt lat="43.6357" lon="3.96493">
        <ele>37.433906</ele>
        <time>2020-01-09T23:09:18.947Z</time>
      </trkpt>
      <trkpt lat="43.63566" lon="3.96493">
        <ele>37.277324</ele>
        <time>2020-01-09T23:09:20.261Z</time>
      </trkpt>
      <trkpt lat="43.63563" lon="3.96494">
        <ele>37.135881</ele>
        <time>2020-01-09T23:09:21.430Z</time>
      </trkpt>
      <trkpt lat="43.63558" lon="3.96495">
        <ele>36.898685</ele>
        <time>2020-01-09T23:09:23.351Z</time>
      </trkpt>
      <trkpt lat="43.63554" lon="3.96493">
        <ele>36.691609</ele>
        <time>2020-01-09T23:09:25.040Z</time>
      </trkpt>
      <trkpt lat="43.63549" lon="3.96493">
        <ele>36.463518</ele>
        <time>2020-01-09T23:09:26.980Z</time>
      </trkpt>
      <trkpt lat="43.63524" lon="3.96494">
        <ele>35.36953</ele>
        <time>2020-01-09T23:09:35.987Z</time>
      </trkpt>
      <trkpt lat="43.63524" lon="3.96486">
        <ele>35.123275</ele>
        <time>2020-01-09T23:09:37.987Z</time>
      </trkpt>
      <trkpt lat="43.63527" lon="3.96449">
        <ele>33.913153</ele>
        <time>2020-01-09T23:09:48.121Z</time>
      </trkpt>
      <trkpt lat="43.63525" lon="3.96422">
        <ele>33.060661</ele>
        <time>2020-01-09T23:09:55.305Z</time>
      </trkpt>
      <trkpt lat="43.63529" lon="3.96405">
        <ele>32.558468</ele>
        <time>2020-01-09T23:10:00.220Z</time>
      </trkpt>
      <trkpt lat="43.63528" lon="3.96391">
        <ele>32.186664</ele>
        <time>2020-01-09T23:10:03.916Z</time>
      </trkpt>
      <trkpt lat="43.63525" lon="3.96381">
        <ele>31.886739</ele>
        <time>2020-01-09T23:10:06.875Z</time>
      </trkpt>
      <trkpt lat="43.6352" lon="3.96371">
        <ele>31.563679</ele>
        <time>2020-01-09T23:10:09.879Z</time>
      </trkpt>
      <trkpt lat="43.63419" lon="3.96173">
        <ele>25.522471</ele>
        <time>2020-01-09T23:11:16.280Z</time>
      </trkpt>
      <trkpt lat="43.63381" lon="3.96079">
        <ele>23.914924</ele>
        <time>2020-01-09T23:11:46.696Z</time>
      </trkpt>
      <trkpt lat="43.63347" lon="3.9596">
        <ele>22.439121</ele>
        <time>2020-01-09T23:12:23.871Z</time>
      </trkpt>
      <trkpt lat="43.63259" lon="3.95848">
        <ele>21.844327</ele>
        <time>2020-01-09T23:13:12.680Z</time>
      </trkpt>
      <trkpt lat="43.63247" lon="3.95807">
        <ele>21.688513</ele>
        <time>2020-01-09T23:13:25.678Z</time>
      </trkpt>
      <trkpt lat="43.63238" lon="3.95764">
        <ele>21.670639</ele>
        <time>2020-01-09T23:13:39.046Z</time>
      </trkpt>
      <trkpt lat="43.6323" lon="3.95715">
        <ele>21.65093</ele>
        <time>2020-01-09T23:13:53.798Z</time>
      </trkpt>
      <trkpt lat="43.6323" lon="3.95711">
        <ele>21.64936</ele>
        <time>2020-01-09T23:13:54.971Z</time>
      </trkpt>
      <trkpt lat="43.63234" lon="3.95711">
        <ele>21.646782</ele>
        <time>2020-01-09T23:13:57.232Z</time>
      </trkpt>
      <trkpt lat="43.63255" lon="3.95714">
        <ele>21.635267</ele>
        <time>2020-01-09T23:14:07.350Z</time>
      </trkpt>
      <trkpt lat="43.63313" lon="3.95684">
        <ele>21.601294</ele>
        <time>2020-01-09T23:14:37.237Z</time>
      </trkpt>
      <trkpt lat="43.6335" lon="3.95672">
        <ele>21.685823</ele>
        <time>2020-01-09T23:14:55.561Z</time>
      </trkpt>
      <trkpt lat="43.63359" lon="3.95675">
        <ele>21.736676</ele>
        <time>2020-01-09T23:15:00.045Z</time>
      </trkpt>
      <trkpt lat="43.63483" lon="3.95627">
        <ele>22.444005</ele>
        <time>2020-01-09T23:16:03.517Z</time>
      </trkpt>
      <trkpt lat="43.63584" lon="3.95523">
        <ele>23.664443</ele>
        <time>2020-01-09T23:17:06.899Z</time>
      </trkpt>
      <trkpt lat="43.63664" lon="3.95461">
        <ele>24.583446</ele>
        <time>2020-01-09T23:17:53.441Z</time>
      </trkpt>
      <trkpt lat="43.63684" lon="3.95461">
        <ele>24.691452</ele>
        <time>2020-01-09T23:18:03.148Z</time>
      </trkpt>
      <trkpt lat="43.63704" lon="3.95487">
        <ele>24.845839</ele>
        <time>2020-01-09T23:18:17.027Z</time>
      </trkpt>
      <trkpt lat="43.63726" lon="3.95495">
        <ele>24.968834</ele>
        <time>2020-01-09T23:18:27.955Z</time>
      </trkpt>
      <trkpt lat="43.6383" lon="3.95401">
        <ele>25.61248</ele>
        <time>2020-01-09T23:19:29.132Z</time>
      </trkpt>
      <trkpt lat="43.63837" lon="3.95392">
        <ele>25.646543</ele>
        <time>2020-01-09T23:19:33.397Z</time>
      </trkpt>
      <trkpt lat="43.63837" lon="3.95378">
        <ele>25.685523</ele>
        <time>2020-01-09T23:19:37.696Z</time>
      </trkpt>
      <trkpt lat="43.6384" lon="3.95368">
        <ele>25.715632</ele>
        <time>2020-01-09T23:19:40.975Z</time>
      </trkpt>
      <trkpt lat="43.6386" lon="3.95359">
        <ele>25.796454</ele>
        <time>2020-01-09T23:19:49.680Z</time>
      </trkpt>
      <trkpt lat="43.63924" lon="3.95299">
        <ele>26.088051</ele>
        <time>2020-01-09T23:20:21.455Z</time>
      </trkpt>
      <trkpt lat="43.63988" lon="3.95227">
        <ele>26.652569</ele>
        <time>2020-01-09T23:20:56.426Z</time>
      </trkpt>
      <trkpt lat="43.64014" lon="3.95189">
        <ele>26.96323</ele>
        <time>2020-01-09T23:21:12.477Z</time>
      </trkpt>
      <trkpt lat="43.64014" lon="3.95189">
        <ele>26.96323</ele>
        <time>2020-01-09T23:21:12.494Z</time>
      </trkpt>
      <trkpt lat="43.64014" lon="3.95189">
        <ele>26.96323</ele>
        <time>2020-01-09T23:21:12.494Z</time>
      </trkpt>
      <trkpt lat="43.64014" lon="3.95189">
        <ele>26.965256</ele>
        <time>2020-01-09T23:21:12.596Z</time>
      </trkpt>
      <trkpt lat="43.64029" lon="3.95167">
        <ele>27.144816</ele>
        <time>2020-01-09T23:21:21.586Z</time>
      </trkpt>
      <trkpt lat="43.64033" lon="3.95157">
        <ele>27.214129</ele>
        <time>2020-01-09T23:21:25.060Z</time>
      </trkpt>
      <trkpt lat="43.63999" lon="3.95069">
        <ele>27.839725</ele>
        <time>2020-01-09T23:21:54.816Z</time>
      </trkpt>
      <trkpt lat="43.63965" lon="3.94981">
        <ele>28.565825</ele>
        <time>2020-01-09T23:22:24.527Z</time>
      </trkpt>
      <trkpt lat="43.6393" lon="3.94893">
        <ele>29.293046</ele>
        <time>2020-01-09T23:22:54.284Z</time>
      </trkpt>
      <trkpt lat="43.63932" lon="3.94891">
        <ele>29.314279</ele>
        <time>2020-01-09T23:22:55.152Z</time>
      </trkpt>
      <trkpt lat="43.63976" lon="3.94859">
        <ele>29.668758</ele>
        <time>2020-01-09T23:23:15.530Z</time>
      </trkpt>
      <trkpt lat="43.6402" lon="3.94827">
        <ele>29.95536</ele>
        <time>2020-01-09T23:23:35.944Z</time>
      </trkpt>
      <trkpt lat="43.64046" lon="3.94777">
        <ele>30.212531</ele>
        <time>2020-01-09T23:23:54.294Z</time>
      </trkpt>
      <trkpt lat="43.64016" lon="3.94746">
        <ele>30.427679</ele>
        <time>2020-01-09T23:24:12.553Z</time>
      </trkpt>
      <trkpt lat="43.64046" lon="3.94777">
        <ele>30.592701</ele>
        <time>2020-01-09T23:24:30.782Z</time>
      </trkpt>
      <trkpt lat="43.64136" lon="3.94869">
        <ele>30.993176</ele>
        <time>2020-01-09T23:25:25.475Z</time>
      </trkpt>
      <trkpt lat="43.64284" lon="3.94975">
        <ele>32.197642</ele>
        <time>2020-01-09T23:26:48.090Z</time>
      </trkpt>
      <trkpt lat="43.64308" lon="3.94972">
        <ele>32.400562</ele>
        <time>2020-01-09T23:27:00.259Z</time>
      </trkpt>
      <trkpt lat="43.64349" lon="3.94943">
        <ele>32.796362</ele>
        <time>2020-01-09T23:27:23.577Z</time>
      </trkpt>
      <trkpt lat="43.64354" lon="3.94933">
        <ele>32.873293</ele>
        <time>2020-01-09T23:27:28.062Z</time>
      </trkpt>
      <trkpt lat="43.64335" lon="3.94825">
        <ele>33.558337</ele>
        <time>2020-01-09T23:28:08.419Z</time>
      </trkpt>
      <trkpt lat="43.64336" lon="3.94813">
        <ele>33.632669</ele>
        <time>2020-01-09T23:28:12.984Z</time>
      </trkpt>
      <trkpt lat="43.64332" lon="3.94801">
        <ele>33.714172</ele>
        <time>2020-01-09T23:28:16.987Z</time>
      </trkpt>
      <trkpt lat="43.64316" lon="3.94745">
        <ele>34.085313</ele>
        <time>2020-01-09T23:28:35.412Z</time>
      </trkpt>
      <trkpt lat="43.64312" lon="3.9473">
        <ele>34.181863</ele>
        <time>2020-01-09T23:28:40.180Z</time>
      </trkpt>
      <trkpt lat="43.64307" lon="3.94715">
        <ele>34.230827</ele>
        <time>2020-01-09T23:28:45.313Z</time>
      </trkpt>
      <trkpt lat="43.64255" lon="3.94535">
        <ele>34.351336</ele>
        <time>2020-01-09T23:29:43.184Z</time>
      </trkpt>
      <trkpt lat="43.64248" lon="3.9451">
        <ele>34.368087</ele>
        <time>2020-01-09T23:29:51.170Z</time>
      </trkpt>
      <trkpt lat="43.64234" lon="3.9446">
        <ele>34.184525</ele>
        <time>2020-01-09T23:30:07.007Z</time>
      </trkpt>
      <trkpt lat="43.64229" lon="3.94447">
        <ele>34.101038</ele>
        <time>2020-01-09T23:30:11.406Z</time>
      </trkpt>
      <trkpt lat="43.64194" lon="3.94339">
        <ele>33.445284</ele>
        <time>2020-01-09T23:30:45.901Z</time>
      </trkpt>
      <trkpt lat="43.6419" lon="3.94335">
        <ele>33.405415</ele>
        <time>2020-01-09T23:30:47.941Z</time>
      </trkpt>
      <trkpt lat="43.64185" lon="3.94334">
        <ele>33.372665</ele>
        <time>2020-01-09T23:30:49.671Z</time>
      </trkpt>
      <trkpt lat="43.64179" lon="3.94336">
        <ele>33.325379</ele>
        <time>2020-01-09T23:30:52.165Z</time>
      </trkpt>
      <trkpt lat="43.64171" lon="3.94341">
        <ele>33.251132</ele>
        <time>2020-01-09T23:30:56.024Z</time>
      </trkpt>
      <trkpt lat="43.64168" lon="3.94341">
        <ele>33.228915</ele>
        <time>2020-01-09T23:30:57.190Z</time>
      </trkpt>
      <trkpt lat="43.64162" lon="3.94346">
        <ele>33.17975</ele>
        <time>2020-01-09T23:30:59.759Z</time>
      </trkpt>
      <trkpt lat="43.64158" lon="3.94349">
        <ele>33.145144</ele>
        <time>2020-01-09T23:31:01.546Z</time>
      </trkpt>
      <trkpt lat="43.64146" lon="3.94358">
        <ele>33.038929</ele>
        <time>2020-01-09T23:31:07.116Z</time>
      </trkpt>
      <trkpt lat="43.64133" lon="3.94368">
        <ele>32.913966</ele>
        <time>2020-01-09T23:31:13.311Z</time>
      </trkpt>
      <trkpt lat="43.641" lon="3.94393">
        <ele>32.607332</ele>
        <time>2020-01-09T23:31:28.163Z</time>
      </trkpt>
      <trkpt lat="43.6407" lon="3.94405">
        <ele>32.349806</ele>
        <time>2020-01-09T23:31:40.592Z</time>
      </trkpt>
      <trkpt lat="43.64053" lon="3.94414">
        <ele>32.198109</ele>
        <time>2020-01-09T23:31:47.900Z</time>
      </trkpt>
      <trkpt lat="43.6399" lon="3.94466">
        <ele>31.589437</ele>
        <time>2020-01-09T23:32:17.592Z</time>
      </trkpt>
      <trkpt lat="43.63971" lon="3.94488">
        <ele>31.566634</ele>
        <time>2020-01-09T23:32:27.387Z</time>
      </trkpt>
      <trkpt lat="43.63966" lon="3.94495">
        <ele>31.592484</ele>
        <time>2020-01-09T23:32:30.433Z</time>
      </trkpt>
      <trkpt lat="43.63947" lon="3.94532">
        <ele>31.707363</ele>
        <time>2020-01-09T23:32:44.004Z</time>
      </trkpt>
      <trkpt lat="43.63939" lon="3.94594">
        <ele>31.86557</ele>
        <time>2020-01-09T23:33:03.114Z</time>
      </trkpt>
      <trkpt lat="43.63915" lon="3.94595">
        <ele>31.950633</ele>
        <time>2020-01-09T23:33:13.471Z</time>
      </trkpt>
      <trkpt lat="43.63884" lon="3.94623">
        <ele>32.0788</ele>
        <time>2020-01-09T23:33:29.115Z</time>
      </trkpt>
      <trkpt lat="43.63837" lon="3.94598">
        <ele>32.499584</ele>
        <time>2020-01-09T23:33:50.534Z</time>
      </trkpt>
      <trkpt lat="43.63802" lon="3.94576">
        <ele>32.91432</ele>
        <time>2020-01-09T23:34:06.867Z</time>
      </trkpt>
      <trkpt lat="43.63676" lon="3.94439">
        <ele>34.481866</ele>
        <time>2020-01-09T23:35:15.627Z</time>
      </trkpt>
      <trkpt lat="43.63515" lon="3.94219">
        <ele>36.057129</ele>
        <time>2020-01-09T23:36:50.767Z</time>
      </trkpt>
      <trkpt lat="43.63488" lon="3.94178">
        <ele>36.311008</ele>
        <time>2020-01-09T23:37:07.707Z</time>
      </trkpt>
      <trkpt lat="43.63422" lon="3.94099">
        <ele>36.834447</ele>
        <time>2020-01-09T23:37:44.438Z</time>
      </trkpt>
      <trkpt lat="43.63265" lon="3.93906">
        <ele>37.996302</ele>
        <time>2020-01-09T23:39:12.473Z</time>
      </trkpt>
      <trkpt lat="43.63216" lon="3.93824">
        <ele>38.396498</ele>
        <time>2020-01-09T23:39:44.835Z</time>
      </trkpt>
      <trkpt lat="43.63148" lon="3.93725">
        <ele>38.971338</ele>
        <time>2020-01-09T23:40:26.188Z</time>
      </trkpt>
      <trkpt lat="43.63118" lon="3.93672">
        <ele>39.269205</ele>
        <time>2020-01-09T23:40:46.773Z</time>
      </trkpt>
      <trkpt lat="43.63093" lon="3.93625">
        <ele>39.524963</ele>
        <time>2020-01-09T23:41:04.560Z</time>
      </trkpt>
      <trkpt lat="43.63057" lon="3.93576">
        <ele>39.894543</ele>
        <time>2020-01-09T23:41:25.757Z</time>
      </trkpt>
      <trkpt lat="43.63054" lon="3.93568">
        <ele>39.949806</ele>
        <time>2020-01-09T23:41:28.568Z</time>
      </trkpt>
      <trkpt lat="43.6306" lon="3.93563">
        <ele>40.007396</ele>
        <time>2020-01-09T23:41:31.601Z</time>
      </trkpt>
      <trkpt lat="43.6307" lon="3.93549">
        <ele>40.120514</ele>
        <time>2020-01-09T23:41:37.636Z</time>
      </trkpt>
      <trkpt lat="43.6307" lon="3.93548">
        <ele>40.126918</ele>
        <time>2020-01-09T23:41:38.037Z</time>
      </trkpt>
      <trkpt lat="43.63073" lon="3.93514">
        <ele>40.330279</ele>
        <time>2020-01-09T23:41:48.619Z</time>
      </trkpt>
      <trkpt lat="43.63071" lon="3.93507">
        <ele>40.371399</ele>
        <time>2020-01-09T23:41:50.828Z</time>
      </trkpt>
      <trkpt lat="43.63071" lon="3.93507">
        <ele>40.371399</ele>
        <time>2020-01-09T23:41:50.831Z</time>
      </trkpt>
      <trkpt lat="43.63066" lon="3.93495">
        <ele>40.453061</ele>
        <time>2020-01-09T23:41:55.160Z</time>
      </trkpt>
      <trkpt lat="43.63057" lon="3.93488">
        <ele>40.531277</ele>
        <time>2020-01-09T23:41:59.174Z</time>
      </trkpt>
      <trkpt lat="43.63053" lon="3.93484">
        <ele>40.574995</ele>
        <time>2020-01-09T23:42:01.428Z</time>
      </trkpt>
      <trkpt lat="43.6304" lon="3.93482">
        <ele>40.681072</ele>
        <time>2020-01-09T23:42:07.057Z</time>
      </trkpt>
      <trkpt lat="43.63034" lon="3.93484">
        <ele>40.724474</ele>
        <time>2020-01-09T23:42:09.362Z</time>
      </trkpt>
      <trkpt lat="43.63024" lon="3.93489">
        <ele>40.81268</ele>
        <time>2020-01-09T23:42:13.908Z</time>
      </trkpt>
      <trkpt lat="43.6302" lon="3.93481">
        <ele>40.867927</ele>
        <time>2020-01-09T23:42:16.788Z</time>
      </trkpt>
      <trkpt lat="43.63014" lon="3.93475">
        <ele>40.926503</ele>
        <time>2020-01-09T23:42:19.855Z</time>
      </trkpt>
      <trkpt lat="43.63004" lon="3.93462">
        <ele>41.035758</ele>
        <time>2020-01-09T23:42:25.724Z</time>
      </trkpt>
      <trkpt lat="43.62979" lon="3.93416">
        <ele>41.717361</ele>
        <time>2020-01-09T23:42:43.650Z</time>
      </trkpt>
      <trkpt lat="43.62906" lon="3.93312">
        <ele>43.536063</ele>
        <time>2020-01-09T23:43:29.740Z</time>
      </trkpt>
      <trkpt lat="43.62899" lon="3.93307">
        <ele>43.668971</ele>
        <time>2020-01-09T23:43:33.172Z</time>
      </trkpt>
      <trkpt lat="43.62896" lon="3.93303">
        <ele>43.748449</ele>
        <time>2020-01-09T23:43:35.177Z</time>
      </trkpt>
      <trkpt lat="43.6288" lon="3.93347">
        <ele>44.506691</ele>
        <time>2020-01-09T23:43:51.381Z</time>
      </trkpt>
      <trkpt lat="43.62744" lon="3.93433">
        <ele>48.877622</ele>
        <time>2020-01-09T23:45:00.271Z</time>
      </trkpt>
      <trkpt lat="43.62705" lon="3.93387">
        <ele>50.40529</ele>
        <time>2020-01-09T23:45:24.483Z</time>
      </trkpt>
      <trkpt lat="43.62556" lon="3.93292">
        <ele>54.97905</ele>
        <time>2020-01-09T23:46:40.288Z</time>
      </trkpt>
      <trkpt lat="43.62542" lon="3.93281">
        <ele>55.130715</ele>
        <time>2020-01-09T23:46:47.704Z</time>
      </trkpt>
      <trkpt lat="43.62513" lon="3.93261">
        <ele>55.433962</ele>
        <time>2020-01-09T23:47:01.974Z</time>
      </trkpt>
      <trkpt lat="43.625" lon="3.93254">
        <ele>55.56049</ele>
        <time>2020-01-09T23:47:07.841Z</time>
      </trkpt>
      <trkpt lat="43.62474" lon="3.93249">
        <ele>55.797398</ele>
        <time>2020-01-09T23:47:18.820Z</time>
      </trkpt>
      <trkpt lat="43.62475" lon="3.93253">
        <ele>55.827677</ele>
        <time>2020-01-09T23:47:20.410Z</time>
      </trkpt>
      <trkpt lat="43.62498" lon="3.93401">
        <ele>56.04271</ele>
        <time>2020-01-09T23:48:13.028Z</time>
      </trkpt>
      <trkpt lat="43.62511" lon="3.93528">
        <ele>54.906956</ele>
        <time>2020-01-09T23:48:56.288Z</time>
      </trkpt>
      <trkpt lat="43.62512" lon="3.93551">
        <ele>54.701554</ele>
        <time>2020-01-09T23:49:04.102Z</time>
      </trkpt>
      <trkpt lat="43.62504" lon="3.93619">
        <ele>54.102704</ele>
        <time>2020-01-09T23:49:27.400Z</time>
      </trkpt>
      <trkpt lat="43.62505" lon="3.93704">
        <ele>53.398469</ele>
        <time>2020-01-09T23:49:56.246Z</time>
      </trkpt>
      <trkpt lat="43.62505" lon="3.93728">
        <ele>53.20175</ele>
        <time>2020-01-09T23:50:04.343Z</time>
      </trkpt>
      <trkpt lat="43.62486" lon="3.93955">
        <ele>52.016076</ele>
        <time>2020-01-09T23:51:22.845Z</time>
      </trkpt>
      <trkpt lat="43.62474" lon="3.93968">
        <ele>51.972082</ele>
        <time>2020-01-09T23:51:30.528Z</time>
      </trkpt>
      <trkpt lat="43.62411" lon="3.93996">
        <ele>51.790974</ele>
        <time>2020-01-09T23:52:02.372Z</time>
      </trkpt>
      <trkpt lat="43.6241" lon="3.93999">
        <ele>51.783754</ele>
        <time>2020-01-09T23:52:03.659Z</time>
      </trkpt>
      <trkpt lat="43.62411" lon="3.94011">
        <ele>51.759286</ele>
        <time>2020-01-09T23:52:07.964Z</time>
      </trkpt>
      <trkpt lat="43.62461" lon="3.9427">
        <ele>52.750277</ele>
        <time>2020-01-09T23:53:43.678Z</time>
      </trkpt>
      <trkpt lat="43.62473" lon="3.94395">
        <ele>53.192428</ele>
        <time>2020-01-09T23:54:29.363Z</time>
      </trkpt>
      <trkpt lat="43.6247" lon="3.94435">
        <ele>53.335242</ele>
        <time>2020-01-09T23:54:44.014Z</time>
      </trkpt>
      <trkpt lat="43.62432" lon="3.94609">
        <ele>52.417946</ele>
        <time>2020-01-09T23:55:47.441Z</time>
      </trkpt>
      <trkpt lat="43.62419" lon="3.94821">
        <ele>49.276529</ele>
        <time>2020-01-09T23:56:57.738Z</time>
      </trkpt>
      <trkpt lat="43.62419" lon="3.94825">
        <ele>49.191406</ele>
        <time>2020-01-09T23:56:58.824Z</time>
      </trkpt>
      <trkpt lat="43.62382" lon="3.94838">
        <ele>48.015088</ele>
        <time>2020-01-09T23:57:15.621Z</time>
      </trkpt>
      <trkpt lat="43.62286" lon="3.94869">
        <ele>44.942336</ele>
        <time>2020-01-09T23:57:59.471Z</time>
      </trkpt>
      <trkpt lat="43.62199" lon="3.94904">
        <ele>42.097654</ele>
        <time>2020-01-09T23:58:40.236Z</time>
      </trkpt>
      <trkpt lat="43.61853" lon="3.9498">
        <ele>32.539424</ele>
        <time>2020-01-10T00:01:17.868Z</time>
      </trkpt>
      <trkpt lat="43.61836" lon="3.94985">
        <ele>32.139948</ele>
        <time>2020-01-10T00:01:26.224Z</time>
      </trkpt>
      <trkpt lat="43.61836" lon="3.94985">
        <ele>32.139948</ele>
        <time>2020-01-10T00:01:26.248Z</time>
      </trkpt>
      <trkpt lat="43.61778" lon="3.94889">
        <ele>30.613638</ele>
        <time>2020-01-10T00:02:02.338Z</time>
      </trkpt>
      <trkpt lat="43.61711" lon="3.94766">
        <ele>30.304113</ele>
        <time>2020-01-10T00:02:47.631Z</time>
      </trkpt>
      <trkpt lat="43.61687" lon="3.94717">
        <ele>30.182535</ele>
        <time>2020-01-10T00:03:05.788Z</time>
      </trkpt>
      <trkpt lat="43.61672" lon="3.94691">
        <ele>30.246456</ele>
        <time>2020-01-10T00:03:15.732Z</time>
      </trkpt>
      <trkpt lat="43.61678" lon="3.94679">
        <ele>30.278879</ele>
        <time>2020-01-10T00:03:20.905Z</time>
      </trkpt>
      <trkpt lat="43.61697" lon="3.94583">
        <ele>30.502446</ele>
        <time>2020-01-10T00:03:56.126Z</time>
      </trkpt>
      <trkpt lat="43.61715" lon="3.94408">
        <ele>30.965302</ele>
        <time>2020-01-10T00:04:58.775Z</time>
      </trkpt>
      <trkpt lat="43.61727" lon="3.94372">
        <ele>31.091235</ele>
        <time>2020-01-10T00:05:13.010Z</time>
      </trkpt>
      <trkpt lat="43.61737" lon="3.94355">
        <ele>31.159588</ele>
        <time>2020-01-10T00:05:20.668Z</time>
      </trkpt>
      <trkpt lat="43.61751" lon="3.94334">
        <ele>31.249922</ele>
        <time>2020-01-10T00:05:30.905Z</time>
      </trkpt>
      <trkpt lat="43.61761" lon="3.94308">
        <ele>31.341852</ele>
        <time>2020-01-10T00:05:41.335Z</time>
      </trkpt>
      <trkpt lat="43.61802" lon="3.94063">
        <ele>32.530039</ele>
        <time>2020-01-10T00:07:11.824Z</time>
      </trkpt>
      <trkpt lat="43.61816" lon="3.93957">
        <ele>33.083224</ele>
        <time>2020-01-10T00:07:50.766Z</time>
      </trkpt>
      <trkpt lat="43.61817" lon="3.93943">
        <ele>33.154682</ele>
        <time>2020-01-10T00:07:55.881Z</time>
      </trkpt>
      <trkpt lat="43.61817" lon="3.93938">
        <ele>33.180065</ele>
        <time>2020-01-10T00:07:57.749Z</time>
      </trkpt>
      <trkpt lat="43.61816" lon="3.93932">
        <ele>33.211053</ele>
        <time>2020-01-10T00:07:59.968Z</time>
      </trkpt>
      <trkpt lat="43.61813" lon="3.93883">
        <ele>33.457886</ele>
        <time>2020-01-10T00:08:14.859Z</time>
      </trkpt>
      <trkpt lat="43.61819" lon="3.9383">
        <ele>33.729678</ele>
        <time>2020-01-10T00:08:31.249Z</time>
      </trkpt>
      <trkpt lat="43.61836" lon="3.93772">
        <ele>34.043705</ele>
        <time>2020-01-10T00:08:50.170Z</time>
      </trkpt>
      <trkpt lat="43.61843" lon="3.93748">
        <ele>34.17255</ele>
        <time>2020-01-10T00:08:57.996Z</time>
      </trkpt>
      <trkpt lat="43.61843" lon="3.93746">
        <ele>34.184857</ele>
        <time>2020-01-10T00:08:58.766Z</time>
      </trkpt>
      <trkpt lat="43.6186" lon="3.93649">
        <ele>34.689877</ele>
        <time>2020-01-10T00:09:29.238Z</time>
      </trkpt>
      <trkpt lat="43.61861" lon="3.93637">
        <ele>34.749769</ele>
        <time>2020-01-10T00:09:32.864Z</time>
      </trkpt>
      <trkpt lat="43.61864" lon="3.93603">
        <ele>34.922367</ele>
        <time>2020-01-10T00:09:43.260Z</time>
      </trkpt>
      <trkpt lat="43.61919" lon="3.93352">
        <ele>36.961915</ele>
        <time>2020-01-10T00:11:04.481Z</time>
      </trkpt>
      <trkpt lat="43.6194" lon="3.93161">
        <ele>39.105916</ele>
        <time>2020-01-10T00:12:05.796Z</time>
      </trkpt>
      <trkpt lat="43.61956" lon="3.93052">
        <ele>40.476182</ele>
        <time>2020-01-10T00:12:41.489Z</time>
      </trkpt>
      <trkpt lat="43.61962" lon="3.93003">
        <ele>40.913656</ele>
        <time>2020-01-10T00:12:56.996Z</time>
      </trkpt>
      <trkpt lat="43.61964" lon="3.92989">
        <ele>41.036011</ele>
        <time>2020-01-10T00:13:01.533Z</time>
      </trkpt>
      <trkpt lat="43.6198" lon="3.92855">
        <ele>42.163783</ele>
        <time>2020-01-10T00:13:43.902Z</time>
      </trkpt>
      <trkpt lat="43.61981" lon="3.92795">
        <ele>42.619006</ele>
        <time>2020-01-10T00:14:02.107Z</time>
      </trkpt>
      <trkpt lat="43.61975" lon="3.92693">
        <ele>41.949994</ele>
        <time>2020-01-10T00:14:33.293Z</time>
      </trkpt>
      <trkpt lat="43.61975" lon="3.92693">
        <ele>41.9466</ele>
        <time>2020-01-10T00:14:33.414Z</time>
      </trkpt>
      <trkpt lat="43.61949" lon="3.92519">
        <ele>40.41041</ele>
        <time>2020-01-10T00:15:23.786Z</time>
      </trkpt>
      <trkpt lat="43.61948" lon="3.9249">
        <ele>39.893504</ele>
        <time>2020-01-10T00:15:32.091Z</time>
      </trkpt>
      <trkpt lat="43.61947" lon="3.92477">
        <ele>39.653651</ele>
        <time>2020-01-10T00:15:35.670Z</time>
      </trkpt>
      <trkpt lat="43.61956" lon="3.92405">
        <ele>38.368766</ele>
        <time>2020-01-10T00:15:55.975Z</time>
      </trkpt>
      <trkpt lat="43.61971" lon="3.92365">
        <ele>37.583208</ele>
        <time>2020-01-10T00:16:08.405Z</time>
      </trkpt>
      <trkpt lat="43.62009" lon="3.92271">
        <ele>36.780527</ele>
        <time>2020-01-10T00:16:38.717Z</time>
      </trkpt>
      <trkpt lat="43.62125" lon="3.92478">
        <ele>38.323187</ele>
        <time>2020-01-10T00:18:00.185Z</time>
      </trkpt>
      <trkpt lat="43.62171" lon="3.92538">
        <ele>39.69659</ele>
        <time>2020-01-10T00:18:29.293Z</time>
      </trkpt>
      <trkpt lat="43.62351" lon="3.92631">
        <ele>43.851916</ele>
        <time>2020-01-10T00:19:55.959Z</time>
      </trkpt>
      <trkpt lat="43.62425" lon="3.92667">
        <ele>45.055358</ele>
        <time>2020-01-10T00:20:30.546Z</time>
      </trkpt>
      <trkpt lat="43.6249" lon="3.92712">
        <ele>45.04175</ele>
        <time>2020-01-10T00:21:00.633Z</time>
      </trkpt>
      <trkpt lat="43.62557" lon="3.92775">
        <ele>45.026399</ele>
        <time>2020-01-10T00:21:33.571Z</time>
      </trkpt>
      <trkpt lat="43.62562" lon="3.92766">
        <ele>44.917887</ele>
        <time>2020-01-10T00:21:37.391Z</time>
      </trkpt>
      <trkpt lat="43.62653" lon="3.92671">
        <ele>42.589361</ele>
        <time>2020-01-10T00:22:29.703Z</time>
      </trkpt>
      <trkpt lat="43.6271" lon="3.92618">
        <ele>41.186288</ele>
        <time>2020-01-10T00:23:00.974Z</time>
      </trkpt>
      <trkpt lat="43.62554" lon="3.92202">
        <ele>35.088642</ele>
        <time>2020-01-10T00:25:38.038Z</time>
      </trkpt>
      <trkpt lat="43.62513" lon="3.92169">
        <ele>34.701983</ele>
        <time>2020-01-10T00:26:00.652Z</time>
      </trkpt>
      <trkpt lat="43.62509" lon="3.92161">
        <ele>34.669337</ele>
        <time>2020-01-10T00:26:03.791Z</time>
      </trkpt>
      <trkpt lat="43.62518" lon="3.92156">
        <ele>34.622041</ele>
        <time>2020-01-10T00:26:07.572Z</time>
      </trkpt>
      <trkpt lat="43.62515" lon="3.92145">
        <ele>34.581129</ele>
        <time>2020-01-10T00:26:10.862Z</time>
      </trkpt>
      <trkpt lat="43.62516" lon="3.92132">
        <ele>34.533523</ele>
        <time>2020-01-10T00:26:14.726Z</time>
      </trkpt>
      <trkpt lat="43.62504" lon="3.92111">
        <ele>34.439283</ele>
        <time>2020-01-10T00:26:22.372Z</time>
      </trkpt>
      <trkpt lat="43.62426" lon="3.92004">
        <ele>34.048477</ele>
        <time>2020-01-10T00:27:07.494Z</time>
      </trkpt>
      <trkpt lat="43.62426" lon="3.92003">
        <ele>34.050573</ele>
        <time>2020-01-10T00:27:07.733Z</time>
      </trkpt>
      <trkpt lat="43.62377" lon="3.91927">
        <ele>34.338318</ele>
        <time>2020-01-10T00:27:38.305Z</time>
      </trkpt>
      <trkpt lat="43.62293" lon="3.91829">
        <ele>34.926227</ele>
        <time>2020-01-10T00:28:24.718Z</time>
      </trkpt>
      <trkpt lat="43.62258" lon="3.91793">
        <ele>35.398366</ele>
        <time>2020-01-10T00:28:43.169Z</time>
      </trkpt>
      <trkpt lat="43.62249" lon="3.91784">
        <ele>35.525613</ele>
        <time>2020-01-10T00:28:48.318Z</time>
      </trkpt>
      <trkpt lat="43.62232" lon="3.91763">
        <ele>35.771658</ele>
        <time>2020-01-10T00:28:57.765Z</time>
      </trkpt>
      <trkpt lat="43.62223" lon="3.91759">
        <ele>35.880438</ele>
        <time>2020-01-10T00:29:02.128Z</time>
      </trkpt>
      <trkpt lat="43.62231" lon="3.91752">
        <ele>35.989136</ele>
        <time>2020-01-10T00:29:06.311Z</time>
      </trkpt>
      <trkpt lat="43.62237" lon="3.9174">
        <ele>36.102192</ele>
        <time>2020-01-10T00:29:10.663Z</time>
      </trkpt>
      <trkpt lat="43.6224" lon="3.91728">
        <ele>36.208537</ele>
        <time>2020-01-10T00:29:14.843Z</time>
      </trkpt>
      <trkpt lat="43.6224" lon="3.91715">
        <ele>36.31005</ele>
        <time>2020-01-10T00:29:18.965Z</time>
      </trkpt>
      <trkpt lat="43.62239" lon="3.9171">
        <ele>36.346021</ele>
        <time>2020-01-10T00:29:20.330Z</time>
      </trkpt>
      <trkpt lat="43.62257" lon="3.91695">
        <ele>36.571937</ele>
        <time>2020-01-10T00:29:29.020Z</time>
      </trkpt>
      <trkpt lat="43.62266" lon="3.91685">
        <ele>36.684314</ele>
        <time>2020-01-10T00:29:34.439Z</time>
      </trkpt>
      <trkpt lat="43.62269" lon="3.91682">
        <ele>36.709504</ele>
        <time>2020-01-10T00:29:35.926Z</time>
      </trkpt>
      <trkpt lat="43.62336" lon="3.91623">
        <ele>37.272087</ele>
        <time>2020-01-10T00:30:10.373Z</time>
      </trkpt>
      <trkpt lat="43.62376" lon="3.91589">
        <ele>37.604942</ele>
        <time>2020-01-10T00:30:30.067Z</time>
      </trkpt>
      <trkpt lat="43.62448" lon="3.91535">
        <ele>37.65187</ele>
        <time>2020-01-10T00:31:03.345Z</time>
      </trkpt>
      <trkpt lat="43.62545" lon="3.91461">
        <ele>36.836881</ele>
        <time>2020-01-10T00:31:48.252Z</time>
      </trkpt>
      <trkpt lat="43.62756" lon="3.91273">
        <ele>33.27154</ele>
        <time>2020-01-10T00:33:27.632Z</time>
      </trkpt>
      <trkpt lat="43.62757" lon="3.91273">
        <ele>33.270215</ele>
        <time>2020-01-10T00:33:27.754Z</time>
      </trkpt>
      <trkpt lat="43.62765" lon="3.91264">
        <ele>33.12949</ele>
        <time>2020-01-10T00:33:31.992Z</time>
      </trkpt>
      <trkpt lat="43.62778" lon="3.91247">
        <ele>32.894304</ele>
        <time>2020-01-10T00:33:39.199Z</time>
      </trkpt>
      <trkpt lat="43.62804" lon="3.91219">
        <ele>32.457998</ele>
        <time>2020-01-10T00:33:52.251Z</time>
      </trkpt>
      <trkpt lat="43.62823" lon="3.912">
        <ele>32.140193</ele>
        <time>2020-01-10T00:34:01.696Z</time>
      </trkpt>
      <trkpt lat="43.62849" lon="3.91173">
        <ele>31.712623</ele>
        <time>2020-01-10T00:34:14.548Z</time>
      </trkpt>
      <trkpt lat="43.62854" lon="3.9117">
        <ele>31.649078</ele>
        <time>2020-01-10T00:34:16.526Z</time>
      </trkpt>
      <trkpt lat="43.62856" lon="3.91168">
        <ele>31.614056</ele>
        <time>2020-01-10T00:34:17.581Z</time>
      </trkpt>
      <trkpt lat="43.6287" lon="3.91157">
        <ele>31.411042</ele>
        <time>2020-01-10T00:34:24.295Z</time>
      </trkpt>
      <trkpt lat="43.62937" lon="3.91106">
        <ele>31.153375</ele>
        <time>2020-01-10T00:34:55.558Z</time>
      </trkpt>
      <trkpt lat="43.62981" lon="3.91056">
        <ele>30.965308</ele>
        <time>2020-01-10T00:35:18.476Z</time>
      </trkpt>
      <trkpt lat="43.62991" lon="3.91042">
        <ele>30.915987</ele>
        <time>2020-01-10T00:35:24.500Z</time>
      </trkpt>
      <trkpt lat="43.63004" lon="3.91021">
        <ele>30.849017</ele>
        <time>2020-01-10T00:35:32.681Z</time>
      </trkpt>
      <trkpt lat="43.63009" lon="3.91014">
        <ele>30.826838</ele>
        <time>2020-01-10T00:35:35.365Z</time>
      </trkpt>
      <trkpt lat="43.63011" lon="3.91011">
        <ele>30.817125</ele>
        <time>2020-01-10T00:35:36.570Z</time>
      </trkpt>
      <trkpt lat="43.63017" lon="3.91003">
        <ele>30.837968</ele>
        <time>2020-01-10T00:35:40.179Z</time>
      </trkpt>
      <trkpt lat="43.63037" lon="3.90978">
        <ele>30.926393</ele>
        <time>2020-01-10T00:35:51.467Z</time>
      </trkpt>
      <trkpt lat="43.63058" lon="3.90952">
        <ele>31.014031</ele>
        <time>2020-01-10T00:36:02.729Z</time>
      </trkpt>
      <trkpt lat="43.63078" lon="3.90923">
        <ele>31.107166</ele>
        <time>2020-01-10T00:36:14.757Z</time>
      </trkpt>
      <trkpt lat="43.63093" lon="3.909">
        <ele>31.180745</ele>
        <time>2020-01-10T00:36:24.308Z</time>
      </trkpt>
      <trkpt lat="43.63106" lon="3.90877">
        <ele>31.246841</ele>
        <time>2020-01-10T00:36:32.851Z</time>
      </trkpt>
      <trkpt lat="43.63108" lon="3.90872">
        <ele>31.260944</ele>
        <time>2020-01-10T00:36:34.648Z</time>
      </trkpt>
      <trkpt lat="43.63108" lon="3.90872">
        <ele>31.260944</ele>
        <time>2020-01-10T00:36:34.697Z</time>
      </trkpt>
      <trkpt lat="43.63108" lon="3.90872">
        <ele>31.260944</ele>
        <time>2020-01-10T00:36:34.711Z</time>
      </trkpt>
      <trkpt lat="43.63111" lon="3.90869">
        <ele>31.272432</ele>
        <time>2020-01-10T00:36:36.253Z</time>
      </trkpt>
      <trkpt lat="43.63117" lon="3.90853">
        <ele>31.3152</ele>
        <time>2020-01-10T00:36:41.910Z</time>
      </trkpt>
      <trkpt lat="43.63122" lon="3.90849">
        <ele>31.332002</ele>
        <time>2020-01-10T00:36:44.117Z</time>
      </trkpt>
      <trkpt lat="43.63123" lon="3.90851">
        <ele>31.338602</ele>
        <time>2020-01-10T00:36:44.964Z</time>
      </trkpt>
      <trkpt lat="43.63125" lon="3.90852">
        <ele>31.345119</ele>
        <time>2020-01-10T00:36:45.819Z</time>
      </trkpt>
      <trkpt lat="43.63129" lon="3.90854">
        <ele>31.359098</ele>
        <time>2020-01-10T00:36:47.626Z</time>
      </trkpt>
      <trkpt lat="43.6314" lon="3.9085">
        <ele>31.410463</ele>
        <time>2020-01-10T00:36:52.414Z</time>
      </trkpt>
      <trkpt lat="43.63143" lon="3.90846">
        <ele>31.466536</ele>
        <time>2020-01-10T00:36:54.263Z</time>
      </trkpt>
      <trkpt lat="43.63145" lon="3.90841">
        <ele>31.517475</ele>
        <time>2020-01-10T00:36:55.878Z</time>
      </trkpt>
      <trkpt lat="43.63146" lon="3.90836">
        <ele>31.567029</ele>
        <time>2020-01-10T00:36:57.480Z</time>
      </trkpt>
      <trkpt lat="43.63146" lon="3.90831">
        <ele>31.617059</ele>
        <time>2020-01-10T00:36:59.093Z</time>
      </trkpt>
      <trkpt lat="43.63153" lon="3.90821">
        <ele>31.741691</ele>
        <time>2020-01-10T00:37:03.072Z</time>
      </trkpt>
      <trkpt lat="43.63153" lon="3.90817">
        <ele>31.786113</ele>
        <time>2020-01-10T00:37:04.482Z</time>
      </trkpt>
      <trkpt lat="43.63158" lon="3.9081">
        <ele>31.884187</ele>
        <time>2020-01-10T00:37:07.765Z</time>
      </trkpt>
      <trkpt lat="43.63171" lon="3.90797">
        <ele>32.09233</ele>
        <time>2020-01-10T00:37:14.539Z</time>
      </trkpt>
      <trkpt lat="43.63175" lon="3.90798">
        <ele>32.147494</ele>
        <time>2020-01-10T00:37:16.284Z</time>
      </trkpt>
      <trkpt lat="43.63194" lon="3.9079">
        <ele>32.419807</ele>
        <time>2020-01-10T00:37:25.315Z</time>
      </trkpt>
      <trkpt lat="43.63194" lon="3.9079">
        <ele>32.419807</ele>
        <time>2020-01-10T00:37:25.326Z</time>
      </trkpt>
      <trkpt lat="43.63194" lon="3.9079">
        <ele>32.419807</ele>
        <time>2020-01-10T00:37:25.363Z</time>
      </trkpt>
      <trkpt lat="43.63199" lon="3.9079">
        <ele>32.479981</ele>
        <time>2020-01-10T00:37:27.326Z</time>
      </trkpt>
      <trkpt lat="43.63202" lon="3.90789">
        <ele>32.523319</ele>
        <time>2020-01-10T00:37:28.731Z</time>
      </trkpt>
      <trkpt lat="43.63205" lon="3.90786">
        <ele>32.567123</ele>
        <time>2020-01-10T00:37:30.161Z</time>
      </trkpt>
      <trkpt lat="43.63206" lon="3.90782">
        <ele>32.61091</ele>
        <time>2020-01-10T00:37:31.562Z</time>
      </trkpt>
      <trkpt lat="43.63206" lon="3.90773">
        <ele>32.69751</ele>
        <time>2020-01-10T00:37:34.374Z</time>
      </trkpt>
      <trkpt lat="43.63204" lon="3.9077">
        <ele>32.740475</ele>
        <time>2020-01-10T00:37:35.764Z</time>
      </trkpt>
      <trkpt lat="43.63214" lon="3.90762">
        <ele>32.884923</ele>
        <time>2020-01-10T00:37:40.641Z</time>
      </trkpt>
      <trkpt lat="43.63265" lon="3.90734">
        <ele>33.619636</ele>
        <time>2020-01-10T00:38:04.621Z</time>
      </trkpt>
      <trkpt lat="43.63274" lon="3.90755">
        <ele>33.852016</ele>
        <time>2020-01-10T00:38:12.493Z</time>
      </trkpt>
      <trkpt lat="43.63306" lon="3.90833">
        <ele>34.637788</ele>
        <time>2020-01-10T00:38:40.427Z</time>
      </trkpt>
      <trkpt lat="43.63309" lon="3.90831">
        <ele>34.670643</ele>
        <time>2020-01-10T00:38:41.629Z</time>
      </trkpt>
      <trkpt lat="43.63355" lon="3.90774">
        <ele>35.427744</ele>
        <time>2020-01-10T00:39:08.474Z</time>
      </trkpt>
      <trkpt lat="43.63359" lon="3.90774">
        <ele>35.474044</ele>
        <time>2020-01-10T00:39:10.067Z</time>
      </trkpt>
      <trkpt lat="43.63368" lon="3.90763">
        <ele>35.61415</ele>
        <time>2020-01-10T00:39:15.004Z</time>
      </trkpt>
      <trkpt lat="43.63368" lon="3.90758">
        <ele>35.66215</ele>
        <time>2020-01-10T00:39:16.683Z</time>
      </trkpt>
      <trkpt lat="43.63372" lon="3.90753">
        <ele>35.730548</ele>
        <time>2020-01-10T00:39:19.105Z</time>
      </trkpt>
      <trkpt lat="43.63375" lon="3.9075">
        <ele>35.773148</ele>
        <time>2020-01-10T00:39:20.646Z</time>
      </trkpt>
      <trkpt lat="43.63385" lon="3.90742">
        <ele>35.906877</ele>
        <time>2020-01-10T00:39:25.169Z</time>
      </trkpt>
      <trkpt lat="43.63407" lon="3.90724">
        <ele>35.971619</ele>
        <time>2020-01-10T00:39:36.218Z</time>
      </trkpt>
      <trkpt lat="43.63402" lon="3.90713">
        <ele>35.971619</ele>
        <time>2020-01-10T00:39:40.128Z</time>
      </trkpt>
      <trkpt lat="43.6338" lon="3.9066">
        <ele>35.971619</ele>
        <time>2020-01-10T00:39:58.910Z</time>
      </trkpt>
      <trkpt lat="43.63382" lon="3.90658">
        <ele>35.971619</ele>
        <time>2020-01-10T00:39:59.932Z</time>
      </trkpt>
      <trkpt lat="43.63395" lon="3.90647">
        <ele>35.971619</ele>
        <time>2020-01-10T00:40:06.523Z</time>
      </trkpt>
    </trkseg>
  </trk>
</gpx>